[[{"header":{"parameterUnit":"m.s-1","parameterCategory":1,"la1":30.6,"la2":29.2853,"lo1":-89.7004,"lo2":-87.6739,"dy":0.0162,"dx":0.0183,"nx":112,"ny":82,"refTime":"2023-04-16T12:00:00:Z","depth":0,"parameterNumber":2,"parameterNumberName":"U-component_of_WINDS"},"data":[0.0,0.0,0.0,0.0,0.0,0.0,0.0,0.0,0.0,0.0,0.0,0.0,0.0,0.0,0.0,0.0,0.0,0.0,0.0,0.0,0.0,0.0,0.0,0.0,0.0,0.0,0.0,0.0,0.0,0.0,0.0,0.0,0.0,0.0,0.0,0.0,0.0,0.0,0.0,0.0,0.0,0.0,0.0,0.0,0.0,0.0,0.0,0.0,0.0,0.0,0.0,0.0,0.0,0.0,0.0,0.0,0.0,0.0,0.0,0.0,0.0,0.0,0.0,0.0,0.0,0.0,0.0,0.0,0.0,0.0,0.0,0.0,0.0,0.0,0.0,0.0,0.0,0.0,0.0,0.0,0.0,0.0,0.0,0.0,0.0,0.0,0.0,0.0,0.0,0.0,0.0,-4.0224,-4.5892,-4.9335,-4.9037,-4.6432,-4.2162,-3.5885,0.0,0.0,0.0,0.0,0.0,0.0,0.0,0.0,0.0,0.0,0.0,0.0,0.0,0.0,0.0,0.0,0.0,0.0,0.0,0.0,0.0,0.0,0.0,0.0,0.0,0.0,0.0,0.0,0.0,0.0,0.0,0.0,0.0,0.0,0.0,0.0,0.0,0.0,0.0,0.0,0.0,0.0,0.0,0.0,0.0,0.0,0.0,0.0,0.0,0.0,0.0,0.0,0.0,0.0,0.0,0.0,0.0,0.0,0.0,0.0,0.0,0.0,0.0,0.0,0.0,0.0,0.0,0.0,0.0,0.0,0.0,0.0,0.0,0.0,0.0,0.0,0.0,0.0,0.0,0.0,0.0,0.0,0.0,0.0,0.0,0.0,0.0,0.0,0.0,0.0,0.0,0.0,0.0,0.0,0.0,0.0,0.0,0.0,0.0,0.0,0.0,0.0,0.0,0.0,-3.7485,-4.4214,-4.7184,-4.8269,-4.7353,-4.3585,-3.9623,-3.5731,0.0,0.0,0.0,0.0,0.0,0.0,0.0,0.0,0.0,0.0,0.0,0.0,0.0,0.0,0.0,0.0,0.0,0.0,0.0,0.0,0.0,0.0,0.0,0.0,0.0,0.0,0.0,0.0,0.0,0.0,0.0,0.0,0.0,0.0,0.0,0.0,0.0,0.0,0.0,0.0,0.0,0.0,0.0,0.0,0.0,0.0,0.0,0.0,0.0,0.0,0.0,0.0,0.0,0.0,0.0,0.0,0.0,0.0,0.0,0.0,0.0,0.0,0.0,0.0,0.0,0.0,0.0,0.0,0.0,0.0,0.0,0.0,0.0,0.0,0.0,0.0,0.0,0.0,0.0,0.0,0.0,0.0,0.0,0.0,0.0,0.0,0.0,0.0,0.0,0.0,0.0,0.0,0.0,0.0,0.0,0.0,0.0,0.0,0.0,0.0,0.0,0.0,0.0,-3.5898,-3.9366,-4.6001,-4.7358,-4.7406,-4.6406,-4.2734,-3.8861,-3.5045,-3.3122,0.0,0.0,0.0,0.0,0.0,0.0,0.0,0.0,0.0,0.0,0.0,0.0,0.0,0.0,0.0,0.0,0.0,0.0,0.0,0.0,0.0,0.0,0.0,0.0,0.0,0.0,0.0,0.0,0.0,0.0,0.0,0.0,0.0,0.0,0.0,0.0,0.0,0.0,0.0,0.0,0.0,0.0,0.0,0.0,0.0,0.0,0.0,0.0,0.0,0.0,0.0,0.0,0.0,0.0,0.0,0.0,0.0,0.0,0.0,0.0,0.0,0.0,0.0,0.0,0.0,0.0,0.0,0.0,0.0,0.0,0.0,0.0,0.0,0.0,0.0,0.0,0.0,0.0,0.0,0.0,0.0,0.0,0.0,0.0,0.0,0.0,0.0,0.0,0.0,0.0,0.0,0.0,0.0,0.0,0.0,0.0,0.0,0.0,0.0,0.0,0.0,0.0,-3.8984,-4.1168,-4.6245,-4.6703,-4.6255,-4.526,-4.1794,-3.7987,-3.4129,-3.1314,0.0,0.0,0.0,0.0,0.0,0.0,0.0,0.0,0.0,0.0,0.0,0.0,0.0,0.0,0.0,0.0,0.0,0.0,0.0,0.0,0.0,0.0,0.0,0.0,0.0,0.0,0.0,0.0,0.0,0.0,0.0,0.0,0.0,0.0,0.0,0.0,0.0,0.0,0.0,0.0,0.0,0.0,0.0,0.0,0.0,0.0,0.0,0.0,0.0,0.0,0.0,0.0,0.0,0.0,0.0,0.0,0.0,0.0,0.0,0.0,0.0,0.0,0.0,0.0,0.0,0.0,0.0,0.0,0.0,0.0,0.0,0.0,0.0,0.0,0.0,0.0,0.0,0.0,0.0,0.0,0.0,0.0,0.0,0.0,0.0,0.0,0.0,0.0,0.0,0.0,0.0,0.0,0.0,0.0,0.0,0.0,0.0,0.0,0.0,0.0,0.0,0.0,-3.8555,-4.2028,-4.4688,-4.495,-4.4543,-4.3451,-3.9547,-3.5963,-3.3173,-2.989,0.0,0.0,0.0,0.0,0.0,0.0,0.0,0.0,0.0,0.0,0.0,0.0,0.0,0.0,0.0,0.0,0.0,0.0,0.0,0.0,0.0,0.0,0.0,0.0,0.0,0.0,0.0,0.0,0.0,0.0,0.0,0.0,0.0,0.0,0.0,0.0,0.0,0.0,0.0,0.0,0.0,0.0,0.0,0.0,0.0,0.0,0.0,0.0,0.0,0.0,0.0,0.0,0.0,0.0,0.0,0.0,0.0,0.0,0.0,0.0,0.0,0.0,0.0,0.0,0.0,0.0,0.0,0.0,0.0,0.0,0.0,0.0,0.0,0.0,0.0,0.0,0.0,0.0,0.0,0.0,0.0,0.0,0.0,0.0,0.0,0.0,0.0,0.0,0.0,0.0,0.0,0.0,0.0,0.0,0.0,0.0,0.0,0.0,0.0,0.0,0.0,0.0,-3.6601,-3.9531,0.0,-4.4076,-4.3219,-4.1208,-3.8533,-3.5378,-3.1651,0.0,0.0,0.0,0.0,0.0,0.0,0.0,0.0,0.0,0.0,0.0,0.0,0.0,0.0,0.0,0.0,0.0,0.0,0.0,0.0,0.0,0.0,0.0,0.0,0.0,0.0,0.0,0.0,0.0,0.0,0.0,0.0,0.0,0.0,0.0,0.0,0.0,0.0,0.0,0.0,0.0,0.0,0.0,0.0,0.0,0.0,0.0,0.0,0.0,0.0,0.0,0.0,0.0,0.0,0.0,0.0,0.0,0.0,0.0,0.0,0.0,0.0,0.0,0.0,0.0,0.0,0.0,0.0,0.0,0.0,0.0,0.0,0.0,0.0,0.0,0.0,0.0,0.0,0.0,0.0,0.0,0.0,0.0,0.0,0.0,0.0,0.0,0.0,0.0,0.0,0.0,0.0,0.0,0.0,0.0,0.0,0.0,0.0,0.0,0.0,0.0,0.0,-3.3398,-3.5351,-3.7969,0.0,-4.2453,-4.1459,-3.9103,-3.6796,-3.3926,-3.0339,0.0,0.0,0.0,0.0,0.0,0.0,0.0,0.0,0.0,0.0,0.0,0.0,0.0,0.0,0.0,0.0,0.0,0.0,0.0,0.0,0.0,0.0,0.0,0.0,0.0,0.0,0.0,0.0,0.0,0.0,0.0,0.0,0.0,0.0,0.0,0.0,0.0,0.0,0.0,0.0,0.0,0.0,0.0,0.0,0.0,0.0,0.0,0.0,0.0,0.0,0.0,0.0,0.0,0.0,0.0,0.0,0.0,0.0,0.0,0.0,0.0,0.0,0.0,0.0,0.0,0.0,0.0,0.0,0.0,0.0,0.0,0.0,0.0,0.0,0.0,0.0,0.0,0.0,0.0,0.0,0.0,0.0,0.0,0.0,0.0,0.0,0.0,0.0,0.0,0.0,0.0,0.0,0.0,0.0,0.0,0.0,0.0,0.0,0.0,0.0,0.0,0.0,-3.1953,-3.5156,-3.793,-3.9687,-3.9844,-3.9138,-3.7313,-3.4039,-3.129,0.0,0.0,0.0,0.0,0.0,0.0,0.0,0.0,0.0,0.0,0.0,0.0,0.0,0.0,0.0,0.0,0.0,0.0,0.0,0.0,0.0,0.0,0.0,0.0,0.0,0.0,0.0,0.0,0.0,0.0,0.0,0.0,0.0,0.0,0.0,0.0,0.0,0.0,0.0,0.0,0.0,0.0,0.0,0.0,0.0,0.0,0.0,0.0,0.0,0.0,0.0,0.0,0.0,0.0,0.0,0.0,0.0,0.0,0.0,0.0,0.0,0.0,0.0,0.0,0.0,0.0,0.0,0.0,0.0,0.0,0.0,0.0,0.0,0.0,0.0,0.0,0.0,0.0,0.0,0.0,0.0,0.0,0.0,0.0,0.0,0.0,0.0,0.0,0.0,0.0,0.0,0.0,0.0,0.0,0.0,0.0,0.0,0.0,0.0,0.0,0.0,0.0,0.0,-3.0976,-3.2695,-3.4805,-3.7734,-3.7539,-3.6445,-3.4684,-3.2498,-2.9953,-2.6871,0.0,0.0,0.0,0.0,0.0,0.0,0.0,0.0,0.0,0.0,0.0,0.0,0.0,0.0,0.0,0.0,0.0,0.0,0.0,0.0,0.0,0.0,0.0,0.0,0.0,0.0,0.0,0.0,0.0,0.0,0.0,0.0,0.0,0.0,0.0,0.0,0.0,0.0,0.0,0.0,0.0,0.0,0.0,0.0,0.0,0.0,0.0,0.0,0.0,0.0,0.0,0.0,0.0,0.0,0.0,0.0,0.0,0.0,0.0,0.0,0.0,0.0,0.0,0.0,0.0,0.0,0.0,0.0,0.0,0.0,0.0,0.0,0.0,0.0,0.0,0.0,0.0,0.0,0.0,0.0,0.0,0.0,0.0,0.0,0.0,0.0,0.0,0.0,0.0,0.0,0.0,0.0,0.0,0.0,0.0,0.0,0.0,0.0,0.0,0.0,0.0,0.0,-3.0078,-3.1133,-3.2734,-3.5469,-3.5273,-3.4258,-3.2539,-3.1172,-2.9023,-2.5852,0.0,0.0,0.0,0.0,0.0,0.0,0.0,0.0,0.0,0.0,0.0,0.0,0.0,0.0,0.0,0.0,0.0,0.0,0.0,0.0,0.0,0.0,0.0,0.0,0.0,0.0,0.0,0.0,0.0,0.0,0.0,0.0,0.0,0.0,0.0,0.0,0.0,0.0,0.0,0.0,0.0,0.0,0.0,0.0,0.0,0.0,0.0,0.0,0.0,0.0,0.0,0.0,0.0,0.0,0.0,0.0,0.0,0.0,0.0,0.0,0.0,0.0,0.0,0.0,0.0,0.0,0.0,0.0,0.0,0.0,0.0,0.0,0.0,0.0,0.0,0.0,0.0,0.0,0.0,0.0,0.0,0.0,0.0,0.0,0.0,0.0,0.0,0.0,0.0,0.0,0.0,0.0,0.0,0.0,0.0,0.0,0.0,0.0,0.0,0.0,0.0,0.0,-2.9257,-3.0156,-3.1328,-3.3086,-3.3203,-3.2539,-3.0937,-2.9961,-2.8359,-2.5742,0.0,0.0,0.0,0.0,0.0,0.0,0.0,0.0,0.0,0.0,0.0,0.0,0.0,0.0,0.0,0.0,0.0,0.0,0.0,0.0,0.0,0.0,0.0,0.0,0.0,0.0,0.0,0.0,0.0,0.0,0.0,0.0,0.0,0.0,0.0,0.0,0.0,0.0,0.0,0.0,0.0,0.0,0.0,0.0,0.0,0.0,0.0,0.0,0.0,0.0,0.0,0.0,0.0,0.0,0.0,0.0,0.0,0.0,0.0,0.0,-2.6624,0.0,0.0,0.0,0.0,0.0,0.0,0.0,0.0,0.0,0.0,0.0,0.0,0.0,0.0,0.0,0.0,0.0,0.0,0.0,0.0,0.0,0.0,0.0,0.0,0.0,0.0,0.0,0.0,0.0,0.0,0.0,0.0,0.0,0.0,0.0,0.0,0.0,0.0,0.0,0.0,0.0,-2.8261,-2.8656,-2.9674,-3.2054,-3.1794,-3.1016,-2.9961,-2.9062,-2.7461,-2.4844,0.0,0.0,0.0,0.0,0.0,0.0,0.0,0.0,0.0,0.0,0.0,0.0,0.0,0.0,0.0,0.0,0.0,0.0,0.0,0.0,0.0,0.0,0.0,0.0,0.0,0.0,0.0,0.0,0.0,0.0,0.0,0.0,0.0,0.0,0.0,0.0,0.0,0.0,0.0,0.0,0.0,0.0,0.0,0.0,0.0,0.0,0.0,0.0,0.0,0.0,0.0,0.0,0.0,0.0,0.0,0.0,0.0,0.0,0.0,0.0,0.0,-2.7241,0.0,0.0,0.0,0.0,0.0,0.0,0.0,0.0,0.0,0.0,0.0,0.0,0.0,0.0,0.0,0.0,0.0,0.0,0.0,0.0,0.0,0.0,0.0,0.0,0.0,0.0,0.0,0.0,0.0,0.0,0.0,0.0,0.0,0.0,0.0,0.0,0.0,0.0,0.0,0.0,-2.7365,-2.7874,-2.8811,-3.0568,-3.0395,-2.9819,-2.8959,-2.8114,-2.6674,-2.4486,-2.3554,0.0,0.0,0.0,0.0,0.0,0.0,0.0,0.0,0.0,0.0,0.0,0.0,0.0,0.0,0.0,0.0,0.0,0.0,0.0,0.0,0.0,0.0,0.0,0.0,0.0,0.0,0.0,0.0,0.0,0.0,0.0,0.0,0.0,0.0,0.0,0.0,0.0,0.0,0.0,0.0,0.0,0.0,0.0,0.0,0.0,0.0,0.0,0.0,0.0,0.0,0.0,0.0,0.0,0.0,-3.6545,-3.5705,-3.6356,-3.5446,-3.3279,-3.2015,-3.0591,-2.9008,0.0,0.0,0.0,0.0,0.0,0.0,0.0,0.0,0.0,0.0,0.0,0.0,0.0,0.0,0.0,0.0,0.0,0.0,0.0,0.0,0.0,0.0,0.0,0.0,0.0,-2.6496,-2.6526,0.0,0.0,0.0,0.0,0.0,0.0,0.0,0.0,0.0,0.0,0.0,0.0,-2.6684,-2.7421,-2.8196,-2.9054,-2.9185,-2.8802,-2.794,-2.725,-2.6218,-2.4615,-2.3623,-2.2771,0.0,0.0,0.0,0.0,0.0,0.0,0.0,0.0,0.0,0.0,0.0,0.0,0.0,0.0,0.0,0.0,0.0,0.0,0.0,0.0,0.0,0.0,0.0,0.0,0.0,0.0,0.0,0.0,0.0,0.0,0.0,0.0,-2.9668,-2.9668,0.0,0.0,0.0,0.0,0.0,0.0,0.0,0.0,0.0,0.0,0.0,0.0,0.0,0.0,-3.6051,-3.8095,-3.9238,-3.9442,-4.146,-4.1664,-4.0306,-4.0433,-4.0281,-3.9858,-3.8414,0.0,-3.0231,-2.9418,0.0,0.0,0.0,0.0,0.0,0.0,0.0,0.0,0.0,0.0,0.0,0.0,0.0,0.0,0.0,0.0,0.0,0.0,0.0,0.0,0.0,0.0,-2.6481,-2.6512,-2.6575,-2.6591,0.0,-2.6185,-2.5806,-2.5132,0.0,0.0,0.0,0.0,0.0,0.0,0.0,0.0,-2.661,-2.6791,-2.7228,-2.807,-2.8229,-2.7919,-2.7055,-2.687,-2.6405,-2.5386,-2.3873,-2.2997,-2.2948,-2.139,0.0,0.0,0.0,0.0,0.0,0.0,0.0,0.0,0.0,0.0,0.0,0.0,0.0,0.0,0.0,0.0,0.0,0.0,0.0,0.0,0.0,0.0,0.0,0.0,0.0,0.0,0.0,0.0,0.0,-3.0277,-3.1495,-3.0258,-3.119,-3.119,0.0,0.0,0.0,0.0,0.0,0.0,0.0,0.0,0.0,-3.5893,-3.7043,-3.8386,-3.9876,-4.1271,-4.2388,-4.3267,-4.4248,-4.4147,-4.3098,-4.3098,-4.2625,-4.1779,-4.1136,-3.8967,-3.5684,-3.3039,-3.1146,-2.9811,0.0,0.0,0.0,0.0,0.0,-2.7023,-2.743,0.0,0.0,0.0,0.0,0.0,0.0,0.0,0.0,0.0,0.0,0.0,0.0,0.0,0.0,-2.7273,-2.7629,-2.7703,-2.6785,-2.66,-2.6371,0.0,-2.5247,-2.5122,-2.5122,0.0,0.0,0.0,0.0,0.0,-2.5841,-2.6326,-2.6794,-2.7175,-2.7228,-2.7106,-2.6711,-2.6262,-2.5861,-2.547,-2.3913,-2.3009,-2.303,-2.1356,-2.0468,0.0,0.0,0.0,0.0,0.0,0.0,0.0,0.0,0.0,0.0,0.0,0.0,0.0,0.0,0.0,0.0,0.0,0.0,0.0,0.0,0.0,0.0,0.0,0.0,0.0,0.0,0.0,0.0,-3.2056,-3.3525,-3.1461,-3.3525,-3.3863,0.0,0.0,0.0,0.0,0.0,0.0,-3.5859,-3.6806,-3.8024,-3.958,-4.0865,-4.2219,-4.3707,-4.4282,-4.5229,-4.6549,-4.6549,-4.6143,-4.5432,-4.5258,-4.4418,-4.3132,-4.2557,-4.1704,-4.0375,-3.6524,-3.4021,-3.2524,-3.0786,-3.0029,-2.9836,-2.9674,-2.9253,-2.8891,-2.9803,-2.9276,-2.8198,-2.8052,0.0,-2.6323,-2.5116,0.0,0.0,0.0,0.0,-2.5888,-2.6686,0.0,-2.786,-2.8044,-2.8546,-2.862,-2.72,-2.6918,-2.6609,0.0,-2.5145,-2.4962,-2.4962,0.0,0.0,0.0,0.0,-2.5308,-2.5308,-2.5885,-2.6269,-2.6269,-2.6269,-2.6269,-2.6269,-2.5515,-2.5066,-2.5066,-2.3537,-2.2607,-2.2625,-2.1184,-2.0374,-2.0389,0.0,0.0,0.0,0.0,0.0,0.0,0.0,0.0,0.0,0.0,0.0,0.0,0.0,0.0,0.0,0.0,0.0,0.0,0.0,0.0,0.0,0.0,0.0,0.0,0.0,0.0,0.0,0.0,0.0,-3.4472,-3.754,0.0,0.0,0.0,0.0,-3.5363,-3.6772,-3.8261,-3.9724,-4.117,-4.2658,-4.4209,-4.4993,-4.6143,-4.7601,-4.7635,-4.8071,-4.8849,-4.8849,-4.8443,-4.7733,-4.7022,-4.6244,-4.5399,-4.3234,-4.2252,-4.1948,-3.8962,-3.6795,-3.5294,-3.4157,-3.3321,-3.2615,-3.1908,-3.1631,-3.1439,-3.045,-2.9757,-2.9575,-3.1062,-3.0568,-2.916,-2.7956,-2.7079,0.0,0.0,-2.6539,-2.6722,-2.753,-2.7761,-2.797,-2.8767,-2.8987,-2.8767,-2.7934,-2.7288,-2.6423,0.0,-2.4707,-2.4818,-2.4818,0.0,-2.5036,-2.5036,-2.5192,-2.5308,-2.5308,-2.5346,-2.5385,-2.5385,-2.5385,-2.5385,-2.5385,-2.463,-2.4177,-2.4177,-2.2521,-2.1602,-2.1685,-2.0797,-2.0329,-2.0389,-2.0393,0.0,0.0,0.0,0.0,0.0,0.0,0.0,0.0,0.0,0.0,0.0,0.0,0.0,0.0,0.0,0.0,0.0,0.0,0.0,0.0,0.0,0.0,0.0,0.0,0.0,0.0,0.0,0.0,-3.958,-4.2388,0.0,0.0,-4.0189,-4.0603,-4.0603,-4.161,-4.2658,-4.3673,-4.5094,-4.638,-4.7394,-4.8139,-4.8781,-4.9323,-4.8849,-4.8748,-4.9018,-4.9018,-4.8376,-4.7192,-4.6921,-4.5872,-4.4153,-4.3369,-4.2489,-4.1508,-4.046,-3.914,-3.7675,-3.631,-3.5628,-3.5275,-3.4014,-3.3536,-3.3346,-3.1995,-3.1118,-3.0314,-2.8937,-2.7983,-2.7182,-2.6255,-2.6091,-2.634,-2.686,-2.7155,-2.7567,-2.8363,-2.8583,-2.862,-2.8913,-2.8987,-2.8656,-2.731,-2.687,-2.6231,-2.4617,-2.4567,-2.476,-2.4623,-2.4737,-2.4864,-2.4864,-2.5005,-2.5105,-2.5105,-2.5219,-2.5308,-2.5308,-2.5308,-2.5077,-2.4586,-2.424,-2.386,-2.3317,-2.2158,-2.152,-2.1517,-2.0746,-2.0301,-2.0331,-2.0344,-2.0329,0.0,0.0,0.0,0.0,0.0,0.0,0.0,0.0,0.0,0.0,0.0,0.0,0.0,0.0,0.0,0.0,0.0,0.0,0.0,0.0,0.0,0.0,0.0,0.0,0.0,0.0,-4.2886,-4.259,-4.5732,-4.6718,-4.3741,-4.4553,-4.5297,-4.5297,-4.5771,-4.6413,-4.7158,-4.7902,-4.8511,-4.8984,-4.9458,-4.9729,-4.9729,-4.9255,-4.9018,-4.9018,-4.9018,-4.8376,-4.7158,-4.6921,-4.5838,-4.4147,-4.3369,-4.2489,-4.1542,-4.1035,-4.0257,-3.9276,-3.8319,-3.7777,-3.7438,-3.64,-3.569,-3.5035,-3.3275,-3.2341,-3.1515,-2.8866,-2.7858,-2.7464,-2.6606,-2.6674,-2.7069,-2.7346,-2.7632,-2.7937,-2.8299,-2.8578,-2.87,-2.8304,-2.84,-2.8143,-2.6539,-2.6209,-2.5805,-2.4447,-2.4419,-2.4543,-2.4428,-2.4559,-2.47,-2.47,-2.483,-2.4943,-2.4943,-2.503,-2.5149,-2.5198,-2.5203,-2.4917,-2.4163,-2.4091,-2.3586,-2.2432,-2.1812,-2.1389,-2.1119,-2.0577,-2.0308,-2.0308,-2.0294,-2.0302,-2.0291,0.0,0.0,0.0,0.0,0.0,0.0,0.0,0.0,0.0,0.0,0.0,0.0,0.0,0.0,0.0,0.0,0.0,0.0,0.0,0.0,0.0,0.0,0.0,-3.5735,-4.0759,-4.4154,-4.3373,-4.7383,-4.912,-4.621,-4.7902,-4.912,-4.912,-4.9086,-4.9357,-5.0067,-4.9424,-4.9052,-4.9086,-4.9052,-4.9052,-4.9086,-4.9018,-4.8984,-4.8984,-4.8984,-4.8578,-4.7804,-4.709,-4.6346,-4.5466,-4.3267,-4.2252,-4.2117,-4.0688,-4.0113,-4.0113,-4.0113,-3.9673,-3.9005,-3.8971,-3.8014,-3.6423,-3.4167,-3.3389,-3.3045,-3.1191,-3.0577,-3.0352,-2.9292,-2.8971,-2.8809,-2.8081,-2.7897,-2.7804,-2.7315,-2.7763,-2.8055,-2.6834,-2.7178,-2.731,-2.5731,-2.5374,-2.5154,-2.4373,-2.419,-2.419,-2.419,-2.4357,-2.4476,-2.4476,-2.4662,0.0,-2.479,-2.4797,-2.4836,-2.4973,-2.4985,-2.4744,-2.4149,-2.4086,-2.3317,-2.1611,-2.1457,-2.1115,-2.0346,-2.0304,-2.0304,-2.0308,-2.0308,-2.0318,-2.0291,0.0,0.0,0.0,0.0,0.0,0.0,0.0,0.0,0.0,0.0,0.0,0.0,0.0,0.0,0.0,0.0,0.0,0.0,0.0,0.0,0.0,0.0,-4.0011,-4.0681,-4.4617,-4.79,-4.9212,-5.173,-5.2841,-5.1488,-5.1928,-5.2029,-5.1454,-5.0913,-5.0439,-5.0101,-4.9898,-5.0033,-5.0608,-5.0067,-5.0067,-5.0608,-4.9526,-4.8748,-4.8206,-4.8206,-4.7564,-4.6312,-4.6109,-4.4993,-4.32,-4.2557,-4.1677,-4.0688,-4.0282,-4.0113,-4.0113,-4.0113,-3.9673,-3.8937,-3.8396,-3.6907,-3.4945,-3.3795,-3.3051,-3.2347,-3.0749,-2.9887,-2.9276,-2.8408,-2.7969,-2.7716,-2.7507,-2.7681,-2.7748,-2.709,-2.7081,-2.7001,-2.6091,-2.6249,-2.6279,-2.5252,-2.5231,-2.5154,-2.4373,-2.419,-2.419,-2.419,-2.4256,-2.4294,-2.4294,-2.4471,0.0,-2.4575,-2.4708,-2.4836,-2.4973,-2.4985,-2.4698,-2.393,-2.3453,-2.2618,0.0,-2.0757,-2.0382,-2.0304,-2.0161,-2.0152,-2.0308,-2.0308,-2.0318,0.0,0.0,0.0,0.0,0.0,0.0,0.0,0.0,0.0,0.0,0.0,0.0,0.0,0.0,0.0,0.0,0.0,0.0,0.0,0.0,0.0,0.0,-4.0816,-4.3626,-4.5309,-4.7586,-4.9646,-5.1186,-5.2501,-5.3096,-5.2666,-5.2368,-5.2004,-5.1541,-5.1192,-5.0861,-5.0426,-5.0214,-5.0304,-5.0744,-5.0033,-4.983,-5.027,-4.9424,-4.8646,-4.7906,-4.7906,-4.7158,-4.5703,-4.5365,-4.4316,0.0,-4.2117,-4.1339,-4.0527,-4.0248,-4.0113,0.0,0.0,0.0,0.0,0.0,-3.6603,-3.5272,-3.3897,-3.3119,-3.251,-3.1055,-3.0277,-2.9721,-2.8619,-2.8168,-2.7893,-2.7241,-2.7225,-2.7267,-2.6661,-2.6739,-2.669,-2.5371,-2.5454,-2.559,-2.459,-2.4537,-2.4584,-2.4244,0.0,0.0,-2.419,-2.419,-2.419,-2.419,-2.4284,-2.4375,-2.4375,-2.4497,-2.4623,-2.4788,-2.4809,-2.4489,-2.3752,-2.3322,0.0,0.0,0.0,-2.0363,-2.0088,-2.0036,0.0,0.0,0.0,-2.03,0.0,0.0,0.0,0.0,-2.0675,-2.075,0.0,0.0,0.0,0.0,0.0,0.0,0.0,0.0,0.0,0.0,0.0,0.0,0.0,0.0,0.0,0.0,-4.4018,-4.6621,-4.9179,-4.9778,-5.0179,-5.0832,-5.1272,-5.1509,-5.1414,-5.0774,-5.0397,-5.0397,-5.0546,-5.0659,-5.0766,0.0,0.0,0.0,0.0,-4.9154,-4.9255,-4.9086,-4.8517,-4.7615,-4.774,-4.6895,-4.5318,-4.4728,-4.3978,-4.3071,-4.1779,-4.117,-4.1035,-4.0383,-4.0045,-3.9977,-3.9876,-3.9445,-3.87,-3.7235,-3.6626,0.0,0.0,0.0,0.0,-3.1664,-3.1123,-3.0818,-2.9517,-2.901,-2.857,-2.7199,-2.6759,-2.6605,-2.6174,-2.6573,-2.6645,-2.4782,-2.4843,-2.5042,-2.3941,-2.3682,-2.3753,-2.4066,-2.4151,-2.4161,-2.419,-2.419,-2.419,-2.419,-2.419,-2.419,-2.419,-2.419,-2.4294,-2.4497,0.0,0.0,-2.3662,-2.3537,-2.2865,-2.1343,-2.1167,-2.0689,-1.9823,-1.9893,-1.9969,-1.9969,-2.0161,-2.0253,-2.0253,-2.0304,-2.0308,-2.0312,-2.0363,-2.0406,0.0,0.0,0.0,0.0,0.0,0.0,0.0,0.0,0.0,0.0,0.0,0.0,0.0,0.0,0.0,-4.4107,-4.677,-4.9045,-5.0631,-5.0906,-5.1092,-5.1567,-5.2039,-5.2061,-5.1477,-5.0774,-5.0397,-5.0397,-4.9876,-4.9936,-5.073,-5.0149,0.0,-5.1827,-5.0574,-5.0168,-5.0777,-4.9593,-4.7967,-4.5976,0.0,0.0,-4.2866,-4.3396,-4.2895,-4.161,-4.1339,-4.0865,-4.0316,-4.018,-3.9774,-3.914,-3.8565,-3.8227,-3.7922,-3.64,-3.5453,-3.4776,-3.3761,-3.3017,-3.2361,-3.1495,-3.0784,-3.0277,-2.9973,-2.9025,0.0,-2.7655,-2.7165,-2.6539,-2.5859,-2.5823,-2.5684,-2.4705,-2.4336,-2.4155,-2.3894,-2.354,-2.341,-2.3742,-2.3795,-2.3868,-2.4161,-2.419,-2.419,-2.419,-2.419,-2.419,-2.419,-2.419,-2.4294,-2.4497,-2.4485,-2.4464,-2.431,-2.3821,-2.3302,-2.2823,-2.1666,-2.0615,-1.9686,-1.9774,-1.9855,-1.9855,-1.9997,-2.0064,-2.0064,-2.0229,-2.0308,-2.0312,-2.0308,-2.0319,0.0,0.0,0.0,0.0,0.0,0.0,0.0,0.0,0.0,0.0,0.0,-3.7554,0.0,0.0,-4.4197,-4.686,-4.8686,-4.9972,-5.0584,-5.0674,-5.0906,-5.144,-5.1423,-5.106,-5.041,-4.9729,-4.9213,-4.8872,-4.8983,-4.9117,-4.9303,-4.9111,-4.9224,-4.9781,-4.8726,-4.8531,-4.9391,-4.8289,-4.6999,-4.5492,-4.5566,-4.4404,-4.2202,-4.2214,-4.1841,-4.117,-4.0798,-4.0426,-4.0113,-4.0113,-3.9876,-3.9436,-3.8328,-3.7686,-3.7212,-3.6005,-3.5363,-3.4912,-3.3795,-3.3152,-3.2679,-3.1562,-3.0954,-3.0514,-2.977,-2.9025,-2.8247,-2.7469,-2.6996,-2.6623,-2.6251,-2.5879,-2.5406,-2.4677,-2.4066,-2.3604,-2.3335,-2.3114,-2.3057,-2.3362,-2.3466,-2.3555,-2.3878,-2.3806,-2.3816,-2.4151,-2.419,-2.419,-2.419,-2.419,-2.4237,-2.433,-2.4348,-2.4348,-2.4348,-2.3657,-2.2848,-2.1918,-2.1161,-2.0544,-2.0078,-1.9816,-1.987,-2.0282,-2.0032,-1.9887,-1.9887,-2.0055,-2.0152,-2.0156,-2.0261,-2.0289,0.0,0.0,0.0,0.0,0.0,0.0,0.0,0.0,-3.6866,-3.7644,-3.929,-4.1235,-4.3469,-4.5095,-4.686,-4.9299,-5.0092,-5.0375,-5.0375,-5.0285,-5.0345,-5.078,-5.0272,-4.9643,-4.9179,-4.8476,-4.7878,-4.7339,-4.8072,-4.8317,-4.7849,-4.804,-4.7972,-4.7525,-4.6785,-4.6719,-4.734,-4.6618,-4.5734,-4.4755,-4.4358,-4.3281,-4.1694,-4.1063,-4.0861,-4.0927,-4.0153,-3.9876,-3.9876,-3.9876,-3.9775,-3.9539,-3.8226,-3.732,-3.6694,-3.5926,-3.5498,-3.5194,-3.3863,-3.3322,-3.2983,-3.163,-3.119,-3.0954,-2.9619,-2.9111,-2.8705,-2.73,-2.6793,-2.6691,-2.6691,-2.6251,-2.5676,-2.5083,-2.4357,-2.3701,-2.3158,-2.2936,-2.2903,-2.308,-2.3105,-2.32,-2.3544,-2.3362,-2.3421,-2.4006,-2.4122,-2.4122,-2.4122,-2.4161,-2.419,-2.419,-2.419,-2.419,-2.419,-2.3602,-2.2602,-2.1098,-2.0988,-2.0914,-2.0768,-2.0115,-2.0091,-2.0723,-2.0082,-1.9762,-1.9762,-1.9882,-1.9964,-1.9993,-2.0161,-2.0258,-3.4023,-3.3484,-3.4053,-3.6387,-3.6656,-3.7255,0.0,0.0,-4.1085,-4.2273,-4.3658,-4.4915,-4.5771,-4.7549,-4.9284,-5.075,-5.105,-5.1109,-5.1109,-5.0554,-5.0062,-4.9553,-4.8895,-4.8476,-4.8416,-4.7788,-4.7369,-4.7309,-4.7409,-4.7588,-4.7769,-4.7845,-4.798,-4.8267,-4.7558,-4.692,-4.6451,-4.5709,-4.4307,-4.2222,-4.2937,-4.2074,-3.9899,-3.9974,-4.0021,-4.0018,-3.9346,-3.9016,-3.9016,-3.9016,-3.8652,-3.7965,-3.7217,-3.6868,-3.6694,-3.5926,-3.5216,-3.4506,-3.3694,-3.2983,-3.2293,-3.1461,-3.119,-3.1055,-3.0243,-2.9499,-2.884,-2.7925,-2.7199,-2.6691,-2.6691,-2.6623,-2.6556,-2.6454,-2.5879,-2.5169,-2.4452,-2.3788,-2.321,-2.2834,-2.2759,-2.286,-2.32,-2.3224,-2.3317,-2.3721,-2.3764,-2.3764,-2.3764,-2.4016,-2.419,-2.419,-2.419,-2.419,-2.419,-2.4116,-2.3676,-2.2786,-2.2712,-2.2391,-2.1666,-2.0866,-2.0433,-2.0543,-1.9929,-1.9623,-1.9623,-1.9756,-1.9866,-1.9993,-2.0003,-2.0109,-3.5549,-3.6058,0.0,0.0,-3.896,-4.0374,-4.2021,-4.2432,-4.288,-4.4197,-4.5544,-4.6681,-4.7339,-4.8775,-5.0002,0.0,-5.0913,-5.096,-5.0182,-4.9853,-4.9134,-4.7728,-4.7309,-4.7429,-4.8207,-4.8027,-4.7728,-4.7339,-4.695,-4.6623,-4.6355,-4.5971,-4.5654,-4.5457,-4.511,-4.4949,-4.4854,-4.4091,-4.3099,-4.1817,-4.1724,-4.0749,-3.9044,-3.9122,-3.8991,-3.8638,-3.8375,-3.8246,-3.8246,-3.8246,-3.8084,-3.7667,-3.6589,-3.6157,-3.608,-3.5319,-3.5092,-3.4979,-3.3795,-3.3186,-3.2747,-3.1562,-3.119,-3.1055,-3.0311,-2.9871,-2.9397,-2.8162,-2.7587,-2.7232,-2.6793,-2.6387,-2.6048,-2.6048,-2.5507,-2.488,-2.4575,-2.3932,-2.3318,-2.315,-2.2754,-2.2705,-2.3463,-2.3081,-2.2929,-2.3714,-2.3579,-2.3421,-2.3421,-2.3721,-2.3986,-2.418,-2.419,-2.419,-2.419,-2.419,-2.3859,-2.3043,-2.3006,-2.2859,-2.2501,-2.1208,-2.0731,-2.1253,-2.0054,-1.9435,-1.9435,-1.9579,-1.9701,-1.9774,-1.9866,-1.9982,-3.6985,0.0,0.0,-3.9649,-4.1474,-4.3249,-4.3459,-4.4107,-4.4915,-4.5693,-4.6621,-4.7489,-4.8177,-4.9045,0.0,-5.0136,-5.0481,-5.0331,-4.9449,-4.9,-4.8117,-4.6531,-4.6142,-4.6411,-4.7369,-4.7459,-4.7429,-4.7309,-4.6681,-4.6022,-4.5334,-4.4855,-4.4197,-4.3319,-4.329,-4.3262,-4.3144,-4.2615,-4.194,-4.1151,-4.0624,-3.9818,-3.8834,-3.8666,-3.8185,-3.7469,-3.7469,-3.7469,-3.7469,-3.7469,-3.7469,-3.7343,-3.5947,-3.5545,-3.5545,-3.4471,-3.4592,-3.516,-3.3866,-3.3423,-3.3152,-3.1664,-3.119,-3.1055,-3.0311,-3.0108,-2.9818,-2.85,-2.7959,-2.7689,-2.7131,-2.6454,-2.5913,-2.5913,-2.5507,-2.5049,-2.4846,-2.4357,-2.3883,-2.3477,-2.297,-2.2852,-2.3632,-2.3107,-2.2852,-2.3666,-2.3489,-2.3205,-2.308,-2.334,-2.3674,-2.4026,-2.4046,-2.4046,-2.4046,-2.4151,-2.3904,-2.3242,-2.3262,-2.3336,-2.3336,-2.1942,-2.1391,-2.1776,-2.038,-1.9536,-1.9315,-1.9456,-1.9541,-1.9596,-1.9688,-1.9832,0.0,0.0,-3.92,-4.2363,-4.4197,-4.5394,-4.6052,-4.7219,-4.7967,-4.7369,-4.7279,-4.7489,-4.8177,-4.8327,-4.8745,-4.9986,-4.9733,-4.9359,-4.9329,-4.8177,-4.71,-4.6369,-4.5723,-4.5334,0.0,-4.5394,-4.5933,-4.7219,-4.6681,-4.6022,-4.5334,-4.5274,-4.4676,-4.3319,-4.329,-4.2701,-4.149,-4.146,-4.0763,-3.9475,-3.9445,-3.9445,-3.9356,-3.8861,-3.79,-3.663,-3.663,-3.663,-3.663,-3.663,-3.663,-3.6506,-3.5231,-3.5131,-3.5436,-3.3396,-3.3495,-3.4513,-3.3681,-3.3423,-3.3152,-3.1664,-3.119,-3.1055,-3.0311,-3.0108,-2.9939,-2.9179,-2.8416,-2.779,-2.7756,-2.7232,-2.6657,-2.6657,-2.6657,-2.642,-2.571,-2.5559,-2.5101,-2.368,-2.3376,-2.3391,-2.3391,-2.3391,-2.3391,-2.3391,-2.3405,-2.3244,-2.2773,-2.3009,-2.3328,-2.3664,-2.3732,-2.3732,-2.3732,-2.4006,-2.4046,-2.3706,-2.3979,-2.4153,-2.4153,-2.3373,-2.2575,-2.1812,-2.0923,-2.0071,-1.9315,-1.9323,-1.942,-1.9589,-1.9596,-1.9694,0.0,0.0,-4.2791,-4.4784,-4.6322,-4.7339,-4.7578,-4.7967,-4.7967,-4.689,-4.6292,-4.5783,-4.5125,-4.5723,-4.6441,-4.689,-4.7908,-4.8626,-4.8626,-4.8237,-4.7369,-4.5813,-4.5424,0.0,0.0,0.0,0.0,-4.5933,-4.5753,-4.5334,-4.4676,-4.4646,-4.4257,-4.3319,-4.329,-4.291,-4.2081,-4.1632,-4.0935,-4.0068,-3.917,-3.8512,-3.8063,-3.7469,-3.6725,-3.5878,-3.5878,-3.5878,-3.5878,-3.5878,-3.5637,-3.5122,-3.4243,-3.3755,-3.3499,-3.286,-3.2613,-3.2615,-3.2722,-3.273,-3.2497,-3.1079,-3.0601,-3.0567,-3.0314,-3.0214,-3.0162,-2.981,-2.9533,-2.9075,-2.806,-2.7621,-2.7317,-2.6826,-2.6691,-2.6623,-2.6387,-2.5947,-2.5473,-2.4966,-2.4458,-2.4305,-2.4797,-2.4458,-2.3966,-2.3477,-2.297,-2.2691,-2.2691,-2.281,-2.2996,-2.3317,-2.3351,-2.3351,-2.3351,-2.3477,-2.3577,-2.3674,-2.3806,-2.3976,-2.419,-2.3419,-2.2611,-2.1812,-2.0951,-2.0107,-1.9315,-1.9315,-1.9309,-1.9413,-1.9413,-1.9513,-4.1324,-4.3599,-4.5813,-4.7608,-4.8536,-4.8925,-4.8686,-4.8267,-4.7489,-4.5933,-4.4885,-4.3928,-4.2821,-4.312,-4.3688,-4.4167,-4.5125,-4.6142,-4.71,-4.683,-4.6322,-4.5723,-4.5454,0.0,0.0,0.0,0.0,-4.5274,-4.5065,-4.4766,-4.4347,-4.4317,-4.4018,-4.3319,-4.329,-4.303,-4.241,-4.1752,-4.0935,-4.0038,-3.8931,-3.8033,-3.7375,-3.6776,-3.6118,-3.5519,-3.5519,-3.5519,-3.5519,-3.5519,-3.51,-3.4444,-3.3754,-3.3095,-3.2496,-3.2294,-3.1913,-3.1609,-3.1959,-3.1945,-3.1521,-3.037,-2.9978,-2.9978,-2.9978,-2.9978,-2.9945,-2.9873,-2.9676,-2.9284,-2.849,-2.8092,-2.776,-2.7215,-2.6977,-2.684,-2.6725,-2.6202,-2.5715,-2.561,-2.5236,-2.5033,-2.5541,-2.5203,-2.4729,-2.4255,-2.3342,-2.2649,-2.2588,-2.2546,-2.2678,-2.2984,-2.3021,-2.3021,-2.3021,-2.3129,-2.3236,-2.3317,-2.3466,-2.3653,-2.4006,-2.3532,-2.2776,-2.1812,-2.1148,-2.0335,-1.9315,-1.9238,-1.9238,-1.9315,-1.9315,-1.9383,-4.5214,-4.698,-4.8147,-5.0661,-5.0734,-5.0092,-4.9389,-4.8147,-4.6621,-4.4556,-4.306,-4.1961,0.0,0.0,-4.0726,-4.2081,-4.1901,-4.2432,-4.5035,-4.4347,-4.4257,0.0,0.0,0.0,0.0,0.0,0.0,-4.5244,0.0,-4.4317,-4.4257,-4.4287,-4.4018,-4.3319,-4.329,-4.303,-4.244,-4.1752,-4.0726,-3.9469,-3.8781,-3.8093,-3.7375,-3.6806,-3.6148,-3.5519,-3.5519,-3.5519,-3.5519,-3.5519,-3.51,-3.4444,-3.3754,-3.3095,-3.2407,-3.175,-3.1481,-3.1441,-3.142,-3.1014,-3.0366,-2.9585,-2.9361,-2.9361,-2.9361,-2.9361,-2.9361,-2.9384,-2.8904,-2.8469,-2.9005,-2.8602,-2.8009,-2.7763,-2.7363,-2.6928,-2.6673,-2.6263,-2.5887,-2.5647,-2.5644,-2.5676,-2.5676,-2.5642,-2.5592,-2.5592,-2.4357,-2.3139,-2.2448,-2.2313,-2.2385,-2.2643,-2.2669,-2.2669,-2.2669,-2.2972,-2.3021,-2.2721,-2.3009,-2.3317,-2.3642,-2.3653,-2.3055,-2.1778,-2.1507,-2.0698,-1.9248,-1.9067,-1.9076,-1.9263,-1.9263,-1.9308,-4.7189,-4.9344,-5.1109,-5.1798,-5.1439,-5.0421,-4.8297,-4.677,-4.4975,-4.2013,-4.0337,-3.8901,0.0,0.0,0.0,-4.0696,-4.2402,0.0,-4.6501,-4.6501,0.0,0.0,0.0,-4.5873,-4.5334,-4.5155,0.0,0.0,-4.4676,-4.4067,-4.3559,-4.4047,-4.4018,-4.3319,-4.329,-4.323,-4.309,-4.1953,-4.0965,-4.0157,-3.9469,-3.8542,-3.7404,-3.7255,-3.6567,-3.5519,-3.5519,-3.5519,-3.5519,-3.5519,-3.51,-3.4444,-3.3754,-3.3095,-3.2407,-3.175,-3.1182,-3.0698,-3.0236,-3.0253,-3.0286,-2.9123,-2.8748,-2.8748,-2.8748,-2.8748,-2.881,-2.9271,-2.9278,-2.9044,-2.863,-2.8028,-2.736,-2.6749,-2.6128,-2.5675,-2.5594,-2.5486,-2.551,-2.5837,-2.6168,-2.642,-2.642,-2.5981,-2.5592,-2.5592,-2.4357,-2.3342,-2.3139,-2.2617,-2.2321,-2.2385,-2.2398,-2.2398,-2.2398,-2.248,-2.2581,-2.2695,-2.2784,-2.2984,-2.3305,-2.3317,-2.2638,-2.1151,-2.1054,-2.0295,-1.8771,-1.8743,-1.8834,-1.9067,-1.9067,-1.9158,-4.9853,-5.1738,-5.2995,-5.2695,-5.1917,-5.0361,-4.716,-4.5185,-4.3,-3.9409,-3.7853,0.0,0.0,0.0,0.0,0.0,0.0,0.0,-4.5185,-4.5813,-4.6172,0.0,-4.6741,0.0,-4.6202,-4.5903,-4.5753,0.0,-4.4855,-4.4167,-4.3738,-4.3838,-4.3678,-4.329,-4.329,-4.3021,-4.2491,-4.1743,-4.0905,-3.9948,-3.899,-3.8153,-3.7375,-3.6836,-3.6178,-3.5519,0.0,-3.5519,-3.5519,-3.5519,-3.51,-3.4444,-3.3754,-3.3095,-3.2407,-3.175,-3.1271,-3.0821,-2.9894,-2.9833,-2.9877,-2.8534,-2.8131,-2.8131,-2.8131,-2.8131,-2.8174,-2.8504,-2.8599,-2.8576,-2.8432,-2.809,-2.762,-2.6892,-2.6216,-2.5753,-2.5667,-2.5231,-2.5086,-2.5852,-2.6192,-2.647,-2.6657,-2.6353,-2.6082,-2.6082,-2.4831,-2.3898,-2.3898,-2.297,-2.2313,-2.2313,-2.2313,-2.2313,-2.2313,-2.2313,-2.2377,-2.2514,-2.2527,-2.2652,-2.2972,-2.268,-2.2001,-2.0934,-2.0484,-1.9698,-1.8612,-1.8462,-1.8574,-1.8816,-1.8816,-1.8948,-5.2665,-5.3952,-5.4281,-5.3503,-5.2187,-5.0032,-4.5963,-4.3449,-4.0883,-3.6896,0.0,-3.4831,-3.3484,0.0,-3.5102,-3.6507,0.0,-3.9948,-4.323,-4.4186,-4.5274,-4.71,-4.7309,-4.7309,-4.7309,-4.68,-4.6369,-4.6279,-4.5155,-4.4407,-4.4317,-4.3648,-4.326,-4.317,-4.317,-4.2611,-4.1384,-4.1294,-4.0666,-3.9529,-3.8182,-3.7494,-3.7375,-3.6178,-3.5579,-3.5519,0.0,0.0,-3.5519,-3.5519,-3.516,-3.4563,-3.3784,-3.3155,-3.2557,-3.178,-3.1451,-3.1212,-3.0103,-2.9621,-2.9262,-2.8004,-2.7585,-2.7585,-2.7585,-2.7585,-2.7585,-2.7585,-2.7585,-2.771,-2.8222,-2.8306,-2.8077,-2.7346,-2.6782,-2.6324,-2.6157,-2.5258,-2.4798,-2.5742,-2.5899,-2.6015,-2.6419,-2.6488,-2.6488,-2.6488,-2.5345,-2.4437,-2.4437,-2.3201,-2.2313,-2.2313,-2.2313,-2.2313,-2.2313,-2.2313,-2.2313,-2.2313,-2.2313,-2.2398,-2.2652,-2.2008,-2.1416,-2.078,-1.9907,-1.9188,-1.8647,-1.8311,-1.8332,-1.8696,-1.859,-1.8697,-5.4551,-5.5329,-5.5538,-5.4341,-5.2217,-4.9179,-4.4736,-4.1743,0.0,0.0,0.0,-3.3455,-3.2079,-3.3754,0.0,-3.7764,0.0,0.0,0.0,0.0,-4.6322,0.0,0.0,0.0,0.0,0.0,0.0,0.0,0.0,0.0,-4.4347,-4.3648,-4.309,-4.259,-4.256,-4.2201,-4.1384,-4.0846,-4.0457,-4.0217,-3.8871,-3.7943,-3.7375,-3.6656,-3.6028,-3.5519,0.0,0.0,-3.5519,-3.5519,-3.5429,-3.519,-3.3963,-3.3425,-3.3185,-3.1959,-3.1152,-3.0642,-3.0432,-2.9654,-2.8637,-2.7854,-2.7585,-2.7585,-2.7585,-2.7585,-2.7585,-2.7585,-2.7585,-2.761,-2.7735,-2.7338,-2.6886,-2.6765,-2.6233,-2.5741,-2.5712,-2.5448,-2.5278,-2.5467,-2.5421,-2.5354,-2.5449,-2.5468,-2.5468,-2.5468,-2.4719,-2.4166,-2.4166,-2.3072,-2.2313,-2.2313,-2.2313,-2.2313,-2.2313,-2.2313,-2.2313,-2.2313,-2.2313,-2.2307,-2.2377,-2.2241,-2.1521,-2.0176,-1.9957,-1.9549,-1.8859,-1.8189,-1.8322,-1.918,-1.8555,-1.8393,-5.482,-5.5418,-5.5359,-5.4012,-5.1439,-4.7938,-4.297,0.0,0.0,0.0,0.0,-3.2258,-3.163,0.0,0.0,0.0,0.0,0.0,0.0,0.0,0.0,0.0,0.0,0.0,0.0,0.0,0.0,0.0,0.0,0.0,-4.4317,-4.3648,-4.303,-4.241,-4.241,-4.1931,-4.0876,-4.0546,-4.0038,-3.9349,-3.8362,-3.7554,-3.6896,-3.6267,-3.5789,-3.5519,-3.5519,0.0,-3.5519,-3.5519,-3.5519,-3.537,-3.4023,-3.3484,-3.3335,-3.1989,-3.1301,-3.0972,-3.0642,-2.9894,-2.9056,-2.8753,-2.8154,-2.7585,-2.7585,-2.7585,-2.7585,-2.7585,-2.7585,-2.7585,-2.7585,-2.7375,-2.7046,-2.6662,-2.6333,-2.6033,-2.5674,-2.5824,-2.5887,-2.549,-2.5352,-2.5293,-2.5208,-2.5202,-2.5202,-2.5202,-2.4588,-2.3975,-2.361,-2.2751,-2.222,-2.2418,-2.213,-2.2032,-2.2265,-2.2313,-2.2313,-2.2313,-2.2313,-2.2313,-2.2313,-2.1921,-2.138,-2.0636,-2.0217,-1.9845,-1.9473,-1.9135,-1.9004,-1.9087,-1.8711,-1.8487,-5.4521,-5.5179,-5.5059,-5.3563,-5.0601,-4.6741,-4.1564,-3.8272,0.0,0.0,-3.1511,-3.1511,-3.1511,0.0,0.0,0.0,0.0,0.0,0.0,0.0,0.0,0.0,0.0,0.0,0.0,0.0,0.0,0.0,0.0,0.0,0.0,-4.3419,-4.2761,-4.2021,-4.1991,-4.1422,-4.0217,-4.0038,-3.9439,-3.8392,-3.7584,-3.6956,-3.6477,-3.5818,-3.5519,-3.5519,-3.5519,0.0,0.0,-3.5519,-3.5519,-3.54,-3.4173,-3.3634,-3.3335,-3.2138,-3.154,-3.1241,-3.0851,-3.0133,-2.9412,-2.9562,-2.8693,-2.7615,-2.7764,-2.7705,-2.7585,-2.7585,-2.7585,-2.7585,-2.7585,-2.7585,-2.7465,-2.6956,-2.6836,-2.6662,-2.6123,-2.6333,-2.6417,-2.5763,-2.5545,-2.5419,-2.5287,-2.5167,-2.5072,-2.5072,-2.4465,-2.3815,-2.3267,-2.2587,-2.2241,-2.2506,-2.1905,-2.166,-2.2089,-2.2166,-2.2194,-2.2279,-2.2313,-2.2313,-2.2313,-2.1752,-2.136,-2.119,-2.0568,-2.0251,-2.0251,-2.0069,-1.9778,-1.9396,-1.9046,-1.8699,-5.4072,-5.5179,-5.5628,-5.3683,-5.0272,-4.6172,-4.1474,0.0,0.0,-3.2079,-3.1511,-3.1511,-3.1511,-3.2049,-3.3185,0.0,0.0,0.0,0.0,0.0,0.0,0.0,0.0,0.0,0.0,0.0,0.0,0.0,0.0,0.0,0.0,-4.253,-4.1901,-4.0606,-4.0576,-4.0247,-3.9529,-3.8901,-3.8512,-3.8392,-3.7135,-3.6537,-3.6477,-3.5818,-3.5519,-3.5519,0.0,0.0,0.0,-3.5519,-3.5519,-3.5429,-3.4681,-3.4054,-3.3395,-3.2677,-3.1659,-3.0672,-3.1212,-3.0195,-2.8786,-2.9412,-2.8693,-2.7705,-2.8308,-2.8094,-2.7585,-2.7585,-2.7585,-2.7585,-2.7585,-2.7585,-2.7585,-2.7525,-2.7495,-2.7495,-2.7435,-2.6986,-2.6566,-2.6495,-2.5985,-2.5588,-2.5574,-2.5063,-2.4672,-2.4672,-2.407,-2.361,-2.358,-2.3007,-2.2555,-2.2356,-2.1555,-2.1213,-2.1612,-2.1642,-2.1838,-2.2265,-2.2313,-2.2313,-2.2313,-2.2212,-2.1887,-2.1224,-2.1123,-2.1089,-2.1089,-2.0352,-2.0352,-2.0953,-1.9565,-1.8866,-5.1917,-5.3354,-5.3982,-5.2396,-4.8716,-4.4496,-4.0696,0.0,-3.3754,-3.1899,-3.1511,-3.1511,-3.1511,-3.172,-3.2407,0.0,0.0,0.0,0.0,0.0,0.0,0.0,0.0,0.0,0.0,0.0,0.0,0.0,0.0,0.0,0.0,-4.1602,-4.1392,-4.0427,-4.0397,-3.9888,-3.8811,-3.8512,-3.8003,-3.7225,-3.6716,-3.6267,-3.5878,-3.5639,-3.5519,-3.5519,0.0,0.0,0.0,-3.5519,-3.5519,-3.5429,-3.4741,-3.4114,-3.3425,-3.2766,-3.1899,-3.1122,-3.1421,-3.0733,-2.9804,-3.0043,-2.9265,-2.8158,-2.8064,-2.7824,-2.7585,-2.7585,-2.7585,-2.7585,-2.7585,-2.7585,-2.7585,-2.7585,-2.7585,-2.7585,-2.7585,-2.7375,-2.7076,-2.6686,-2.6363,-2.6063,-2.5674,-2.5053,-2.4605,-2.4605,-2.4007,-2.346,-2.3122,-2.2853,-2.2495,-2.1981,-2.1471,-2.119,-2.1229,-2.146,-2.169,-2.1853,-2.1868,-2.1868,-2.1868,-2.1868,-2.1734,-2.1435,-2.1743,-2.1854,-2.1854,-2.1536,-2.1312,-2.1156,-2.0061,-1.9304,-4.9224,-5.1169,-5.2247,-5.072,-4.716,-4.311,0.0,0.0,-3.3125,-3.178,-3.1511,-3.1511,-3.1511,-3.1511,-3.1929,0.0,0.0,0.0,0.0,0.0,0.0,0.0,0.0,0.0,0.0,0.0,0.0,0.0,0.0,0.0,0.0,-4.0666,-4.0576,-4.0127,-3.9918,-3.9349,-3.8392,-3.8033,-3.7375,-3.6477,-3.6297,-3.5968,-3.5519,-3.5519,-3.5519,-3.5519,0.0,0.0,0.0,-3.5519,-3.537,-3.516,-3.4651,-3.3963,-3.3155,-3.2677,-3.2079,-3.1511,-3.1511,-3.1062,-3.0462,-3.0283,-2.9475,-2.8457,-2.7794,-2.7585,-2.7585,-2.7585,-2.7585,-2.7585,-2.7585,-2.7585,-2.7585,-2.7585,-2.7585,-2.7585,-2.7585,-2.7585,-2.7465,-2.6986,-2.6896,-2.6776,-2.6273,-2.5644,-2.5173,-2.5173,-2.4425,-2.3759,-2.331,-2.3092,-2.2733,-2.2074,-2.1827,-2.1546,-2.1127,-2.1344,-2.1502,-2.1447,-2.1414,-2.1414,-2.1414,-2.1414,-2.1414,-2.1414,-2.1735,-2.1915,-2.1915,-2.1915,-2.1649,-2.1116,-2.0117,-1.9235,-4.6172,-4.8701,-5.078,-4.8805,-4.5813,-4.2423,0.0,-3.5848,-3.3125,-3.178,-3.1511,-3.1511,-3.1511,-3.1511,-3.1929,-3.3275,0.0,0.0,0.0,0.0,0.0,0.0,0.0,0.0,0.0,0.0,0.0,0.0,0.0,0.0,0.0,0.0,-3.9439,-3.9403,-3.8781,-3.8392,-3.8392,-3.7135,-3.6507,-3.6477,-3.5818,-3.5519,-3.5519,-3.5519,0.0,0.0,0.0,0.0,0.0,-3.5519,-3.51,-3.4503,-3.4503,-3.3664,-3.2497,-3.2527,-3.2079,-3.1511,-3.1511,-3.1062,-3.0402,-2.9774,-2.9146,-2.8457,-2.7794,-2.7585,-2.7585,-2.7585,-2.7585,-2.7585,-2.7585,-2.7585,-2.7585,-2.7585,-2.7585,-2.7585,-2.7585,-2.7585,-2.7585,-2.7585,-2.7585,-2.7585,-2.7585,-2.7016,-2.6572,-2.6572,-2.5465,-2.4605,-2.4575,-2.3999,-2.334,-2.2763,-2.2673,-2.2304,-2.1391,-2.1303,-2.1235,-2.1039,-2.1007,-2.1007,-2.1007,-2.1007,-2.1007,-2.1007,-2.1007,-2.1007,-2.1007,-2.1007,-2.1007,-2.0975,-1.9566,-1.8348,-4.2521,-4.4347,-4.5574,-4.4496,-4.2432,-4.0001,-3.7644,-3.4768,-3.2236,-3.0951,-3.0688,-3.0688,-3.0688,-3.1131,-3.1929,-3.3275,-3.296,0.0,0.0,0.0,0.0,0.0,0.0,0.0,0.0,0.0,0.0,0.0,0.0,0.0,0.0,0.0,-3.9373,-3.9373,-3.92,-3.8661,-3.7734,-3.7315,-3.6686,-3.5818,-3.5609,-3.5519,-3.5519,-3.5519,0.0,0.0,0.0,0.0,0.0,-3.5011,-3.4713,-3.4444,-3.3993,-3.3275,-3.2527,-3.2527,-3.2079,-3.1511,-3.1511,-3.1361,-3.1002,-2.9953,-2.9472,-2.9056,-2.7944,-2.7585,-2.7585,-2.7585,-2.7585,-2.7705,-2.8158,-2.8278,-2.8397,-2.8873,-2.8963,-2.8963,-2.8963,-2.8603,-2.8278,-2.8278,-2.7914,-2.7585,-2.7585,-2.7046,-2.6602,-2.6602,-2.5442,-2.4605,-2.4605,-2.4007,-2.352,-2.3362,-2.331,-2.2654,-2.1035,-2.1136,-2.1078,-2.0563,-2.0532,-2.0532,-2.0532,-2.0532,-2.0532,-2.0532,-2.0845,-2.0991,-2.0991,-2.0991,-2.0751,-2.024,-1.9793,-1.9135,0.0,-4.1025,-4.2073,-4.1414,-3.9519,0.0,-3.5655,-3.3235,-3.1066,-3.004,-2.9813,-2.9813,-2.9813,-3.0238,-3.0918,-3.1997,-3.1868,0.0,0.0,0.0,0.0,0.0,0.0,0.0,0.0,0.0,0.0,0.0,0.0,0.0,0.0,0.0,-3.8267,-3.7907,-3.8358,-3.8242,-3.7434,-3.6926,-3.6297,-3.5519,-3.5519,-3.5519,-3.5519,0.0,0.0,0.0,0.0,0.0,0.0,-3.4683,-3.4204,-3.3694,-3.3275,-3.2706,-3.2108,-3.2108,-3.1869,-3.1511,-3.1511,-3.1331,-3.0943,-2.9924,-2.9262,-2.8693,-2.7854,-2.7585,-2.7585,-2.7585,-2.7794,-2.8068,-2.8487,-2.8786,-2.9086,-2.9502,-2.9621,-2.9621,-2.9621,-2.9265,-2.8906,-2.8637,-2.8483,-2.8274,-2.8034,-2.7619,-2.735,-2.735,-2.6213,-2.5352,-2.5352,-2.4777,-2.4268,-2.3999,-2.3999,-2.331,-2.1605,-2.1455,-2.1155,-2.0482,-2.0207,-2.0072,-2.0072,-2.0072,-2.0072,-2.0072,-2.0347,-2.0499,-2.0499,-2.0499,-2.0138,-1.9451,-1.9845,-1.9531,0.0,-3.8311,0.0,0.0,0.0,0.0,-3.3268,-3.1378,0.0,-2.9049,-2.8907,-2.8907,-2.8962,-2.8998,-2.9255,-2.9924,-3.0439,0.0,0.0,0.0,0.0,0.0,0.0,0.0,0.0,0.0,0.0,0.0,0.0,0.0,0.0,0.0,0.0,-3.5349,-3.6561,-3.7212,-3.7212,-3.6048,-3.5484,-3.5519,-3.5359,-3.5326,-3.5392,-3.5326,0.0,0.0,0.0,0.0,0.0,-3.4349,-3.3542,-3.2318,-3.2348,-3.193,-3.1307,-3.1307,-3.1307,-3.1307,-3.1307,-3.0918,-3.0319,-2.966,-2.8528,-2.7458,-2.7569,-2.7619,-2.7615,-2.7645,-2.8098,-2.8637,-2.8697,-2.9175,-2.9681,-2.9741,-2.9741,-2.9741,-2.9741,-2.9711,-2.9472,-2.8786,-2.9116,-2.9352,-2.8697,-2.8607,-2.8607,-2.8607,-2.75,-2.6632,-2.6626,-2.6004,-2.5322,-2.4664,-2.4605,-2.4096,-2.2882,-2.2143,-2.1455,-2.0748,-2.0109,-1.9738,-1.9708,-1.9708,-1.9708,-1.9708,-1.9708,-1.9708,-1.9708,-1.9708,-1.9378,-1.8792,-1.9796,-1.9582,-3.1358,0.0,-3.3964,-3.3157,-3.2949,-3.2536,0.0,0.0,0.0,0.0,0.0,0.0,0.0,-2.8823,-2.9334,-3.0444,-3.0106,0.0,0.0,0.0,0.0,0.0,0.0,0.0,0.0,0.0,0.0,0.0,0.0,0.0,0.0,0.0,0.0,-3.4816,-3.5296,-3.5543,-3.5543,-3.5252,-3.5242,-3.5457,-3.3973,-3.3636,-3.4312,-3.3602,0.0,0.0,0.0,0.0,-3.3456,-3.2896,-3.1846,-3.0598,-3.0764,-3.0293,-2.9597,-2.9597,-2.9597,-2.9597,-2.9597,-2.9597,-2.9406,-2.8357,-2.7048,-2.6126,-2.718,-2.7561,-2.7705,-2.8218,-2.8487,-2.8816,-2.9804,-3.0163,-3.0432,-3.0913,-3.1032,-3.1032,-3.1032,-3.0672,-3.0103,-2.9475,-2.9056,-2.8786,-2.8637,-2.8607,-2.8607,-2.8607,-2.7914,-2.7195,-2.6686,-2.6004,-2.5322,-2.4664,-2.4605,-2.4276,-2.346,-2.2823,-2.1964,-2.0778,-2.0539,-2.0228,-1.9738,-1.9708,-1.9708,-1.9708,-1.9708,-1.9708,-1.9708,-1.9708,-1.9618,-1.9468,-1.9725,-1.964,-2.8011,-2.975,-3.1429,-3.1032,-3.071,-3.0251,-2.9154,0.0,0.0,0.0,0.0,0.0,0.0,0.0,0.0,0.0,0.0,0.0,0.0,0.0,0.0,0.0,0.0,0.0,0.0,0.0,0.0,0.0,0.0,0.0,0.0,0.0,-3.4032,-3.2771,-3.3495,-3.4052,-3.4335,-3.4052,-3.3978,-3.4172,-3.3115,-3.2876,-3.3359,-3.2806,0.0,0.0,0.0,0.0,-3.1683,-3.1278,-3.0507,-2.954,-2.9676,-2.9411,-2.9002,-2.9002,-2.9002,-2.9002,-2.9002,-2.8864,-2.8556,-2.7596,-2.6748,-2.6296,-2.7059,-2.7285,-2.7471,-2.8232,-2.8664,-2.899,-2.9291,-2.9871,-3.0514,-3.0867,-3.0955,-3.1073,-3.1424,-3.0923,-3.0219,-2.9573,-2.9468,-2.9277,-2.8571,-2.8785,-2.8936,-2.8637,-2.8278,-2.7824,-2.7165,-2.6746,-2.6123,-2.5143,-2.5053,-2.4664,-2.367,-2.3281,-2.2703,-2.1665,-2.1036,-2.0557,-2.0168,-1.9839,-1.9708,-1.9708,-1.9708,-1.9708,-1.9708,-1.9708,-1.9708,-1.9708,-1.9708,-1.9708,-2.5894,-2.7964,-3.0228,-3.0147,-2.9322,-2.8328,-2.7668,0.0,0.0,0.0,0.0,0.0,0.0,0.0,0.0,0.0,0.0,0.0,0.0,0.0,0.0,0.0,0.0,0.0,0.0,0.0,0.0,0.0,0.0,0.0,0.0,0.0,0.0,-3.0522,-3.1729,-3.259,-3.3037,-3.2617,-3.2451,-3.2593,-3.2307,-3.2236,-3.2379,-3.2263,0.0,0.0,0.0,0.0,-2.9816,-2.9756,-2.9301,-2.862,-2.8748,-2.8716,-2.862,-2.862,-2.862,-2.8593,-2.8639,-2.8165,-2.7441,-2.6876,-2.6628,-2.6595,-2.6797,-2.6936,-2.7168,-2.7989,-2.8652,-2.8963,-2.8293,-2.9111,-3.0117,-3.0117,-3.0117,-3.0299,-3.0955,-3.0569,-2.9886,-2.9227,-2.9609,-2.9574,-2.8369,-2.8735,-2.9,-2.8349,-2.832,-2.8113,-2.7369,-2.7357,-2.6961,-2.5717,-2.5604,-2.5106,-2.3879,-2.367,-2.337,-2.2882,-2.1605,-2.0748,-2.0557,-1.9989,-1.9708,-1.9708,-1.9708,-1.9708,-1.9708,-1.9708,-1.9708,-1.9708,-1.9708,-1.9708,-2.6005,-2.7085,-2.7726,-2.7276,-2.7816,-2.8185,-2.6977,0.0,0.0,0.0,0.0,0.0,0.0,0.0,0.0,0.0,0.0,0.0,0.0,0.0,0.0,0.0,0.0,0.0,0.0,0.0,0.0,0.0,0.0,0.0,0.0,0.0,0.0,-2.9969,-3.0872,-3.1097,-3.0381,-3.106,-3.1829,-3.2558,-3.0996,-3.0646,-3.1389,-3.0608,-3.0373,0.0,0.0,-2.9191,-2.8885,-2.8791,-2.8001,-2.6952,-2.7637,-2.7471,-2.6884,-2.6884,-2.6884,-2.6909,-2.7026,-2.6277,-2.5288,-2.5375,-2.4949,-2.4679,-2.5893,-2.6556,-2.7062,-2.7637,-2.7985,-2.8321,-2.8726,-2.9014,-2.9192,-2.9192,-2.9192,-2.9223,-2.9348,-2.9286,-2.8997,-2.8352,-2.7917,-2.7615,-2.7414,-2.7473,-2.7366,-2.6834,-2.7114,-2.7001,-2.5882,-2.6283,-2.6364,-2.5586,-2.5579,-2.5292,-2.4515,-2.3939,-2.355,-2.346,-2.2263,-2.1036,-1.9899,-1.9768,-1.9708,-1.9708,-1.9708,-1.9708,-1.9708,-1.9708,-1.9708,-1.9708,-1.9708,-1.9708,-2.4933,-2.5996,-2.6826,-2.6549,-2.7611,-2.8324,-2.6854,0.0,0.0,0.0,0.0,0.0,0.0,0.0,0.0,0.0,0.0,0.0,0.0,0.0,0.0,0.0,0.0,0.0,0.0,0.0,0.0,0.0,0.0,0.0,0.0,0.0,0.0,0.0,-3.0216,-3.0254,-2.9804,-3.0254,-3.0502,-3.0608,-3.0063,-2.9872,-2.9931,-2.9492,-2.9264,-2.9108,0.0,-2.7855,-2.7515,-2.7447,-2.7079,-2.6533,-2.6918,-2.685,-2.6499,-2.6499,-2.6499,-2.6517,-2.6577,-2.6019,-2.53,-2.5742,-2.5434,-2.5055,-2.6037,-2.647,-2.6727,-2.6984,-2.742,-2.7814,-2.769,-2.7966,-2.8298,-2.8298,-2.8298,-2.8427,-2.8907,-2.862,-2.8185,-2.7884,-2.7721,-2.7464,-2.7004,-2.707,-2.6986,-2.6378,-2.6573,-2.6464,-2.5522,-2.5715,-2.5813,-2.5523,-2.5182,-2.4706,-2.4183,-2.345,-2.291,-2.2581,-2.2024,-2.1096,-1.9768,-1.9708,-1.9708,-1.9708,-1.9708,-1.9708,-1.9708,-1.9708,-1.9708,-1.9708,-1.9708,-1.9708,-2.413,-2.5109,-2.6147,-2.6273,-2.7318,-2.8122,-2.7278,0.0,0.0,0.0,0.0,0.0,0.0,0.0,0.0,0.0,0.0,0.0,0.0,0.0,0.0,0.0,0.0,0.0,0.0,0.0,0.0,0.0,0.0,0.0,0.0,0.0,0.0,0.0,-2.9804,-2.9729,-2.9603,-2.9603,-2.9377,-2.8888,-2.9377,-2.9277,-2.8687,-2.8687,-2.8423,-2.7896,-2.7469,-2.7002,-2.6499,-2.6499,-2.6499,-2.6499,-2.6499,-2.6499,-2.6499,-2.6499,-2.6499,-2.6499,-2.6499,-2.6122,-2.5661,-2.6147,-2.5996,-2.5686,-2.6147,-2.6399,-2.6499,-2.6499,-2.6952,-2.7297,-2.6645,-2.6985,-2.7404,-2.7404,-2.7404,-2.7604,-2.8266,-2.7901,-2.7404,-2.7404,-2.7423,-2.722,-2.655,-2.6552,-2.6418,-2.5794,-2.5774,-2.5587,-2.4934,-2.5021,-2.5163,-2.5202,-2.4714,-2.413,-2.3492,-2.2692,-2.1945,-2.1331,-2.1425,-2.0853,-1.9391,-1.9442,-1.9497,-1.9497,-1.9497,-1.9497,-1.9497,-1.9497,-1.9497,-1.9515,-1.9654,-1.9636,-2.4449,-2.4825,-2.5059,-2.5536,-2.6197,0.0,-2.8423,-2.7971,0.0,0.0,0.0,0.0,0.0,0.0,0.0,0.0,0.0,0.0,0.0,0.0,0.0,0.0,0.0,0.0,0.0,0.0,0.0,0.0,0.0,0.0,0.0,0.0,0.0,0.0,0.0,-2.9528,-2.8963,-2.8938,-2.8938,-2.8888,-2.8938,-2.8662,-2.8172,-2.8172,-2.7871,-2.7379,-2.7329,-2.7002,-2.6499,-2.6499,-2.6499,-2.6499,-2.6499,-2.6499,-2.6499,-2.6499,-2.6499,-2.6499,-2.6499,-2.6122,-2.5611,-2.5636,-2.5636,-2.5611,-2.5636,-2.6072,-2.6499,-2.6499,-2.6533,-2.6568,-2.6533,-2.6533,-2.6602,-2.6602,-2.6602,-2.6602,-2.6679,-2.6611,-2.6602,-2.6602,-2.6156,-2.5752,-2.5686,-2.529,-2.4792,-2.4236,-2.4165,-2.3963,-2.3351,-2.3901,-2.4394,-2.4399,-2.4395,-2.3922,-2.2785,-2.1651,-2.0756,-2.0073,-2.0605,-2.0145,-1.8285,-1.8703,-1.8968,-1.8968,-1.8968,-1.8968,-1.8968,-1.8968,-1.8968,-1.8968,-1.946,-1.9424,-2.312,-2.3998,-2.4825,-2.5059,-2.5787,0.0,0.0,0.0,0.0,0.0,0.0,0.0,0.0,0.0,0.0,0.0,0.0,0.0,0.0,0.0,0.0,0.0,0.0,0.0,0.0,0.0,0.0,0.0,0.0,0.0,0.0,0.0,0.0,0.0,0.0,-2.9113,-2.8888,-2.8562,-2.8247,-2.7921,-2.8247,-2.8122,-2.7595,-2.7595,-2.7469,-2.7268,-2.6952,-2.6675,-2.6499,-2.6499,-2.6273,-2.5912,-2.5912,-2.6172,-2.6499,-2.6499,-2.6499,-2.6499,-2.6499,-2.6122,-2.5661,-2.6047,-2.5921,-2.5661,-2.6072,-2.6323,-2.6499,-2.6499,-2.6499,-2.6499,-2.6499,-2.6499,-2.6499,-2.6499,-2.6499,-2.6499,-2.6499,-2.6499,-2.6499,-2.6499,-2.6323,-2.6172,-2.6172,-2.5661,-2.5134,-2.4582,-2.423,-2.3778,-2.317,-2.3365,-2.375,-2.4276,-2.3685,-2.2911,-2.2008,-2.1264,-2.027,-1.8927,-1.9433,-1.9263,-1.8167,-1.8288,-1.8386,-1.8386,-1.8386,-1.8386,-1.8386,-1.8386,-1.8386,-1.8405,-1.8626,-1.8607,-2.2096,-2.3025,-2.4048,0.0,0.0,0.0,0.0,0.0,0.0,0.0,0.0,0.0,0.0,0.0,0.0,0.0,0.0,0.0,0.0,0.0,0.0,0.0,0.0,0.0,0.0,0.0,0.0,0.0,0.0,0.0,0.0,0.0,0.0,0.0,0.0,0.0,-2.8423,-2.8021,-2.757,-2.7052,-2.7394,-2.7394,-2.7052,-2.7052,-2.7052,-2.7027,-2.665,-2.6499,-2.6499,-2.6499,-2.6147,-2.5586,-2.541,-2.5686,-2.6223,-2.6223,-2.6348,-2.6499,-2.6499,-2.6223,-2.5971,-2.6373,-2.6223,-2.5971,-2.6373,-2.6499,-2.6499,-2.6499,-2.6499,-2.6499,-2.6499,-2.6499,-2.6499,-2.6499,-2.6499,-2.6499,-2.6499,-2.6499,-2.6499,-2.6499,-2.6499,-2.6499,-2.6499,-2.6021,-2.5435,-2.4876,-2.4356,-2.3778,-2.317,-2.3095,-2.3255,-2.3638,-2.2813,-2.1998,-2.1297,-2.0604,-1.9652,-1.8278,-1.8438,-1.8278,-1.7598,-1.7753,-1.7834,-1.7834,-1.7834,-1.7834,-1.7834,-1.7834,-1.7834,-1.7834,-1.8013,-1.7993,-2.1644,-2.1895,-2.2447,0.0,0.0,0.0,0.0,0.0,0.0,0.0,0.0,0.0,0.0,0.0,0.0,0.0,0.0,0.0,0.0,0.0,0.0,0.0,0.0,0.0,0.0,0.0,0.0,0.0,0.0,0.0,0.0,0.0,0.0,0.0,0.0,0.0,-2.7329,-2.7268,-2.7027,-2.6474,-2.6474,-2.6474,-2.6499,-2.6499,-2.6499,-2.6499,-2.6499,-2.6499,-2.6474,-2.6474,-2.6147,-2.5536,-2.4976,-2.5134,-2.5586,-2.5586,-2.5996,-2.6499,-2.6474,-2.6499,-2.6499,-2.6499,-2.6499,-2.6499,-2.6499,-2.6499,-2.6499,-2.6499,-2.6499,-2.6499,-2.6499,-2.6499,-2.6499,-2.6499,-2.6499,-2.6499,-2.6499,-2.6499,-2.6499,-2.6499,-2.6499,-2.6499,-2.6474,-2.6021,-2.5435,-2.485,-2.4356,-2.3803,-2.317,-2.3095,-2.2895,-2.2372,-2.182,-2.1295,-2.0742,-1.966,-1.8782,-1.8229,-1.7702,-1.7124,-1.6525,-1.7001,-1.7291,-1.7291,-1.7291,-1.7291,-1.7291,-1.7291,-1.7291,-1.7312,-1.7834,-1.7794,-2.1644,-2.1895,0.0,0.0,0.0,0.0,0.0,0.0,0.0,0.0,0.0,0.0,0.0,0.0,0.0,0.0,0.0,0.0,0.0,0.0,0.0,0.0,0.0,0.0,0.0,0.0,0.0,0.0,0.0,0.0,0.0,0.0,0.0,0.0,0.0,0.0,-2.7293,-2.6138,-2.5661,-2.5837,-2.5485,-2.5711,-2.6499,-2.6499,-2.6499,-2.6499,-2.6499,-2.6273,-2.5787,-2.5034,-2.5059,-2.5511,-2.4607,-2.4808,-2.5561,-2.5184,-2.5661,-2.6424,-2.6021,-2.6147,-2.6499,-2.6499,-2.6499,-2.6499,-2.6499,-2.6499,-2.6499,-2.6499,-2.6499,-2.6499,-2.6499,-2.6499,-2.6499,-2.6499,-2.6499,-2.6499,-2.6499,-2.6499,-2.6499,-2.6499,-2.6499,-2.6373,-2.5912,-2.6072,-2.5795,-2.4431,-2.4431,-2.4199,-2.3221,-2.3095,-2.2895,-2.2372,-2.182,-2.1295,-2.0742,-1.9987,-1.9183,-1.8254,-1.8053,-1.7526,-1.6525,-1.6646,-1.6731,-1.6731,-1.6731,-1.6731,-1.6731,-1.6731,-1.6731,-1.6731,-1.69,-1.69,-2.1192,-2.187,0.0,0.0,0.0,0.0,0.0,0.0,0.0,0.0,0.0,0.0,0.0,0.0,0.0,0.0,0.0,0.0,0.0,0.0,0.0,0.0,0.0,0.0,0.0,0.0,0.0,0.0,0.0,0.0,0.0,0.0,0.0,0.0,0.0,0.0,-2.6289,-2.5277,-2.4951,-2.5285,-2.4926,-2.5159,-2.5812,-2.5812,-2.5812,-2.5812,-2.5812,-2.5611,-2.5234,-2.4356,-2.4381,-2.4883,-2.4004,-2.418,-2.4933,-2.4607,-2.5059,-2.5762,-2.541,-2.5661,-2.6147,-2.6147,-2.6298,-2.6499,-2.6499,-2.6499,-2.6449,-2.6223,-2.6323,-2.6449,-2.6197,-2.6323,-2.6499,-2.6499,-2.6499,-2.6499,-2.6499,-2.6499,-2.6499,-2.6499,-2.6499,-2.6323,-2.5686,-2.6122,-2.5921,-2.4255,-2.4048,-2.3873,-2.3195,-2.292,-2.2569,-2.2046,-2.1493,-2.0968,-2.039,-2.0012,-1.9334,-1.8279,-1.8204,-1.7702,-1.655,-1.65,-1.65,-1.65,-1.65,-1.65,-1.65,-1.65,-1.65,-1.65,-1.65,-1.65,-2.0666,0.0,0.0,0.0,0.0,0.0,0.0,0.0,0.0,0.0,0.0,0.0,0.0,0.0,0.0,0.0,0.0,0.0,0.0,0.0,0.0,0.0,0.0,0.0,0.0,0.0,0.0,0.0,0.0,0.0,0.0,0.0,0.0,0.0,0.0,0.0,-2.48,-2.47,-2.465,0.0,-2.465,-2.465,-2.465,-2.475,-2.48,-2.48,-2.475,-2.475,-2.475,-2.418,-2.3954,-2.3929,-2.3321,-2.3471,-2.3979,-2.3929,-2.4305,-2.4775,-2.4725,-2.5084,-2.5536,-2.5586,-2.5996,-2.6424,-2.6474,-2.6499,-2.6373,-2.5845,-2.6097,-2.6373,-2.5812,-2.6097,-2.6499,-2.6499,-2.6499,-2.6499,-2.6499,-2.6499,-2.6499,-2.6499,-2.6499,-2.6298,-2.5636,-2.6047,-2.5871,-2.423,-2.3471,-2.3095,-2.3095,-2.2669,-2.2146,-2.1543,-2.1069,-2.0515,-1.9861,-1.9761,-1.9284,-1.8279,-1.8154,-1.7652,-1.655,-1.65,-1.65,-1.65,-1.65,-1.65,-1.65,-1.65,-1.65,-1.65,-1.65,-1.65,-2.1694,-2.2221,0.0,0.0,0.0,0.0,0.0,0.0,0.0,0.0,0.0,0.0,0.0,0.0,0.0,0.0,0.0,0.0,0.0,0.0,0.0,0.0,0.0,0.0,0.0,0.0,0.0,0.0,0.0,0.0,0.0,0.0,0.0,0.0,0.0,-2.4381,-2.4775,-2.3923,-2.3697,0.0,-2.3672,-2.3471,-2.3496,-2.4374,-2.48,-2.4775,-2.4356,-2.4431,-2.47,-2.3697,-2.3572,-2.3929,-2.3321,-2.3471,-2.3954,-2.3471,-2.3923,-2.4725,-2.433,-2.4531,-2.5059,-2.546,-2.5686,-2.5862,-2.6348,-2.6499,-2.6474,-2.6348,-2.6399,-2.6474,-2.6348,-2.6399,-2.6499,-2.6499,-2.6499,-2.6499,-2.6499,-2.6499,-2.6499,-2.6499,-2.6499,-2.6172,-2.5159,-2.5435,-2.5385,-2.418,-2.3471,-2.3095,-2.3095,-2.2995,-2.2543,-2.1594,-2.1421,-2.0891,-1.9886,-1.9409,-1.8882,-1.8254,-1.7802,-1.725,-1.6525,-1.65,-1.65,-1.65,-1.65,-1.65,-1.65,-1.65,-1.65,-1.65,-1.65,-1.65,-2.1217,0.0,0.0,0.0,0.0,0.0,0.0,0.0,0.0,0.0,0.0,0.0,0.0,0.0,0.0,0.0,0.0,0.0,0.0,0.0,0.0,0.0,0.0,0.0,0.0,0.0,0.0,0.0,0.0,0.0,0.0,0.0,0.0,0.0,-2.4029,-2.3697,-2.3973,-2.3396,-2.3271,-2.3577,-2.3246,-2.3095,-2.312,-2.3722,-2.3973,-2.3973,-2.3672,-2.3722,-2.3948,-2.3346,-2.3296,-2.3521,-2.3221,-2.3296,-2.3521,-2.3221,-2.3471,-2.3948,-2.3678,-2.3954,-2.4531,-2.5059,-2.5385,-2.5711,-2.6323,-2.6499,-2.6424,-2.6147,-2.6273,-2.6424,-2.6147,-2.6273,-2.6499,-2.6499,-2.6499,-2.6499,-2.6499,-2.6499,-2.6499,-2.6499,-2.6499,-2.6147,-2.5008,-2.4575,-2.433,-2.4029,-2.3471,-2.3095,-2.3095,-2.2644,-2.2121,-2.1543,-2.1016,-2.0439,-1.9861,-1.956,-1.9033,-1.8254,-1.7928,-1.74,-1.6525,-1.65,-1.65,-1.65,-1.65,-1.65,-1.65,-1.65,-1.65,-1.65,-1.65,-1.6346,-2.0239,0.0,0.0,0.0,0.0,0.0,0.0,0.0,0.0,0.0,0.0,0.0,0.0,0.0,0.0,0.0,0.0,0.0,0.0,0.0,0.0,0.0,0.0,0.0,0.0,0.0,0.0,0.0,0.0,0.0,0.0,0.0,-2.4481,-2.4004,-2.3396,-2.3095,-2.3095,-2.3095,-2.3095,-2.3095,-2.3095,-2.3045,-2.297,-2.307,-2.3095,-2.3095,-2.2995,-2.302,-2.3095,-2.2995,-2.302,-2.3095,-2.2995,-2.302,-2.3095,-2.2995,-2.302,-2.3095,-2.3095,-2.3421,-2.3929,-2.4474,-2.4983,-2.5435,-2.6147,-2.6348,-2.6273,-2.5862,-2.6122,-2.6373,-2.5862,-2.6122,-2.6474,-2.6373,-2.6424,-2.6499,-2.6499,-2.6499,-2.6474,-2.6373,-2.6197,-2.577,-2.4833,-2.3797,-2.3271,-2.3778,-2.3421,-2.3095,-2.3095,-2.2246,-2.1594,-2.1493,-2.0564,-1.9911,-1.9811,-1.971,-1.9284,-1.8405,-1.8179,-1.7652,-1.6676,-1.655,-1.6457,-1.6346,-1.6457,-1.65,-1.65,-1.65,-1.65,-1.65,-1.65,-1.6238,0.0,0.0,0.0,0.0,0.0,0.0,0.0,0.0,0.0,0.0,0.0,0.0,0.0,0.0,0.0,0.0,0.0,0.0,0.0,0.0,0.0,0.0,0.0,0.0,0.0,0.0,0.0,0.0,0.0,0.0,0.0,-2.4406,-2.4079,-2.4004,-2.3396,-2.3095,-2.3095,-2.3095,-2.3095,-2.3095,-2.3095,-2.2869,-2.2418,-2.2895,-2.3095,-2.307,-2.2594,-2.2669,-2.307,-2.2594,-2.2669,-2.3045,-2.2569,-2.2694,-2.3045,-2.2569,-2.2694,-2.3095,-2.3095,-2.3145,-2.3321,-2.3929,-2.4155,-2.4406,-2.541,-2.5711,-2.5812,-2.6273,-2.6424,-2.6474,-2.6399,-2.6424,-2.6373,-2.5837,-2.6122,-2.6499,-2.6499,-2.6499,-2.6348,-2.5812,-2.4958,-2.428,-2.413,-2.3547,-2.312,-2.3221,-2.3145,-2.3095,-2.3095,-2.2569,-2.202,-2.1543,-2.0943,-2.0365,-1.9836,-1.9359,-1.9058,-1.8907,-1.8028,-1.7448,-1.7297,-1.6798,-1.6259,-1.5732,-1.6238,-1.65,-1.65,-1.65,-1.65,-1.65,-1.65,-1.6457,-2.0367,0.0,0.0,0.0,0.0,0.0,0.0,0.0,0.0,0.0,0.0,0.0,0.0,0.0,0.0,0.0,0.0,0.0,0.0,0.0,0.0,0.0,0.0,0.0,0.0,0.0,0.0,0.0,0.0,0.0,-2.4406,-2.413,-2.3853,-2.3496,-2.3246,-2.297,-2.2644,-2.2945,-2.3095,-2.3095,-2.3095,-2.297,-2.2744,-2.2995,-2.3095,-2.307,-2.2518,-2.2418,-2.2594,-2.2071,-2.1995,-2.2221,-2.2268,-2.2418,-2.2644,-2.2719,-2.2895,-2.3095,-2.3095,-2.3095,-2.3195,-2.3803,-2.4004,-2.413,-2.4933,-2.5159,-2.5285,-2.5845,-2.6021,-2.6097,-2.6399,-2.6499,-2.6348,-2.5737,-2.5787,-2.5887,-2.5611,-2.6072,-2.6323,-2.5711,-2.4732,-2.4004,-2.4004,-2.3496,-2.3095,-2.3095,-2.3095,-2.2995,-2.2694,-2.2196,-2.1644,-2.1119,-2.0541,-1.9905,-1.924,-1.8969,-1.8545,-1.7824,-1.7116,-1.6574,-1.6244,-1.6087,-1.571,-1.5107,-1.5688,-1.5996,-1.5996,-1.5996,-1.6173,-1.65,-1.6151,-1.5798,0.0,0.0,0.0,0.0,0.0,0.0,0.0,0.0,0.0,0.0,0.0,0.0,0.0,0.0,0.0,0.0,0.0,0.0,0.0,0.0,0.0,0.0,0.0,0.0,0.0,0.0,0.0,0.0,0.0,0.0,-2.3828,-2.3778,-2.3577,-2.312,-2.297,-2.2694,-2.2322,-2.2694,-2.2819,-2.2694,-2.2819,-2.2819,-2.2694,-2.2694,-2.2694,-2.2669,-2.2272,-2.2171,-2.2246,-2.1568,-2.1395,-2.1546,-2.1794,-2.2071,-2.2347,-2.2594,-2.2869,-2.3095,-2.3095,-2.3095,-2.317,-2.3627,-2.3778,-2.3879,-2.4431,-2.4575,-2.4732,-2.5259,-2.5485,-2.5686,-2.6172,-2.6373,-2.6348,-2.5737,-2.5586,-2.5419,-2.4814,-2.527,-2.5703,-2.5136,-2.4186,-2.3468,-2.3468,-2.2911,-2.2476,-2.2565,-2.2419,-2.2163,-2.1882,-2.1198,-2.065,-2.0447,-1.9715,-1.9085,-1.8741,-1.8528,-1.8016,-1.7042,-1.6487,-1.5995,-1.5543,-1.543,-1.5107,-1.4491,-1.4903,-1.5219,-1.5377,-1.5377,-1.5599,-1.6042,-1.5577,-1.513,0.0,0.0,0.0,0.0,0.0,0.0,0.0,0.0,0.0,0.0,0.0,0.0,0.0,0.0,0.0,0.0,0.0,0.0,0.0,0.0,0.0,0.0,0.0,0.0,0.0,0.0,0.0,0.0,0.0,0.0,-2.317,-2.3145,-2.3145,-2.3095,-2.2594,-2.2347,-2.2322,-2.2347,-2.2096,-2.1568,-2.2096,-2.2071,-2.1568,-2.1568,-2.1568,-2.1568,-2.1543,-2.182,-2.2221,-2.1169,-2.1043,-2.1443,-2.0968,-2.1393,-2.2246,-2.1769,-2.2246,-2.3095,-2.3095,-2.3095,-2.312,-2.3145,-2.3145,-2.3271,-2.3879,-2.4029,-2.4155,-2.4675,-2.5209,-2.5611,-2.5636,-2.6072,-2.6348,-2.5737,-2.5586,-2.5352,-2.4424,-2.4165,-2.4002,-2.3508,-2.2647,-2.2018,-2.2018,-2.1313,-2.0814,-2.1067,-2.0518,-2.0152,-2.0461,-1.9425,-1.8902,-1.9602,-1.8478,-1.7988,-1.8635,-1.807,-1.7611,-1.7561,-1.6714,-1.6202,-1.6154,-1.5237,-1.4468,-1.3862,-1.3886,-1.419,-1.4744,-1.4744,-1.4766,-1.4789,-1.4766,-1.4721,0.0,0.0,0.0,0.0,0.0,0.0,0.0,0.0,0.0,0.0,0.0,0.0,0.0,0.0,0.0,0.0,0.0,0.0,0.0,0.0,0.0,0.0,0.0,0.0,0.0,0.0,0.0,0.0,0.0,0.0,-2.3145,-2.3095,-2.3095,-2.3095,-2.2569,-2.2146,-2.1794,-2.1471,-2.137,-2.1493,-2.1694,-2.1669,-2.1493,-2.1493,-2.1493,-2.1468,-2.1144,-2.1094,-2.1192,-2.044,-2.0238,-2.0464,-2.0991,-2.1443,-2.1845,-2.2347,-2.2769,-2.3095,-2.3095,-2.3095,-2.3095,-2.3095,-2.3095,-2.3145,-2.3346,-2.3421,-2.3521,-2.413,-2.4431,-2.4603,-2.4676,-2.4624,-2.4414,-2.3879,-2.3935,-2.3757,-2.2523,-2.2497,-2.2688,-2.2479,-2.1724,-2.1069,-2.1069,-2.0814,-2.0619,-2.0723,-2.0271,-1.9825,-1.9595,-1.8947,-1.8431,-1.8336,-1.7883,-1.7523,-1.7302,-1.7052,-1.6687,-1.6226,-1.5622,-1.5293,-1.5293,-1.4792,-1.4209,-1.3636,-1.3745,-1.3909,-1.412,-1.412,-1.4329,-1.4675,-1.4306,-1.412,0.0,0.0,0.0,0.0,0.0,0.0,0.0,0.0,0.0,0.0,0.0,0.0,0.0,0.0,0.0,0.0,0.0,0.0,0.0,0.0,0.0,0.0,0.0,0.0,0.0,0.0,0.0,0.0,0.0,0.0,-2.312,-2.3095,-2.292,-2.2569,-2.2046,-2.1493,-2.0941,-2.0792,-2.0867,-2.1245,-2.1245,-2.1245,-2.1245,-2.1016,-2.0916,-2.0891,-2.0566,-2.0515,-2.0666,-2.0289,-2.0087,-2.0189,-2.0943,-2.1443,-2.182,-2.2372,-2.2794,-2.3095,-2.3095,-2.3095,-2.3095,-2.3095,-2.3095,-2.3035,-2.2793,-2.2702,-2.2776,-2.3176,-2.3423,-2.3592,-2.3652,-2.3482,-2.3185,-2.2791,-2.2684,-2.2365,-2.1259,-2.1383,-2.1642,-2.1357,-2.0687,-2.0171,-2.0171,-1.9911,-1.9771,-1.9888,-1.9413,-1.8961,-1.8698,-1.8099,-1.7694,-1.7665,-1.7341,-1.7041,-1.6971,-1.6585,-1.6153,-1.5654,-1.5098,-1.4813,-1.4813,-1.4485,-1.4129,-1.3711,-1.3705,-1.3707,-1.3707,-1.3563,-1.3695,-1.4095,-1.3671,-1.3505,0.0,0.0,0.0,0.0,0.0,0.0,0.0,0.0,0.0,0.0,0.0,0.0,0.0,0.0,0.0,0.0,0.0,0.0,0.0,0.0,0.0,0.0,0.0,0.0,0.0,0.0,0.0,0.0,0.0,-2.312,-2.3095,-2.3095,-2.2569,-2.1518,-2.0993,-2.0415,-1.9811,-2.039,-2.0666,-2.0666,-2.0666,-2.0666,-2.0641,-2.0036,-1.976,-1.9811,-1.9785,-2.0112,-2.0666,-2.0666,-2.0666,-2.0666,-2.0691,-2.137,-2.2221,-2.1719,-2.2221,-2.3095,-2.3095,-2.3095,-2.3095,-2.3095,-2.3095,-2.2944,-2.2125,-2.1908,-2.1877,-2.1877,-2.2258,-2.2638,-2.263,-2.2728,-2.2822,-2.2635,-2.1977,-2.1255,-2.0665,-2.0861,-2.0874,-2.0049,-1.9536,-1.9276,-1.9276,-1.8543,-1.8121,-1.8411,-1.7833,-1.7499,-1.7761,-1.6819,-1.6536,-1.7667,-1.6769,-1.6567,-1.7646,-1.6748,-1.6085,-1.6065,-1.5283,-1.4833,-1.4833,-1.4375,-1.4133,-1.4133,-1.3704,-1.3516,-1.3516,-1.3111,-1.2915,-1.2915,-1.2915,-1.2915,-1.6646,0.0,0.0,0.0,0.0,0.0,0.0,0.0,0.0,0.0,0.0,0.0,0.0,0.0,0.0,0.0,0.0,0.0,0.0,0.0,0.0,0.0,0.0,0.0,0.0,0.0,0.0,0.0,-2.3496,-2.3547,-2.312,-2.2719,-2.2221,-2.1518,-2.0993,-2.0415,-1.9811,-1.9962,-2.0037,-2.0037,-2.0037,-2.0037,-2.0037,-1.934,-1.9293,-1.9785,-1.924,-1.9393,-2.0037,-2.0037,-2.0037,-2.0112,-2.0968,-2.1443,-2.1794,-2.2447,-2.2844,-2.3095,-2.3095,-2.3095,-2.3095,-2.3095,-2.3095,-2.2944,-2.2125,-2.1908,-2.1784,-2.1132,-2.1065,-2.1109,-2.0753,-2.1047,-2.1274,-2.077,-2.0822,-2.0723,-1.9855,-1.9479,-1.9243,-1.8999,-1.8626,-1.8361,-1.8361,-1.7921,-1.7684,-1.8095,-1.7435,-1.7037,-1.7459,-1.6943,-1.6645,-1.6982,-1.6715,-1.6558,-1.6587,-1.6285,-1.5968,-1.5605,-1.5371,-1.5234,-1.5234,-1.4824,-1.4609,-1.4609,-1.3887,-1.3516,-1.3516,-1.3111,-1.2915,-1.2915,-1.2915,-1.2915,0.0,0.0,0.0,0.0,0.0,0.0,0.0,-1.8581,0.0,0.0,0.0,0.0,0.0,0.0,0.0,0.0,0.0,0.0,0.0,0.0,0.0,0.0,0.0,0.0,0.0,0.0,0.0,0.0,-2.3803,-2.3753,-2.3145,-2.2397,-2.182,-2.1493,-2.0742,-2.0137,-1.9811,-1.9811,-1.9811,-1.9811,-1.9811,-1.9631,-1.9345,-1.89,-1.8927,-1.9319,-1.8874,-1.8927,-1.937,-1.9564,-1.9996,-2.0564,-2.1217,-2.1769,-2.2221,-2.2619,-2.292,-2.3095,-2.3095,-2.3095,-2.3095,-2.3095,-2.2884,-2.2433,-2.1628,-2.1101,-2.0719,-2.0204,-2.0042,-2.002,-1.9923,-1.9879,-1.9818,-1.9666,-1.9777,-1.9731,-1.9131,-1.8645,-1.8344,-1.8344,-1.8184,-1.8008,-1.8008,-1.7812,-1.7734,-1.7969,-1.7578,-1.7363,-1.7617,-1.7266,-1.707,-1.7213,-1.7077,-1.6894,-1.6672,-1.6445,-1.6152,-1.5703,-1.5508,-1.541,-1.541,-1.5176,-1.5039,-1.5039,-1.4375,-1.3867,-1.3516,-1.3111,-1.2915,-1.2915,-1.2915,-1.2915,0.0,0.0,0.0,0.0,0.0,0.0,-1.7423,-1.7448,-1.7601,0.0,0.0,0.0,0.0,0.0,0.0,0.0,0.0,0.0,0.0,0.0,0.0,0.0,0.0,0.0,0.0,0.0,-2.5184,-2.4004,-2.3904,-2.3678,-2.312,-2.2096,-2.1493,-2.1493,-2.0388,-1.9811,-1.9811,-1.9811,-1.9811,-1.9811,-1.9811,-1.9423,-1.8688,-1.8608,-1.8581,-1.8581,-1.8501,-1.8501,-1.8605,-1.9022,-1.9961,-2.1169,-2.1265,-2.1882,-2.2675,-2.2371,-2.2526,-2.2875,-2.299,-2.297,-2.292,-2.283,-2.2323,-2.1556,-2.0592,-1.9803,-1.9192,-1.9156,-1.9177,-1.9248,-1.965,-1.9133,-1.8637,-1.9102,-1.8887,-1.8539,-1.8539,-1.8208,-1.7949,-1.8008,-1.8008,-1.8008,-1.8008,-1.7969,-1.7949,-1.7949,-1.7949,-1.7949,-1.7949,-1.7656,-1.7598,-1.7969,-1.7676,-1.7441,-1.7383,-1.6973,-1.6543,-1.6124,-1.5644,-1.541,-1.541,-1.541,-1.541,-1.541,-1.4961,-1.4316,-1.3516,-1.3111,-1.2915,-1.2915,-1.2915,-1.2915,0.0,0.0,0.0,0.0,0.0,0.0,-1.7498,-1.7727,-1.8078,0.0,0.0,0.0,0.0,0.0,0.0,0.0,0.0,0.0,0.0,0.0,0.0,0.0,0.0,0.0,0.0,0.0,-2.5493,-2.3421,-2.3271,-2.3221,-2.312,-2.2096,-2.1493,-2.1493,-2.0388,-1.9811,-1.9811,-1.9811,-1.9811,-1.9811,-1.9811,-1.9423,-1.8688,-1.8097,-1.7825,-1.7797,-1.7191,-1.7274,-1.7825,-1.7888,-1.8362,-1.9,-1.9771,-2.0175,-2.0504,-2.1561,-2.1734,-2.1506,-2.2213,-2.2171,-2.1709,-2.1112,-2.0822,-2.0441,-1.8947,-1.8606,-1.8665,-1.8328,-1.8259,-1.8359,-1.876,-1.8483,-1.8208,-1.8637,-1.8403,-1.8125,-1.8125,-1.7812,-1.7598,-1.7949,-1.8008,-1.8008,-1.8008,-1.7734,-1.75,-1.75,-1.75,-1.75,-1.75,-1.7734,-1.791,-1.8008,-1.793,-1.7754,-1.7455,-1.6973,-1.6543,-1.6124,-1.5644,-1.541,-1.541,-1.541,-1.541,-1.541,-1.4621,-1.3977,-1.3516,-1.3111,-1.2915,-1.2915,-1.2915,-1.2915,0.0,0.0,0.0,-1.7852,0.0,0.0,0.0,-1.7375,-1.7451,0.0,0.0,0.0,0.0,0.0,0.0,0.0,0.0,0.0,0.0,0.0,0.0,0.0,0.0,0.0,0.0,0.0,-2.4757,-2.3622,-2.302,-2.2694,-2.2694,-2.1669,-2.1094,-2.1094,-2.0238,-1.9811,-1.9811,-1.9811,-1.9605,-1.9267,-1.9267,-1.8661,-1.7578,-1.7219,-1.7052,-1.7024,-1.6652,-1.6708,-1.7073,-1.7283,-1.744,-1.763,-1.8898,-1.97,-2.0241,-2.1136,-2.1033,-2.054,-2.1136,-2.1182,-2.0848,-2.0105,-1.9814,-1.9526,-1.8351,-1.8009,-1.7938,-1.777,-1.7852,-1.8066,-1.8247,-1.813,-1.8066,-1.8247,-1.8164,-1.8008,-1.8008,-1.7676,-1.7441,-1.7656,-1.7519,-1.7441,-1.7656,-1.7344,-1.7051,-1.7051,-1.7246,-1.7383,-1.7383,-1.7754,-1.8008,-1.8008,-1.8008,-1.7832,-1.7422,-1.6973,-1.6543,-1.6124,-1.5644,-1.541,-1.541,-1.541,-1.541,-1.541,-1.4785,-1.4231,-1.3802,-1.3398,-1.3111,-1.2915,-1.2915,-1.2915,0.0,0.0,0.0,0.0,0.0,-1.775,0.0,0.0,0.0,-1.7149,0.0,0.0,0.0,0.0,0.0,0.0,0.0,0.0,0.0,0.0,0.0,0.0,0.0,0.0,0.0,0.0,-2.3552,-2.3678,-2.2723,-2.2146,-2.2146,-2.1245,-2.0691,-2.0691,-2.0112,-1.9811,-1.9811,-1.9811,-1.9423,-1.8688,-1.8688,-1.7934,-1.6482,-1.6482,-1.6425,-1.6283,-1.6386,-1.6366,-1.6324,-1.6779,-1.682,-1.6747,-1.8202,-1.931,-2.016,-2.0525,-2.0159,-1.9557,-2.0012,-2.0022,-1.9742,-1.9019,-1.8652,-1.8433,-1.7903,-1.7587,-1.7383,-1.7383,-1.7695,-1.8008,-1.8008,-1.8008,-1.8008,-1.8008,-1.8008,-1.8008,-1.8008,-1.7676,-1.7383,-1.7383,-1.6953,-1.6738,-1.7187,-1.6973,-1.6668,-1.659,-1.6973,-1.7227,-1.7181,-1.7578,-1.7891,-1.7891,-1.7891,-1.7754,-1.7455,-1.6894,-1.6445,-1.6124,-1.5644,-1.541,-1.541,-1.541,-1.541,-1.541,-1.5,-1.4609,-1.4231,-1.3724,-1.3281,-1.2915,-1.2915,-1.2915,0.0,0.0,0.0,0.0,-1.9233,0.0,0.0,0.0,-1.7149,-1.6697,0.0,0.0,0.0,0.0,0.0,0.0,0.0,0.0,0.0,0.0,0.0,0.0,0.0,0.0,0.0,0.0,0.0,-2.2472,-2.192,-2.1568,-2.1568,-2.1018,-2.0691,-2.0691,-2.0112,-1.9811,-1.9811,-1.9811,-1.9423,-1.8688,-1.8688,-1.7934,-1.6482,-1.6482,-1.614,-1.5546,-1.5969,-1.591,-1.5566,-1.6029,-1.6215,-1.6242,-1.7216,-1.7876,-1.8395,-1.9213,-1.8892,-1.8171,-1.8985,-1.8644,-1.779,-1.7055,-1.6658,-1.6496,-1.6758,-1.7096,-1.7383,-1.7383,-1.7695,-1.8008,-1.8008,-1.8008,-1.8008,-1.8008,-1.8008,-1.8008,-1.8008,-1.7676,-1.7383,-1.7383,-1.675,-1.632,-1.6707,-1.6746,-1.657,-1.6222,-1.6523,-1.666,-1.63,-1.6966,-1.7494,-1.7494,-1.7494,-1.7441,-1.7383,-1.6652,-1.6144,-1.6105,-1.5644,-1.541,-1.541,-1.541,-1.541,-1.541,-1.5,-1.4766,-1.4707,-1.3906,-1.3281,-1.2915,-1.2915,-1.2915,0.0,0.0,0.0,0.0,0.0,0.0,0.0,0.0,-1.7877,0.0,0.0,0.0,0.0,0.0,0.0,0.0,0.0,0.0,0.0,0.0,0.0,0.0,0.0,0.0,0.0,0.0,0.0,0.0,0.0,-2.0514,-2.0514,-2.0012,-1.9861,-2.0189,-1.9936,-1.9579,-1.9188,-1.9164,-1.8581,-1.7413,-1.7413,-1.6884,-1.5874,-1.5874,-1.584,-1.5811,-1.5752,-1.5723,-1.5811,-1.5703,-1.5996,-1.6484,-1.6855,-1.7109,-1.735,-1.8417,-1.8109,-1.7223,-1.779,-1.7722,-1.727,-1.668,-1.6322,-1.6124,-1.6289,-1.6836,-1.7383,-1.7383,-1.7695,-1.8008,-1.8008,-1.8008,-1.7949,-1.7695,-1.7637,-1.7637,-1.7637,-1.7305,-1.7012,-1.7012,-1.6535,-1.6065,-1.5946,-1.5946,-1.5898,-1.5703,-1.6055,-1.6269,-1.6124,-1.6868,-1.7383,-1.7383,-1.7598,-1.7656,-1.7402,-1.6816,-1.6348,-1.6105,-1.5644,-1.541,-1.541,-1.541,-1.541,-1.541,-1.5234,-1.5019,-1.4813,-1.4434,-1.3906,-1.3242,-1.3013,-1.2915,-2.0943,0.0,0.0,0.0,0.0,0.0,0.0,0.0,0.0,0.0,0.0,0.0,0.0,0.0,0.0,0.0,0.0,0.0,0.0,0.0,0.0,0.0,0.0,0.0,0.0,0.0,0.0,0.0,0.0,0.0,-1.9106,-1.8883,-1.9008,-1.9559,-1.953,-1.924,-1.8715,-1.8501,-1.777,-1.6482,-1.6482,-1.6112,-1.541,-1.541,-1.5586,-1.5909,-1.5801,-1.5879,-1.6085,-1.5977,-1.6191,-1.6562,-1.6785,-1.6758,-1.6684,-1.7914,-1.7732,-1.6899,-1.7032,-1.6999,-1.6855,-1.662,-1.6507,-1.6457,-1.6457,-1.6985,-1.7539,-1.7422,-1.7695,-1.8008,-1.8008,-1.8008,-1.793,-1.7637,-1.7461,-1.7383,-1.7383,-1.7031,-1.6668,-1.6562,-1.6289,-1.5948,-1.5488,-1.541,-1.5449,-1.5566,-1.5762,-1.5948,-1.6065,-1.6652,-1.7103,-1.7187,-1.7363,-1.7402,-1.7227,-1.6699,-1.623,-1.5928,-1.5586,-1.541,-1.541,-1.541,-1.541,-1.541,-1.5293,-1.5098,-1.4813,-1.4668,-1.4277,-1.3646,-1.3242,-1.3013,0.0,0.0,0.0,-2.0817,0.0,0.0,0.0,0.0,-1.8832,0.0,0.0,0.0,0.0,0.0,0.0,0.0,0.0,0.0,0.0,0.0,0.0,0.0,0.0,0.0,0.0,0.0,0.0,0.0,0.0,0.0,-1.7387,-1.7843,-1.8384,-1.9008,-1.8842,-1.8715,-1.8688,-1.7988,-1.7246,-1.6482,-1.6482,-1.6112,-1.541,-1.541,-1.541,-1.5488,-1.6297,-1.6445,-1.6163,-1.7005,-1.6868,-1.6202,-1.7063,-1.6868,-1.6261,-1.7553,-1.7748,-1.7305,-1.6855,-1.6457,-1.6194,-1.6574,-1.6992,-1.7376,-1.7376,-1.7637,-1.791,-1.75,-1.7695,-1.8008,-1.8008,-1.8008,-1.8008,-1.7988,-1.7676,-1.7383,-1.7383,-1.7031,-1.657,-1.6202,-1.6105,-1.5948,-1.5488,-1.541,-1.5547,-1.6007,-1.5703,-1.5586,-1.6046,-1.6124,-1.63,-1.6668,-1.6387,-1.632,-1.6687,-1.5927,-1.5449,-1.543,-1.541,-1.541,-1.541,-1.541,-1.541,-1.541,-1.5019,-1.4805,-1.4813,-1.4328,-1.4114,-1.4075,-1.3665,-1.3262,0.0,0.0,-2.0918,-2.0742,0.0,0.0,0.0,0.0,0.0,0.0,0.0,0.0,0.0,0.0,0.0,0.0,0.0,0.0,0.0,0.0,0.0,0.0,0.0,0.0,0.0,0.0,0.0,0.0,0.0,0.0,0.0,-1.6282,-1.6796,-1.7648,-1.7601,-1.7481,-1.7246,-1.7017,-1.651,-1.5787,-1.5787,-1.5642,-1.541,-1.541,-1.5566,-1.587,-1.5859,-1.5937,-1.6085,-1.6074,-1.6105,-1.6144,-1.6719,-1.6953,-1.7024,-1.7441,-1.7324,-1.6902,-1.6746,-1.6445,-1.6163,-1.6551,-1.7031,-1.7383,-1.7383,-1.7676,-1.7988,-1.7832,-1.791,-1.8008,-1.8008,-1.8008,-1.7871,-1.7272,-1.7051,-1.6953,-1.6953,-1.6804,-1.6648,-1.6512,-1.6504,-1.6367,-1.5948,-1.587,-1.5928,-1.6065,-1.5968,-1.6026,-1.6445,-1.6504,-1.668,-1.7109,-1.7031,-1.7024,-1.7148,-1.6348,-1.5723,-1.543,-1.541,-1.541,-1.541,-1.541,-1.541,-1.541,-1.5,-1.4922,-1.5195,-1.4766,-1.457,-1.457,-1.4414,-1.3853,-2.0742,-2.0691,0.0,-2.0691,-2.0415,0.0,-2.0616,0.0,0.0,0.0,0.0,0.0,0.0,0.0,0.0,0.0,0.0,0.0,0.0,-1.4653,0.0,0.0,0.0,0.0,0.0,0.0,0.0,0.0,0.0,0.0,0.0,0.0,-1.5648,-1.6676,-1.6669,-1.6575,-1.651,-1.6226,-1.5874,-1.541,-1.541,-1.541,-1.541,-1.541,-1.5644,-1.6085,-1.5937,-1.6035,-1.6289,-1.6172,-1.6191,-1.6378,-1.6797,-1.7031,-1.7168,-1.7324,-1.7109,-1.6726,-1.6882,-1.668,-1.6348,-1.6609,-1.7031,-1.7383,-1.7383,-1.7676,-1.7988,-1.7832,-1.7891,-1.7969,-1.7832,-1.7891,-1.7871,-1.7291,-1.6921,-1.6707,-1.6707,-1.6453,-1.6239,-1.6239,-1.6356,-1.6406,-1.6144,-1.6222,-1.6348,-1.6535,-1.6437,-1.6465,-1.6914,-1.6804,-1.6863,-1.7344,-1.7246,-1.709,-1.6966,-1.6281,-1.5703,-1.543,-1.541,-1.541,-1.541,-1.541,-1.5352,-1.5195,-1.4667,-1.4402,-1.4516,-1.4119,-1.4091,-1.4373,-1.424,-1.3719]},{"header":{"parameterUnit":"m.s-1","parameterCategory":1,"la1":30.6,"la2":29.2853,"lo1":-89.7004,"lo2":-87.6739,"dy":0.0162,"dx":0.0183,"nx":112,"ny":82,"refTime":"2023-04-16T12:00:00:Z","depth":0,"parameterNumber":3,"parameterNumberName":"V-component_of_WINDS"},"data":[0.0,0.0,0.0,0.0,0.0,0.0,0.0,0.0,0.0,0.0,0.0,0.0,0.0,0.0,0.0,0.0,0.0,0.0,0.0,0.0,0.0,0.0,0.0,0.0,0.0,0.0,0.0,0.0,0.0,0.0,0.0,0.0,0.0,0.0,0.0,0.0,0.0,0.0,0.0,0.0,0.0,0.0,0.0,0.0,0.0,0.0,0.0,0.0,0.0,0.0,0.0,0.0,0.0,0.0,0.0,0.0,0.0,0.0,0.0,0.0,0.0,0.0,0.0,0.0,0.0,0.0,0.0,0.0,0.0,0.0,0.0,0.0,0.0,0.0,0.0,0.0,0.0,0.0,0.0,0.0,0.0,0.0,0.0,0.0,0.0,0.0,0.0,0.0,0.0,0.0,0.0,-0.321,-0.5077,-0.6824,-0.8481,-0.8187,-0.7434,-0.6368,0.0,0.0,0.0,0.0,0.0,0.0,0.0,0.0,0.0,0.0,0.0,0.0,0.0,0.0,0.0,0.0,0.0,0.0,0.0,0.0,0.0,0.0,0.0,0.0,0.0,0.0,0.0,0.0,0.0,0.0,0.0,0.0,0.0,0.0,0.0,0.0,0.0,0.0,0.0,0.0,0.0,0.0,0.0,0.0,0.0,0.0,0.0,0.0,0.0,0.0,0.0,0.0,0.0,0.0,0.0,0.0,0.0,0.0,0.0,0.0,0.0,0.0,0.0,0.0,0.0,0.0,0.0,0.0,0.0,0.0,0.0,0.0,0.0,0.0,0.0,0.0,0.0,0.0,0.0,0.0,0.0,0.0,0.0,0.0,0.0,0.0,0.0,0.0,0.0,0.0,0.0,0.0,0.0,0.0,0.0,0.0,0.0,0.0,0.0,0.0,0.0,0.0,0.0,0.0,-0.1063,-0.3771,-0.4336,-0.5606,-0.8137,-0.7685,-0.6987,-0.634,0.0,0.0,0.0,0.0,0.0,0.0,0.0,0.0,0.0,0.0,0.0,0.0,0.0,0.0,0.0,0.0,0.0,0.0,0.0,0.0,0.0,0.0,0.0,0.0,0.0,0.0,0.0,0.0,0.0,0.0,0.0,0.0,0.0,0.0,0.0,0.0,0.0,0.0,0.0,0.0,0.0,0.0,0.0,0.0,0.0,0.0,0.0,0.0,0.0,0.0,0.0,0.0,0.0,0.0,0.0,0.0,0.0,0.0,0.0,0.0,0.0,0.0,0.0,0.0,0.0,0.0,0.0,0.0,0.0,0.0,0.0,0.0,0.0,0.0,0.0,0.0,0.0,0.0,0.0,0.0,0.0,0.0,0.0,0.0,0.0,0.0,0.0,0.0,0.0,0.0,0.0,0.0,0.0,0.0,0.0,0.0,0.0,0.0,0.0,0.0,0.0,0.0,0.0,0.0,-0.0816,-0.2914,-0.3675,-0.4878,-0.6884,-0.7103,-0.6809,-0.6179,-0.584,0.0,0.0,0.0,0.0,0.0,0.0,0.0,0.0,0.0,0.0,0.0,0.0,0.0,0.0,0.0,0.0,0.0,0.0,0.0,0.0,0.0,0.0,0.0,0.0,0.0,0.0,0.0,0.0,0.0,0.0,0.0,0.0,0.0,0.0,0.0,0.0,0.0,0.0,0.0,0.0,0.0,0.0,0.0,0.0,0.0,0.0,0.0,0.0,0.0,0.0,0.0,0.0,0.0,0.0,0.0,0.0,0.0,0.0,0.0,0.0,0.0,0.0,0.0,0.0,0.0,0.0,0.0,0.0,0.0,0.0,0.0,0.0,0.0,0.0,0.0,0.0,0.0,0.0,0.0,0.0,0.0,0.0,0.0,0.0,0.0,0.0,0.0,0.0,0.0,0.0,0.0,0.0,0.0,0.0,0.0,0.0,0.0,0.0,0.0,0.0,0.0,0.0,0.0,-0.0539,-0.2019,-0.2959,-0.4199,-0.5758,-0.6293,-0.6357,-0.5979,-0.5521,0.0,0.0,0.0,0.0,0.0,0.0,0.0,0.0,0.0,0.0,0.0,0.0,0.0,0.0,0.0,0.0,0.0,0.0,0.0,0.0,0.0,0.0,0.0,0.0,0.0,0.0,0.0,0.0,0.0,0.0,0.0,0.0,0.0,0.0,0.0,0.0,0.0,0.0,0.0,0.0,0.0,0.0,0.0,0.0,0.0,0.0,0.0,0.0,0.0,0.0,0.0,0.0,0.0,0.0,0.0,0.0,0.0,0.0,0.0,0.0,0.0,0.0,0.0,0.0,0.0,0.0,0.0,0.0,0.0,0.0,0.0,0.0,0.0,0.0,0.0,0.0,0.0,0.0,0.0,0.0,0.0,0.0,0.0,0.0,0.0,0.0,0.0,0.0,0.0,0.0,0.0,0.0,0.0,0.0,0.0,0.0,0.0,0.0,0.0,0.0,0.0,0.0,0.0,-0.0504,-0.1853,-0.211,-0.3066,-0.5431,-0.5163,-0.5134,-0.5775,-0.527,0.0,0.0,0.0,0.0,0.0,0.0,0.0,0.0,0.0,0.0,0.0,0.0,0.0,0.0,0.0,0.0,0.0,0.0,0.0,0.0,0.0,0.0,0.0,0.0,0.0,0.0,0.0,0.0,0.0,0.0,0.0,0.0,0.0,0.0,0.0,0.0,0.0,0.0,0.0,0.0,0.0,0.0,0.0,0.0,0.0,0.0,0.0,0.0,0.0,0.0,0.0,0.0,0.0,0.0,0.0,0.0,0.0,0.0,0.0,0.0,0.0,0.0,0.0,0.0,0.0,0.0,0.0,0.0,0.0,0.0,0.0,0.0,0.0,0.0,0.0,0.0,0.0,0.0,0.0,0.0,0.0,0.0,0.0,0.0,0.0,0.0,0.0,0.0,0.0,0.0,0.0,0.0,0.0,0.0,0.0,0.0,0.0,0.0,0.0,0.0,0.0,0.0,0.0,-0.0172,0.0,-0.1491,-0.2312,-0.3153,-0.371,-0.4187,-0.466,0.0,0.0,0.0,0.0,0.0,0.0,0.0,0.0,0.0,0.0,0.0,0.0,0.0,0.0,0.0,0.0,0.0,0.0,0.0,0.0,0.0,0.0,0.0,0.0,0.0,0.0,0.0,0.0,0.0,0.0,0.0,0.0,0.0,0.0,0.0,0.0,0.0,0.0,0.0,0.0,0.0,0.0,0.0,0.0,0.0,0.0,0.0,0.0,0.0,0.0,0.0,0.0,0.0,0.0,0.0,0.0,0.0,0.0,0.0,0.0,0.0,0.0,0.0,0.0,0.0,0.0,0.0,0.0,0.0,0.0,0.0,0.0,0.0,0.0,0.0,0.0,0.0,0.0,0.0,0.0,0.0,0.0,0.0,0.0,0.0,0.0,0.0,0.0,0.0,0.0,0.0,0.0,0.0,0.0,0.0,0.0,0.0,0.0,0.0,0.0,0.0,0.0,0.0,0.0,0.0,0.0,-0.0834,-0.1448,-0.1707,-0.2412,-0.3043,-0.3557,0.0,0.0,0.0,0.0,0.0,0.0,0.0,0.0,0.0,0.0,0.0,0.0,0.0,0.0,0.0,0.0,0.0,0.0,0.0,0.0,0.0,0.0,0.0,0.0,0.0,0.0,0.0,0.0,0.0,0.0,0.0,0.0,0.0,0.0,0.0,0.0,0.0,0.0,0.0,0.0,0.0,0.0,0.0,0.0,0.0,0.0,0.0,0.0,0.0,0.0,0.0,0.0,0.0,0.0,0.0,0.0,0.0,0.0,0.0,0.0,0.0,0.0,0.0,0.0,0.0,0.0,0.0,0.0,0.0,0.0,0.0,0.0,0.0,0.0,0.0,0.0,0.0,0.0,0.0,0.0,0.0,0.0,0.0,0.0,0.0,0.0,0.0,0.0,0.0,0.0,0.0,0.0,0.0,0.0,0.0,0.0,0.0,0.0,0.0,0.0,0.0,0.0,0.0,0.0,0.0,0.0,0.0,-0.0427,-0.1507,-0.1263,-0.1537,0.0,0.0,0.0,0.0,0.0,0.0,0.0,0.0,0.0,0.0,0.0,0.0,0.0,0.0,0.0,0.0,0.0,0.0,0.0,0.0,0.0,0.0,0.0,0.0,0.0,0.0,0.0,0.0,0.0,0.0,0.0,0.0,0.0,0.0,0.0,0.0,0.0,0.0,0.0,0.0,0.0,0.0,0.0,0.0,0.0,0.0,0.0,0.0,0.0,0.0,0.0,0.0,0.0,0.0,0.0,0.0,0.0,0.0,0.0,0.0,0.0,0.0,0.0,0.0,0.0,0.0,0.0,0.0,0.0,0.0,0.0,0.0,0.0,0.0,0.0,0.0,0.0,0.0,0.0,0.0,0.0,0.0,0.0,0.0,0.0,0.0,0.0,0.0,0.0,0.0,0.0,0.0,0.0,0.0,0.0,0.0,0.0,0.0,0.0,0.0,0.0,0.0,0.0,0.0,0.0,0.0,0.0,0.0,-0.0119,-0.0454,-0.039,-0.0686,-0.1526,0.0,0.0,0.0,0.0,0.0,0.0,0.0,0.0,0.0,0.0,0.0,0.0,0.0,0.0,0.0,0.0,0.0,0.0,0.0,0.0,0.0,0.0,0.0,0.0,0.0,0.0,0.0,0.0,0.0,0.0,0.0,0.0,0.0,0.0,0.0,0.0,0.0,0.0,0.0,0.0,0.0,0.0,0.0,0.0,0.0,0.0,0.0,0.0,0.0,0.0,0.0,0.0,0.0,0.0,0.0,0.0,0.0,0.0,0.0,0.0,0.0,0.0,0.0,0.0,0.0,0.0,0.0,0.0,0.0,0.0,0.0,0.0,0.0,0.0,0.0,0.0,0.0,0.0,0.0,0.0,0.0,0.0,0.0,0.0,0.0,0.0,0.0,0.0,0.0,0.0,0.0,0.0,0.0,0.0,0.0,0.0,0.0,0.0,0.0,0.0,0.0,0.0,0.0,0.0,0.0,0.0,0.0,0.0,0.0,0.0,-0.019,-0.0621,0.0,0.0,0.0,0.0,0.0,0.0,0.0,0.0,0.0,0.0,0.0,0.0,0.0,0.0,0.0,0.0,0.0,0.0,0.0,0.0,0.0,0.0,0.0,0.0,0.0,0.0,0.0,0.0,0.0,0.0,0.0,0.0,0.0,0.0,0.0,0.0,0.0,0.0,0.0,0.0,0.0,0.0,0.0,0.0,0.0,0.0,0.0,0.0,0.0,0.0,0.0,0.0,0.0,0.0,0.0,0.0,0.0,0.0,0.0,0.0,0.0,0.0,0.0,0.0,0.0,0.0,0.0,0.0,0.0,0.0,0.0,0.0,0.0,0.0,0.0,0.0,0.0,0.0,0.0,0.0,0.0,0.0,0.0,0.0,0.0,0.0,0.0,0.0,0.0,0.0,0.0,0.0,0.0,0.0,0.0,0.0,0.0,0.0,0.0,0.0,0.0,0.0,0.0128,0.0099,0.0103,0.0108,0.0036,0.0,0.0,0.0,0.0,0.0,0.0,0.0,0.0,0.0,0.0,0.0,0.0,0.0,0.0,0.0,0.0,0.0,0.0,0.0,0.0,0.0,0.0,0.0,0.0,0.0,0.0,0.0,0.0,0.0,0.0,0.0,0.0,0.0,0.0,0.0,0.0,0.0,0.0,0.0,0.0,0.0,0.0,0.0,0.0,0.0,0.0,0.0,0.0,0.0,0.0,0.0,0.0,0.0,0.0,0.0,0.0,0.0,0.0,0.0,0.0,0.0,0.0,0.0,0.0,0.0,1.175,0.0,0.0,0.0,0.0,0.0,0.0,0.0,0.0,0.0,0.0,0.0,0.0,0.0,0.0,0.0,0.0,0.0,0.0,0.0,0.0,0.0,0.0,0.0,0.0,0.0,0.0,0.0,0.0,0.0,0.0,0.0,0.0,0.0,0.0,0.0,0.0,0.0,0.0,0.0,0.0,0.0,0.1079,0.0938,0.0907,0.1014,0.0416,0.0,0.0,0.0,0.0,0.0,0.0,0.0,0.0,0.0,0.0,0.0,0.0,0.0,0.0,0.0,0.0,0.0,0.0,0.0,0.0,0.0,0.0,0.0,0.0,0.0,0.0,0.0,0.0,0.0,0.0,0.0,0.0,0.0,0.0,0.0,0.0,0.0,0.0,0.0,0.0,0.0,0.0,0.0,0.0,0.0,0.0,0.0,0.0,0.0,0.0,0.0,0.0,0.0,0.0,0.0,0.0,0.0,0.0,0.0,0.0,0.0,0.0,0.0,0.0,0.0,0.0,1.2379,0.0,0.0,0.0,0.0,0.0,0.0,0.0,0.0,0.0,0.0,0.0,0.0,0.0,0.0,0.0,0.0,0.0,0.0,0.0,0.0,0.0,0.0,0.0,0.0,0.0,0.0,0.0,0.0,0.0,0.0,0.0,0.0,0.0,0.0,0.0,0.0,0.0,0.0,0.0,0.0,0.1764,0.1766,0.1794,0.187,0.146,0.1204,0.1201,0.0798,0.0524,0.0534,0.0206,0.0,0.0,0.0,0.0,0.0,0.0,0.0,0.0,0.0,0.0,0.0,0.0,0.0,0.0,0.0,0.0,0.0,0.0,0.0,0.0,0.0,0.0,0.0,0.0,0.0,0.0,0.0,0.0,0.0,0.0,0.0,0.0,0.0,0.0,0.0,0.0,0.0,0.0,0.0,0.0,0.0,0.0,0.0,0.0,0.0,0.0,0.0,0.0,0.0,0.0,0.0,0.0,0.0,0.0,1.8621,1.8291,1.8475,1.8452,1.8116,1.6666,1.5419,1.4305,0.0,0.0,0.0,0.0,0.0,0.0,0.0,0.0,0.0,0.0,0.0,0.0,0.0,0.0,0.0,0.0,0.0,0.0,0.0,0.0,0.0,0.0,0.0,0.0,0.0,0.8195,0.8491,0.0,0.0,0.0,0.0,0.0,0.0,0.0,0.0,0.0,0.0,0.0,0.0,0.2452,0.255,0.2653,0.2702,0.2553,0.2457,0.2444,0.1726,0.1288,0.129,0.0696,0.0298,0.0,0.0,0.0,0.0,0.0,0.0,0.0,0.0,0.0,0.0,0.0,0.0,0.0,0.0,0.0,0.0,0.0,0.0,0.0,0.0,0.0,0.0,0.0,0.0,0.0,0.0,0.0,0.0,0.0,0.0,0.0,0.0,1.7129,1.7129,0.0,0.0,0.0,0.0,0.0,0.0,0.0,0.0,0.0,0.0,0.0,0.0,0.0,0.0,2.0761,2.1829,2.2427,2.2543,2.3577,2.3693,2.292,2.2934,2.2964,2.2838,2.19,0.0,1.5948,1.5396,0.0,0.0,0.0,0.0,0.0,0.0,0.0,0.0,0.0,0.0,0.0,0.0,0.0,0.0,0.0,0.0,0.0,0.0,0.0,0.0,0.0,0.0,0.9475,0.9388,0.9443,0.9514,0.0,0.7601,0.5958,0.5572,0.0,0.0,0.0,0.0,0.0,0.0,0.0,0.0,0.3474,0.329,0.3253,0.3447,0.2718,0.2228,0.2248,0.2115,0.2049,0.2054,0.1853,0.1507,0.0977,0.084,0.0,0.0,0.0,0.0,0.0,0.0,0.0,0.0,0.0,0.0,0.0,0.0,0.0,0.0,0.0,0.0,0.0,0.0,0.0,0.0,0.0,0.0,0.0,0.0,0.0,0.0,0.0,0.0,0.0,1.748,1.8184,1.7513,1.8008,1.8008,0.0,0.0,0.0,0.0,0.0,0.0,0.0,0.0,0.0,2.0723,2.1387,2.2107,2.2964,2.3828,2.4473,2.498,2.5547,2.5488,2.4883,2.4883,2.4609,2.4121,2.375,2.2272,1.9984,1.7985,1.6474,1.5231,0.0,0.0,0.0,0.0,0.0,1.2386,1.29,0.0,0.0,0.0,0.0,0.0,0.0,0.0,0.0,0.0,0.0,0.0,0.0,0.0,0.0,0.9927,1.009,1.0117,0.9782,0.8515,0.7375,0.0,0.5945,0.5054,0.5054,0.0,0.0,0.0,0.0,0.0,0.4151,0.4081,0.4124,0.4213,0.3857,0.3599,0.3606,0.3108,0.2832,0.2817,0.2303,0.1887,0.161,0.147,0.1274,0.0,0.0,0.0,0.0,0.0,0.0,0.0,0.0,0.0,0.0,0.0,0.0,0.0,0.0,0.0,0.0,0.0,0.0,0.0,0.0,0.0,0.0,0.0,0.0,0.0,0.0,0.0,0.0,1.8695,1.9355,1.8164,1.9355,1.9551,0.0,0.0,0.0,0.0,0.0,0.0,2.0703,2.125,2.1953,2.2852,2.3594,2.4375,2.5234,2.5566,2.6113,2.6875,2.6875,2.6641,2.623,2.6064,2.5644,2.4902,2.457,2.4017,2.3193,2.0402,1.8713,1.7705,1.5813,1.4972,1.4835,1.4634,1.4426,1.4365,1.49,1.4557,1.3829,1.3682,0.0,1.1754,1.0307,0.0,0.0,0.0,0.0,0.9391,0.9713,0.0,1.014,1.0207,1.0425,1.0452,0.99,0.917,0.8486,0.0,0.6826,0.5792,0.5792,0.0,0.0,0.0,0.0,0.4491,0.4491,0.4593,0.4662,0.4662,0.4662,0.4662,0.4662,0.3956,0.3523,0.3523,0.2864,0.2401,0.2228,0.211,0.1962,0.1806,0.0,0.0,0.0,0.0,0.0,0.0,0.0,0.0,0.0,0.0,0.0,0.0,0.0,0.0,0.0,0.0,0.0,0.0,0.0,0.0,0.0,0.0,0.0,0.0,0.0,0.0,0.0,0.0,0.0,1.9902,2.1619,0.0,0.0,0.0,0.0,2.0468,2.123,2.209,2.2993,2.3769,2.4629,2.546,2.5977,2.6641,2.7552,2.7571,2.7754,2.8203,2.8203,2.7969,2.7559,2.7148,2.6699,2.6211,2.4961,2.4394,2.4219,2.2438,2.119,2.0275,1.8546,1.7624,1.7205,1.6788,1.6642,1.6672,1.7097,1.6495,1.5684,1.6213,1.458,1.2078,1.0557,0.9889,0.0,0.0,0.9659,0.9726,1.002,1.007,1.018,1.0506,1.0586,1.0506,1.0167,0.9296,0.8426,0.0,0.7085,0.6534,0.6534,0.0,0.5464,0.5464,0.4897,0.4491,0.4491,0.4498,0.4505,0.4505,0.4505,0.4505,0.4505,0.4287,0.4154,0.4154,0.387,0.3446,0.2879,0.2738,0.2384,0.1806,0.1762,0.0,0.0,0.0,0.0,0.0,0.0,0.0,0.0,0.0,0.0,0.0,0.0,0.0,0.0,0.0,0.0,0.0,0.0,0.0,0.0,0.0,0.0,0.0,0.0,0.0,0.0,0.0,0.0,2.2852,2.4473,0.0,0.0,2.3203,2.3501,2.3501,2.4023,2.4629,2.5215,2.6035,2.6777,2.7363,2.7793,2.8164,2.8476,2.8203,2.8144,2.8301,2.8301,2.793,2.7246,2.709,2.6484,2.5556,2.5039,2.4531,2.3965,2.3359,2.2598,2.1697,2.0543,2.0004,1.9755,1.9049,1.8781,1.8722,1.8333,1.7741,1.702,1.6122,1.4684,1.3148,1.2278,1.1311,1.0509,1.0682,1.0356,1.0033,1.0358,1.0439,1.0452,1.0559,1.0586,1.0466,0.994,0.9548,0.9128,0.8536,0.7423,0.675,0.7235,0.6686,0.6199,0.6199,0.5601,0.5136,0.5136,0.4759,0.4491,0.4491,0.4491,0.445,0.4308,0.4247,0.4153,0.4085,0.3907,0.3698,0.348,0.3355,0.317,0.297,0.2588,0.2384,0.0,0.0,0.0,0.0,0.0,0.0,0.0,0.0,0.0,0.0,0.0,0.0,0.0,0.0,0.0,0.0,0.0,0.0,0.0,0.0,0.0,0.0,0.0,0.0,0.0,0.0,2.5705,2.5591,2.6804,2.6973,2.5254,2.5723,2.6152,2.6152,2.6426,2.6797,2.7226,2.7656,2.8008,2.8281,2.8555,2.8711,2.8711,2.8437,2.8301,2.8301,2.8301,2.793,2.7226,2.709,2.6465,2.5488,2.5039,2.4531,2.3984,2.3691,2.3242,2.2676,2.2068,2.1756,2.1561,2.1016,2.0605,2.0177,1.9163,1.8672,1.8149,1.6249,1.5165,1.4411,1.352,1.258,1.1805,1.1855,1.1481,1.104,1.0863,1.0899,1.0909,1.0407,1.0372,1.0278,0.9659,0.9539,0.9392,0.8898,0.8023,0.7503,0.7996,0.745,0.6966,0.6966,0.6335,0.5873,0.5873,0.5492,0.5117,0.4869,0.4842,0.4674,0.4233,0.4194,0.4132,0.393,0.3846,0.3771,0.3724,0.3651,0.3604,0.3604,0.3214,0.2898,0.2694,0.0,0.0,0.0,0.0,0.0,0.0,0.0,0.0,0.0,0.0,0.0,0.0,0.0,0.0,0.0,0.0,0.0,0.0,0.0,0.0,0.0,0.0,0.0,2.7669,2.8144,2.8401,2.8099,2.8612,2.8359,2.668,2.7656,2.8359,2.8359,2.834,2.8496,2.8906,2.8535,2.832,2.834,2.832,2.832,2.834,2.8301,2.8281,2.8281,2.8281,2.8047,2.7669,2.7187,2.6758,2.625,2.498,2.4394,2.4316,2.3432,2.3101,2.3101,2.3101,2.2847,2.2519,2.25,2.1892,2.0976,1.9727,1.9277,1.8935,1.6804,1.613,1.58,1.4168,1.3663,1.3549,1.3169,1.3009,1.2744,1.163,1.1571,1.1478,1.01,0.9959,0.994,0.9365,0.9204,0.9124,0.8871,0.8804,0.8804,0.8804,0.8209,0.7717,0.7717,0.7101,0.0,0.6642,0.6615,0.6308,0.5565,0.5511,0.5147,0.4312,0.422,0.4085,0.3859,0.3832,0.3747,0.361,0.3626,0.3626,0.3604,0.3604,0.3309,0.2694,0.0,0.0,0.0,0.0,0.0,0.0,0.0,0.0,0.0,0.0,0.0,0.0,0.0,0.0,0.0,0.0,0.0,0.0,0.0,0.0,0.0,0.0,3.24,3.1427,3.0736,3.0737,3.173,3.1236,3.0508,2.9726,2.998,3.0039,2.9707,2.9394,2.9121,2.8926,2.8809,2.8887,2.9219,2.8906,2.8906,2.9219,2.8594,2.8144,2.7832,2.7832,2.7461,2.6738,2.6621,2.5977,2.4941,2.457,2.4062,2.3432,2.3198,2.3101,2.3101,2.3101,2.2847,2.248,2.2168,2.1309,2.0176,1.9512,1.9082,1.8582,1.7441,1.6823,1.6395,1.5626,1.4793,1.4008,1.3902,1.3463,1.2866,1.2239,1.2164,1.2057,1.1311,1.0839,1.0451,1.0075,0.9591,0.9124,0.8871,0.8804,0.8804,0.8804,0.8619,0.8513,0.8513,0.7863,0.0,0.7396,0.6939,0.6308,0.5565,0.5511,0.5362,0.5032,0.4426,0.4218,0.0,0.4365,0.4054,0.3626,0.3965,0.4008,0.3604,0.3604,0.3309,0.0,0.0,0.0,0.0,0.0,0.0,0.0,0.0,0.0,0.0,0.0,0.0,0.0,0.0,0.0,0.0,0.0,0.0,0.0,0.0,0.0,0.0,3.4248,3.6123,3.6283,3.5051,3.4521,3.5592,3.434,3.3339,3.3069,3.2882,3.2654,3.2363,3.137,3.0636,3.0374,2.9431,2.9043,2.9297,2.8887,2.8769,2.9023,2.8535,2.8086,2.7728,2.7728,2.7226,2.6387,2.6191,2.5586,0.0,2.4316,2.3867,2.3398,2.3179,2.3101,0.0,0.0,0.0,0.0,0.0,2.1133,2.0313,1.957,1.9121,1.8769,1.793,1.748,1.7116,1.6523,1.5815,1.5184,1.4829,1.4362,1.3856,1.3148,1.3078,1.291,1.1864,1.14,1.0994,1.0249,0.9758,0.9314,0.8884,0.0,0.0,0.8804,0.8804,0.8804,0.8804,0.8421,0.8156,0.8156,0.7783,0.7235,0.6497,0.6416,0.6248,0.5812,0.5251,0.0,0.0,0.0,0.4701,0.4316,0.4373,0.0,0.0,0.0,0.342,0.0,0.0,0.0,0.0,0.1673,0.1133,0.0,0.0,0.0,0.0,0.0,0.0,0.0,0.0,0.0,0.0,0.0,0.0,0.0,0.0,0.0,0.0,3.6935,3.912,4.1175,3.9951,3.894,3.9181,3.7422,3.6151,3.6084,3.5635,3.5288,3.5288,3.3615,3.2585,3.2419,0.0,0.0,0.0,0.0,2.8379,2.8437,2.834,2.8153,2.7838,2.7702,2.7212,2.6428,2.5889,2.5391,2.493,2.4121,2.3769,2.3691,2.3257,2.3062,2.3023,2.2964,2.2773,2.2344,2.1444,2.1093,0.0,0.0,0.0,0.0,1.8281,1.7969,1.7793,1.6999,1.6707,1.6453,1.5703,1.5449,1.5168,1.4174,1.4092,1.387,1.2188,1.1883,1.1644,1.0379,0.9991,0.9718,0.9028,0.891,0.8883,0.8804,0.8804,0.8804,0.8804,0.8804,0.8804,0.8804,0.8804,0.8513,0.7783,0.0,0.0,0.6618,0.6334,0.6127,0.5919,0.5672,0.5495,0.5404,0.4822,0.4496,0.4496,0.3965,0.3685,0.3685,0.3626,0.3604,0.3581,0.2433,0.1606,0.0,0.0,0.0,0.0,0.0,0.0,0.0,0.0,0.0,0.0,0.0,0.0,0.0,0.0,0.0,3.701,3.9245,4.1153,4.2484,4.2338,4.1558,4.0018,3.7895,3.6453,3.6129,3.5635,3.5288,3.5288,3.4601,3.3683,3.2475,3.1642,0.0,2.9998,2.9199,2.8965,2.9316,2.8633,2.8396,2.859,0.0,0.0,2.6786,2.569,2.4766,2.4023,2.3867,2.3594,2.3218,2.314,2.2906,2.2598,2.2266,2.207,2.1894,2.1016,2.0469,2.0078,1.9492,1.9062,1.8637,1.8184,1.7773,1.748,1.7305,1.6758,0.0,1.6007,1.5684,1.5284,1.4742,1.4647,1.4495,1.3765,1.2974,1.2307,1.2044,1.1259,1.0423,0.9744,0.9614,0.9432,0.8883,0.8804,0.8804,0.8804,0.8804,0.8804,0.8804,0.8804,0.8513,0.7783,0.7691,0.7626,0.7461,0.6774,0.6599,0.7114,0.6213,0.5766,0.6019,0.5437,0.5135,0.5135,0.4548,0.4242,0.4242,0.3818,0.3604,0.3581,0.2854,0.2472,0.0,0.0,0.0,0.0,0.0,0.0,0.0,0.0,0.0,0.0,0.0,3.1512,0.0,0.0,3.7086,3.932,4.0852,4.1932,4.2539,4.2615,4.2338,4.1563,4.0266,3.9268,3.8768,3.8244,3.7762,3.7501,3.6577,3.5604,3.4603,3.3438,3.2427,3.1638,3.0967,3.0399,2.9971,2.9303,2.8942,2.8773,2.7991,2.7344,2.6886,2.6059,2.5017,2.3769,2.3555,2.334,2.3101,2.3101,2.2964,2.2711,2.2129,2.1758,2.1484,2.084,2.0468,2.0156,1.9512,1.9141,1.8867,1.8223,1.7871,1.7617,1.7187,1.6758,1.6309,1.5859,1.5586,1.5371,1.5156,1.4941,1.4668,1.4211,1.3547,1.2849,1.2277,1.1682,1.1091,1.0432,1.0295,1.009,0.9406,0.9588,0.9562,0.891,0.8804,0.8804,0.8804,0.8804,0.8672,0.8289,0.8235,0.8235,0.8235,0.7715,0.7424,0.7494,0.6927,0.6675,0.684,0.6129,0.5815,0.5936,0.5227,0.4843,0.4843,0.4286,0.4008,0.3987,0.3413,0.2987,0.0,0.0,0.0,0.0,0.0,0.0,0.0,0.0,3.0934,3.1587,3.2968,3.46,3.6556,3.7839,3.932,4.1275,4.2032,4.2363,4.2363,4.2288,4.2338,4.261,4.2183,4.1656,4.1175,4.0676,4.0174,3.9722,3.8582,3.758,3.6716,3.5224,3.3982,3.3123,3.2683,3.1885,3.0669,3.0274,2.9842,2.9412,2.8806,2.8241,2.7597,2.6922,2.5719,2.4108,2.3652,2.343,2.343,2.343,2.3371,2.3232,2.246,2.1765,2.1132,2.0742,2.0546,2.037,1.9551,1.9238,1.9043,1.8262,1.8008,1.7871,1.7058,1.6765,1.6531,1.5762,1.5469,1.541,1.541,1.5156,1.4824,1.4445,1.4062,1.3478,1.2443,1.2195,1.1922,1.1133,1.099,1.0788,1.0115,1.0432,1.0397,0.9185,0.8989,0.8989,0.8989,0.8883,0.8804,0.8804,0.8804,0.8804,0.8804,0.8591,0.8255,0.7705,0.7665,0.7638,0.7584,0.6853,0.6552,0.6758,0.5925,0.548,0.548,0.4865,0.4517,0.4387,0.3965,0.3435,2.8549,2.8097,2.8574,3.0532,3.0758,3.126,0.0,0.0,3.4474,3.555,3.6634,3.7688,3.8492,3.9898,4.1354,4.2585,4.2836,4.2886,4.2886,4.2514,4.2007,4.158,4.1028,4.0676,4.0626,4.0099,3.9747,3.9697,3.9517,3.8622,3.682,3.6464,3.5503,3.3562,3.3146,3.2626,3.1999,3.1562,3.1385,3.1529,3.0345,2.9942,3.0134,2.8447,2.6868,2.5371,2.4826,2.4617,2.4617,2.4617,2.4388,2.4012,2.3369,2.2372,2.1132,2.0742,2.0332,1.9922,1.9453,1.9043,1.8598,1.8164,1.8008,1.793,1.7461,1.7031,1.6609,1.6163,1.5703,1.541,1.541,1.5371,1.5332,1.5273,1.4941,1.4531,1.3975,1.3562,1.2998,1.1886,1.169,1.1491,1.0788,1.0737,1.0534,0.9795,0.9692,0.9692,0.9692,0.9159,0.8804,0.8804,0.8804,0.8804,0.8804,0.8778,0.8617,0.8322,0.8295,0.815,0.7859,0.7543,0.7361,0.7401,0.6547,0.6093,0.6093,0.5502,0.493,0.4387,0.4343,0.4023,2.9829,3.0256,0.0,0.0,3.2692,3.3803,3.5182,3.5604,3.5981,3.7086,3.8216,3.917,3.9722,4.0927,4.1957,0.0,4.2816,4.276,4.2108,4.1831,4.1229,4.0049,3.9697,3.9798,4.045,4.03,4.0049,3.9722,3.9396,3.869,3.7538,3.7144,3.6478,3.5276,3.5086,3.4335,3.2964,3.2551,3.2183,3.1871,3.1086,3.0498,3.0095,2.9347,2.7941,2.6123,2.5884,2.5797,2.5797,2.5797,2.5688,2.5467,2.4621,2.3932,2.3263,2.1909,2.0929,2.0195,1.9512,1.916,1.8906,1.8223,1.8008,1.793,1.75,1.7246,1.6973,1.63,1.5968,1.5723,1.5469,1.5234,1.5039,1.5039,1.4727,1.4328,1.4153,1.3782,1.3361,1.2865,1.2613,1.2296,1.1858,1.1919,1.1872,1.1438,1.0808,1.0397,1.0397,0.9795,0.9237,0.8831,0.8804,0.8804,0.8804,0.8804,0.8684,0.8415,0.8402,0.8348,0.819,0.7745,0.7571,0.7736,0.7028,0.6668,0.6668,0.6103,0.5696,0.5437,0.5091,0.4613,3.1035,0.0,0.0,3.3269,3.4801,3.621,3.6386,3.701,3.7688,3.8341,3.912,3.9848,4.0425,4.1153,0.0,4.2162,4.2359,4.2233,4.1401,4.1025,4.0375,3.9044,3.8718,3.8944,3.9747,3.9823,3.9798,3.9697,3.917,3.8617,3.804,3.7638,3.7086,3.643,3.6405,3.5583,3.3859,3.352,3.2989,3.2223,3.1882,3.139,3.0683,3.0073,2.8774,2.6912,2.6912,2.6912,2.6912,2.6912,2.6912,2.6821,2.5818,2.5237,2.4831,2.336,2.2038,2.0814,1.9701,1.9297,1.9141,1.8281,1.8008,1.793,1.75,1.7383,1.7259,1.6496,1.6183,1.6026,1.5664,1.5273,1.4961,1.4961,1.4727,1.4426,1.4309,1.4062,1.3789,1.3555,1.3262,1.2995,1.2798,1.2941,1.2995,1.2816,1.2065,1.1412,1.1133,1.0483,0.9806,0.9133,0.908,0.908,0.908,0.891,0.8789,0.8777,0.8611,0.8523,0.8523,0.8013,0.7812,0.7899,0.7393,0.7086,0.7006,0.6605,0.6349,0.6179,0.5739,0.5221,0.0,0.0,3.2893,3.5625,3.7086,3.809,3.8642,3.9622,4.0249,3.9747,3.9672,3.9848,4.0425,4.0551,4.0902,4.2037,4.1731,4.1326,4.13,4.0425,3.9521,3.8994,3.8366,3.804,0.0,3.809,3.8542,3.9622,3.917,3.8617,3.804,3.799,3.7487,3.643,3.6405,3.583,3.466,3.4635,3.4129,3.305,3.3025,3.3025,3.295,3.0773,2.9148,2.8044,2.8044,2.8044,2.8044,2.8044,2.8044,2.7949,2.6851,2.5877,2.4986,2.4938,2.3672,2.1724,1.9939,1.9297,1.9141,1.8281,1.8008,1.793,1.75,1.7383,1.7285,1.6804,1.6406,1.6085,1.6065,1.5723,1.5391,1.5391,1.5391,1.5254,1.4844,1.4793,1.4492,1.3672,1.3496,1.3471,1.3471,1.3471,1.3471,1.3471,1.3445,1.3017,1.1918,1.1191,1.0509,0.9832,0.9769,0.9769,0.9769,0.9185,0.908,0.9729,0.9145,0.8791,0.8791,0.8536,0.8216,0.7912,0.7615,0.733,0.7006,0.6985,0.6711,0.62,0.6179,0.5857,0.0,0.0,3.5906,3.7662,3.8868,3.9722,3.9923,4.0249,4.0249,3.9346,3.8843,3.8417,3.7864,3.8366,3.8969,3.9346,4.0199,4.0802,4.0802,4.0475,3.9747,3.8442,3.8115,0.0,0.0,0.0,0.0,3.8542,3.8391,3.804,3.7487,3.7462,3.7136,3.643,3.6405,3.6006,3.5232,3.4856,3.4349,3.3621,3.2867,3.2315,3.1938,3.0819,2.9939,2.9248,2.9248,2.9248,2.9248,2.9248,2.8987,2.8568,2.7853,2.7152,2.6408,2.5385,2.4354,2.3157,2.1047,2.0303,2.0159,1.9185,1.8844,1.8824,1.8713,1.8652,1.8438,1.7428,1.7051,1.6829,1.6242,1.5987,1.5811,1.5488,1.541,1.5371,1.5234,1.498,1.4707,1.4414,1.4121,1.3997,1.4316,1.4121,1.3802,1.3555,1.3262,1.2805,1.1907,1.1591,1.1216,1.0534,1.0458,1.0458,1.0458,1.0269,1.0038,0.9806,0.9588,0.9263,0.8804,0.8524,0.823,0.7912,0.7651,0.7343,0.7006,0.7006,0.6909,0.6732,0.6732,0.6435,3.4675,3.6584,3.8442,3.9948,4.0727,4.1053,4.0852,4.0501,3.9848,3.8542,3.7663,3.686,3.5931,3.6182,3.6659,3.7061,3.7864,3.8718,3.9521,3.9295,3.8868,3.8366,3.814,0.0,0.0,0.0,0.0,3.799,3.7814,3.7563,3.7211,3.7186,3.6935,3.643,3.6405,3.6107,3.5508,3.4956,3.4349,3.3596,3.2667,3.1913,3.1361,3.0859,3.0306,2.9804,2.9804,2.9804,2.9804,2.9804,2.9453,2.8838,2.8323,2.777,2.7147,2.5977,2.5328,2.464,2.2119,2.1094,2.0814,2.0006,1.9748,1.9748,1.9748,1.9748,1.9586,1.8757,1.8409,1.8077,1.7203,1.688,1.6598,1.5831,1.5851,1.5929,1.5508,1.5396,1.5299,1.4861,1.457,1.4453,1.4746,1.4551,1.4277,1.4004,1.3477,1.2879,1.2264,1.2178,1.1931,1.1241,1.1166,1.1166,1.1166,1.0939,1.0712,1.0534,1.0295,0.9858,0.9185,0.9004,0.8572,0.7912,0.7907,0.7628,0.7006,0.7217,0.7217,0.7006,0.7006,0.6816,3.7939,3.9421,4.04,4.2509,4.2665,4.2032,4.1351,4.04,3.912,3.7387,3.6132,3.5132,0.0,0.0,3.4173,3.5232,3.5082,3.5604,3.7789,3.7211,3.7136,0.0,0.0,0.0,0.0,0.0,0.0,3.7965,0.0,3.7186,3.7136,3.7161,3.6935,3.643,3.6405,3.6107,3.5533,3.4956,3.4173,3.3119,3.2541,3.1964,3.1361,3.0884,3.0331,2.9804,2.9804,2.9804,2.9804,2.9804,2.9453,2.8838,2.8323,2.777,2.7253,2.67,2.6474,2.6034,2.3143,2.1767,2.1263,2.0812,2.0655,2.0655,2.0655,2.0655,2.0655,2.0623,2.0286,1.9749,1.8881,1.8353,1.7758,1.6517,1.6727,1.6909,1.5751,1.6054,1.6216,1.5107,1.488,1.4824,1.4824,1.4805,1.4813,1.4813,1.4062,1.3359,1.2993,1.2915,1.2632,1.1913,1.1864,1.1864,1.1864,1.1266,1.1166,1.1765,1.1191,1.0534,0.9884,0.9858,0.9256,0.8007,0.8499,0.8206,0.7077,0.7655,0.7635,0.7035,0.7035,0.7027,3.9597,4.1404,4.2886,4.3463,4.3162,4.2308,4.0526,3.9245,3.7739,3.5253,3.3847,3.2641,0.0,0.0,0.0,3.4148,3.5579,0.0,3.9019,3.9019,0.0,0.0,0.0,3.8492,3.804,3.7889,0.0,0.0,3.7487,3.7059,3.6631,3.696,3.6935,3.643,3.6405,3.6355,3.6157,3.5203,3.4374,3.3696,3.3119,3.234,3.1386,3.126,3.0683,2.9804,2.9804,2.9804,2.9804,2.9804,2.9453,2.8838,2.8323,2.777,2.7253,2.67,2.6223,2.5645,2.4484,2.3583,2.277,2.1846,2.1565,2.1565,2.1565,2.1565,2.1416,2.0782,2.0501,2.029,1.9723,1.9218,1.8673,1.8043,1.7707,1.74,1.7101,1.7191,1.7086,1.6223,1.5607,1.5254,1.5254,1.5,1.4813,1.4813,1.4062,1.3477,1.3359,1.3091,1.2822,1.2632,1.2608,1.2608,1.2608,1.2461,1.2197,1.1814,1.1641,1.1241,1.0559,1.0534,1.0138,0.9252,0.9374,0.9062,0.8259,0.8419,0.8214,0.7655,0.7655,0.7426,4.1831,4.3413,4.4468,4.4217,4.3564,4.2258,3.9572,3.7914,3.6081,3.3068,3.1763,0.0,0.0,0.0,0.0,0.0,0.0,0.0,3.7914,3.8442,3.8743,0.0,3.922,0.0,3.8768,3.8517,3.8391,0.0,3.7638,3.7061,3.6782,3.6784,3.6732,3.6405,3.6405,3.6179,3.5655,3.5027,3.4324,3.352,3.2717,3.2014,3.1361,3.0909,3.0357,2.9804,0.0,2.9804,2.9804,2.9804,2.9453,2.8838,2.8323,2.777,2.7253,2.67,2.6298,2.5862,2.5084,2.4484,2.3872,2.2799,2.2427,2.2427,2.2427,2.2427,2.231,2.1822,2.1698,2.1534,2.0943,2.055,2.0067,1.9005,1.8743,1.8583,1.8098,1.8038,1.777,1.6708,1.6169,1.5787,1.5468,1.5215,1.5059,1.5059,1.4336,1.3763,1.3763,1.3262,1.2915,1.2915,1.2915,1.2915,1.2915,1.2915,1.2725,1.232,1.2295,1.1981,1.1266,1.1062,1.0583,0.9734,0.9771,0.9422,0.8704,0.893,0.8785,0.8255,0.8255,0.7946,4.4192,4.5271,4.5547,4.4895,4.379,4.1982,3.8567,3.6458,3.4229,3.0959,0.0,2.9227,2.8097,0.0,2.9389,3.0633,0.0,3.352,3.6355,3.7159,3.799,3.9521,3.9697,3.9697,3.9697,3.927,3.8994,3.8919,3.7889,3.7262,3.7186,3.6707,3.638,3.6304,3.6304,3.5755,3.4726,3.465,3.4123,3.3169,3.2039,3.1461,3.1361,3.0357,2.9854,2.9804,0.0,0.0,2.9804,2.9804,2.9503,2.8938,2.8348,2.7821,2.7318,2.6725,2.6449,2.6248,2.5259,2.48,2.4499,2.3446,2.3095,2.3095,2.3095,2.3095,2.3095,2.3095,2.3095,2.2944,2.2249,2.2015,2.1544,1.9913,1.9954,2.0108,1.9091,1.8861,1.8433,1.716,1.6779,1.6454,1.5796,1.568,1.568,1.568,1.5004,1.4467,1.4467,1.3564,1.2915,1.2915,1.2915,1.2915,1.2915,1.2915,1.2915,1.2915,1.2915,1.2608,1.1981,1.161,1.0971,0.9967,1.0061,0.975,0.8994,0.9406,0.9366,0.8893,0.8842,0.8521,4.5773,4.6426,4.6602,4.5598,4.3815,4.1358,3.7538,3.5027,0.0,0.0,0.0,2.8072,2.6977,2.8323,0.0,3.1687,0.0,0.0,0.0,0.0,3.8868,0.0,0.0,0.0,0.0,0.0,0.0,0.0,0.0,0.0,3.7211,3.6707,3.6157,3.5658,3.5633,3.5332,3.4726,3.4274,3.3947,3.3746,3.2616,3.1838,3.1361,3.0758,3.0231,2.9804,0.0,0.0,2.9804,2.9804,2.9729,2.9528,2.8499,2.8047,2.7846,2.6876,2.6197,2.5711,2.5536,2.4883,2.4029,2.3321,2.3095,2.3095,2.3095,2.3095,2.3095,2.3095,2.3095,2.3065,2.2914,2.2536,2.2163,2.1819,2.1481,2.1219,2.1008,2.0152,1.9353,1.9104,1.8175,1.7385,1.7246,1.7219,1.7219,1.7219,1.6791,1.6493,1.6493,1.4382,1.2915,1.2915,1.2915,1.2915,1.2915,1.2915,1.2915,1.2915,1.2915,1.2847,1.2725,1.2648,1.2176,1.1299,1.1291,1.106,1.0534,1.0291,1.0052,0.9852,0.9531,0.907,4.5999,4.6502,4.6451,4.5321,4.3162,4.0224,3.6056,0.0,0.0,0.0,0.0,2.7128,2.66,0.0,0.0,0.0,0.0,0.0,0.0,0.0,0.0,0.0,0.0,0.0,0.0,0.0,0.0,0.0,0.0,0.0,3.7186,3.6707,3.6107,3.5508,3.5508,3.5107,3.4299,3.4022,3.3596,3.3018,3.219,3.1512,3.0959,3.0432,3.003,2.9804,2.9804,0.0,2.9804,2.9804,2.9804,2.9679,2.8549,2.8097,2.7971,2.6901,2.6323,2.6047,2.5711,2.5084,2.4381,2.4073,2.3572,2.3095,2.3095,2.3095,2.3095,2.3095,2.3095,2.3095,2.3095,2.292,2.2644,2.2372,2.2096,2.1845,2.1543,2.1241,2.073,1.9781,1.9061,1.8419,1.7733,1.7605,1.7605,1.7605,1.7256,1.6905,1.6609,1.5238,1.4122,1.3805,1.3528,1.3238,1.292,1.2915,1.2915,1.2915,1.2915,1.2915,1.2915,1.2656,1.2344,1.1914,1.1702,1.1486,1.1271,1.1076,1.0834,1.0526,1.0318,0.983,4.5748,4.6301,4.62,4.4945,4.2459,3.922,3.4876,3.2114,0.0,0.0,2.6499,2.6499,2.6499,0.0,0.0,0.0,0.0,0.0,0.0,0.0,0.0,0.0,0.0,0.0,0.0,0.0,0.0,0.0,0.0,0.0,0.0,3.6433,3.5881,3.5182,3.5157,3.468,3.3746,3.3596,3.3093,3.2215,3.1537,3.1009,3.0608,3.0055,2.9804,2.9804,2.9804,0.0,0.0,2.9804,2.9804,2.9704,2.8674,2.8222,2.7971,2.7027,2.6524,2.6273,2.5887,2.5285,2.4625,2.475,2.4023,2.312,2.3246,2.3195,2.3095,2.3095,2.3095,2.3095,2.3095,2.3095,2.2995,2.2569,2.2468,2.2372,2.192,2.2096,2.1873,2.0447,2.0093,1.9682,1.8626,1.8327,1.8258,1.8258,1.7897,1.7462,1.7021,1.6561,1.5974,1.5252,1.4464,1.3766,1.3142,1.3089,1.3041,1.2895,1.2915,1.2915,1.2915,1.2559,1.2301,1.2203,1.1875,1.1721,1.1721,1.1645,1.1447,1.117,1.0996,1.0499,4.5372,4.6301,4.6677,4.5045,4.2183,3.8743,3.4801,0.0,0.0,2.6977,2.6499,2.6499,2.6499,2.6952,2.7846,0.0,0.0,0.0,0.0,0.0,0.0,0.0,0.0,0.0,0.0,0.0,0.0,0.0,0.0,0.0,0.0,3.5608,3.5082,3.4073,3.4048,3.3771,3.3169,3.2641,3.2315,3.2215,3.116,3.0658,3.0608,3.0055,2.9804,2.9804,0.0,0.0,0.0,2.9804,2.9804,2.9729,2.9101,2.8512,2.8021,2.7419,2.6565,2.5737,2.6248,2.5393,2.4155,2.4625,2.4023,2.3195,2.3753,2.3521,2.3095,2.3095,2.3095,2.3095,2.3095,2.3095,2.3095,2.3045,2.302,2.302,2.297,2.2594,2.2243,2.2085,2.1659,2.1281,2.1176,2.0752,2.0428,2.0428,1.993,1.9506,1.9481,1.9008,1.8265,1.7193,1.5589,1.4376,1.3768,1.3721,1.3481,1.292,1.2915,1.2915,1.2915,1.2856,1.2637,1.2223,1.2164,1.2145,1.2145,1.178,1.178,1.2067,1.1268,1.0838,4.3564,4.4769,4.5296,4.3966,4.0877,3.7337,3.4148,0.0,2.8323,2.6826,2.6499,2.6499,2.6499,2.6675,2.7253,0.0,0.0,0.0,0.0,0.0,0.0,0.0,0.0,0.0,0.0,0.0,0.0,0.0,0.0,0.0,0.0,3.4831,3.4655,3.3922,3.3897,3.347,3.2566,3.2315,3.1888,3.1235,3.0809,3.0432,3.0105,2.9905,2.9804,2.9804,0.0,0.0,0.0,2.9804,2.9804,2.9729,2.9151,2.8562,2.8047,2.7494,2.6826,2.6172,2.6424,2.5845,2.5008,2.5209,2.4556,2.3627,2.3496,2.3296,2.3095,2.3095,2.3095,2.3095,2.3095,2.3095,2.3095,2.3095,2.3095,2.3095,2.3095,2.292,2.2669,2.2343,2.2121,2.187,2.1543,2.1069,2.0691,2.0691,2.0189,1.9685,1.9359,1.9133,1.8709,1.7919,1.655,1.536,1.4421,1.4003,1.3718,1.3457,1.3433,1.3433,1.3433,1.3433,1.3351,1.3167,1.2807,1.2617,1.2617,1.2465,1.2305,1.2184,1.1582,1.1173,4.1304,4.2936,4.384,4.2559,3.9572,3.6254,0.0,0.0,2.7795,2.6725,2.6499,2.6499,2.6499,2.6499,2.6851,0.0,0.0,0.0,0.0,0.0,0.0,0.0,0.0,0.0,0.0,0.0,0.0,0.0,0.0,0.0,0.0,3.4123,3.4048,3.3671,3.3495,3.3018,3.2215,3.1913,3.1361,3.0608,3.0457,3.0181,2.9804,2.9804,2.9804,2.9804,0.0,0.0,0.0,2.9804,2.9679,2.9503,2.9076,2.8499,2.7821,2.7419,2.6977,2.6499,2.6499,2.6122,2.5561,2.541,2.4732,2.3879,2.3271,2.3095,2.3095,2.3095,2.3095,2.3095,2.3095,2.3095,2.3095,2.3095,2.3095,2.3095,2.3095,2.3095,2.2995,2.2594,2.2518,2.2418,2.2046,2.1518,2.1169,2.1169,2.0541,1.9936,1.956,1.9334,1.9033,1.8481,1.7675,1.6645,1.5314,1.4807,1.4435,1.4095,1.4073,1.4073,1.4073,1.4073,1.4073,1.4073,1.3647,1.343,1.343,1.343,1.3267,1.294,1.2328,1.1672,3.8743,4.0955,4.261,4.0953,3.8442,3.5676,0.0,3.008,2.7795,2.6725,2.6499,2.6499,2.6499,2.6499,2.6851,2.7921,0.0,0.0,0.0,0.0,0.0,0.0,0.0,0.0,0.0,0.0,0.0,0.0,0.0,0.0,0.0,0.0,3.3093,3.3136,3.2541,3.2215,3.2215,3.116,3.0633,3.0608,3.0055,2.9804,2.9804,2.9804,0.0,0.0,0.0,0.0,0.0,2.9804,2.9453,2.8888,2.8888,2.8247,2.7329,2.7293,2.6977,2.6499,2.6499,2.6122,2.5511,2.4983,2.4456,2.3879,2.3271,2.3095,2.3095,2.3095,2.3095,2.3095,2.3095,2.3095,2.3095,2.3095,2.3095,2.3095,2.3095,2.3095,2.3095,2.3095,2.3095,2.3095,2.3095,2.2619,2.2297,2.2297,2.1368,2.0691,2.0666,2.0137,1.9585,1.9058,1.8983,1.8264,1.6526,1.6384,1.5893,1.4766,1.4675,1.4675,1.4675,1.4675,1.4675,1.4675,1.4675,1.4675,1.4675,1.4675,1.4675,1.4653,1.3668,1.2405,3.568,3.7211,3.8241,3.7337,3.5604,3.3639,3.1587,3.0024,2.8646,2.7564,2.733,2.733,2.733,2.6884,2.6851,2.7921,2.8651,0.0,0.0,0.0,0.0,0.0,0.0,0.0,0.0,0.0,0.0,0.0,0.0,0.0,0.0,0.0,3.3111,3.3111,3.2893,3.2441,3.1662,3.1311,3.0783,3.0055,2.988,2.9804,2.9804,2.9804,0.0,0.0,0.0,0.0,0.0,2.9377,2.9063,2.8838,2.8524,2.7921,2.7293,2.7293,2.6977,2.6499,2.6499,2.6373,2.6072,2.5134,2.4675,2.4381,2.3396,2.3095,2.3095,2.3095,2.3095,2.3195,2.3627,2.3728,2.3828,2.4173,2.4249,2.4249,2.4249,2.3948,2.3728,2.3728,2.3371,2.3095,2.3095,2.2644,2.2322,2.2322,2.1395,2.0691,2.0691,2.0189,1.9736,1.9559,1.956,1.8883,1.7225,1.6662,1.61,1.5355,1.5332,1.5332,1.5332,1.5332,1.5332,1.5332,1.4903,1.4698,1.4698,1.4698,1.4564,1.4271,1.3956,1.3398,0.0,3.4424,3.5303,3.4751,3.3604,0.0,3.079,2.999,2.9288,2.8383,2.8168,2.8168,2.8168,2.7769,2.7717,2.8621,2.9459,0.0,0.0,0.0,0.0,0.0,0.0,0.0,0.0,0.0,0.0,0.0,0.0,0.0,0.0,0.0,3.356,3.3908,3.2979,3.2089,3.1411,3.0984,3.0457,2.9804,2.9804,2.9804,2.9804,0.0,0.0,0.0,0.0,0.0,0.0,2.9038,2.8637,2.8273,2.7921,2.7444,2.7002,2.7002,2.6801,2.6499,2.6499,2.6348,2.6021,2.5109,2.4499,2.4023,2.3321,2.3095,2.3095,2.3095,2.3271,2.3552,2.3904,2.4155,2.4406,2.47,2.48,2.48,2.48,2.4556,2.4255,2.4029,2.3847,2.3672,2.3471,2.3175,2.2949,2.2949,2.1995,2.132,2.132,2.079,2.0363,2.0137,2.0137,1.956,1.8129,1.7451,1.6827,1.6292,1.6073,1.593,1.593,1.593,1.593,1.593,1.5577,1.5377,1.5377,1.5377,1.5141,1.469,1.4685,1.4321,0.0,3.2432,0.0,0.0,0.0,0.0,3.0418,3.0038,0.0,2.9176,2.9097,2.9097,2.9153,2.9062,2.9191,2.9793,3.0439,0.0,0.0,0.0,0.0,0.0,0.0,0.0,0.0,0.0,0.0,0.0,0.0,0.0,0.0,0.0,0.0,3.5195,3.2776,3.1433,3.1433,3.045,2.9907,2.9804,2.9934,2.9972,2.9895,2.9972,0.0,0.0,0.0,0.0,0.0,2.895,2.8332,2.748,2.7384,2.7031,2.6679,2.6679,2.6679,2.6679,2.6679,2.6232,2.561,2.4998,2.4098,2.3245,2.3236,2.3175,2.312,2.3145,2.3577,2.4029,2.4079,2.4481,2.485,2.4901,2.4901,2.4901,2.4901,2.4876,2.4675,2.4155,2.4431,2.4575,2.4079,2.4004,2.4004,2.4004,2.3075,2.2347,2.2293,2.182,2.1295,2.0742,2.0691,2.0264,1.9158,1.8581,1.8003,1.7448,1.6873,1.6525,1.65,1.65,1.65,1.65,1.65,1.65,1.65,1.65,1.6224,1.5768,1.5711,1.5162,2.9888,0.0,3.0581,3.1055,3.0591,2.9945,0.0,0.0,0.0,0.0,0.0,0.0,0.0,2.9782,2.9334,3.0378,3.1312,0.0,0.0,0.0,0.0,0.0,0.0,0.0,0.0,0.0,0.0,0.0,0.0,0.0,0.0,0.0,0.0,3.4513,3.2771,3.1863,3.1863,3.1602,3.0907,2.9818,3.1267,3.1573,3.0895,3.1609,0.0,0.0,0.0,0.0,2.9861,2.949,2.931,2.91,2.8005,2.7941,2.8395,2.8395,2.8395,2.8395,2.8395,2.76,2.6419,2.5366,2.4948,2.4847,2.4688,2.3906,2.3195,2.3678,2.3904,2.418,2.5008,2.531,2.5536,2.5996,2.6097,2.6097,2.6097,2.5737,2.5259,2.4732,2.4381,2.4155,2.4029,2.4004,2.4004,2.4004,2.3371,2.2769,2.2343,2.182,2.1295,2.0742,2.0691,2.0415,1.9685,1.9108,1.843,1.7473,1.7272,1.6974,1.6525,1.65,1.65,1.65,1.65,1.65,1.65,1.65,1.6425,1.63,1.6296,1.6154,2.9907,3.0077,3.0153,3.0562,3.0443,3.0185,3.0059,0.0,0.0,0.0,0.0,0.0,0.0,0.0,0.0,0.0,0.0,0.0,0.0,0.0,0.0,0.0,0.0,0.0,0.0,0.0,0.0,0.0,0.0,0.0,0.0,0.0,3.4632,3.5296,3.3349,3.2384,3.2654,3.2384,3.1893,3.1108,3.2119,3.2307,3.1865,3.2379,0.0,0.0,0.0,0.0,3.0,2.9746,2.959,2.9348,2.8595,2.8588,2.9002,2.9002,2.9002,2.9002,2.9002,2.8365,2.7336,2.6418,2.6171,2.6239,2.6131,2.5611,2.5007,2.4978,2.5138,2.5536,2.6548,2.6661,2.6642,2.695,2.7027,2.6952,2.6602,2.6527,2.6385,2.5878,2.5224,2.4785,2.4946,2.4639,2.428,2.4029,2.3728,2.3296,2.2744,2.2393,2.192,2.1144,2.1069,2.0742,1.9861,1.9535,1.9008,1.8179,1.7652,1.725,1.6923,1.6647,1.65,1.65,1.65,1.65,1.65,1.65,1.65,1.65,1.65,1.65,3.0385,3.0854,3.103,3.0946,3.1034,3.105,3.0594,0.0,0.0,0.0,0.0,0.0,0.0,0.0,0.0,0.0,0.0,0.0,0.0,0.0,0.0,0.0,0.0,0.0,0.0,0.0,0.0,0.0,0.0,0.0,0.0,0.0,0.0,3.6294,3.4025,3.3092,3.3692,3.3119,3.2735,3.2593,3.2876,3.2947,3.2806,3.2975,0.0,0.0,0.0,0.0,3.0012,3.0016,2.9752,2.938,2.9254,2.9286,2.938,2.938,2.938,2.9352,2.9143,2.8786,2.8292,2.7589,2.7394,2.748,2.7448,2.753,2.7466,2.6911,2.6894,2.7305,2.8109,2.8112,2.7901,2.7901,2.7901,2.7703,2.7027,2.7404,2.7748,2.7195,2.6427,2.5936,2.6224,2.5647,2.4988,2.4427,2.4402,2.4223,2.3531,2.3365,2.2926,2.1916,2.1627,2.1066,2.0037,1.9861,1.961,1.9158,1.8129,1.7448,1.725,1.6773,1.65,1.65,1.65,1.65,1.65,1.65,1.65,1.65,1.65,1.65,3.0854,3.1782,3.2107,3.1516,3.1302,3.1234,3.1309,0.0,0.0,0.0,0.0,0.0,0.0,0.0,0.0,0.0,0.0,0.0,0.0,0.0,0.0,0.0,0.0,0.0,0.0,0.0,0.0,0.0,0.0,0.0,0.0,0.0,0.0,3.5636,3.4438,3.4235,3.5182,3.4269,3.3394,3.2629,3.4274,3.4639,3.3808,3.4673,3.4255,0.0,0.0,3.2849,3.0908,3.0942,3.1031,3.1073,3.0359,3.051,3.1131,3.1131,3.1131,3.0955,2.9753,2.9376,2.9155,2.7875,2.7892,2.839,2.8196,2.854,2.9084,2.9508,2.8853,2.8136,2.8726,2.8825,2.8812,2.8812,2.8812,2.878,2.8652,2.8716,2.862,2.8106,2.7434,2.696,2.6998,2.6939,2.6601,2.597,2.6356,2.6303,2.5213,2.4509,2.3843,2.319,2.2137,2.127,2.0616,2.0087,1.9761,1.9685,1.8681,1.7652,1.6697,1.655,1.65,1.65,1.65,1.65,1.65,1.65,1.65,1.65,1.65,1.65,2.9714,3.0913,3.1899,3.157,3.2257,3.2727,3.1722,0.0,0.0,0.0,0.0,0.0,0.0,0.0,0.0,0.0,0.0,0.0,0.0,0.0,0.0,0.0,0.0,0.0,0.0,0.0,0.0,0.0,0.0,0.0,0.0,0.0,0.0,0.0,3.5067,3.5034,3.5519,3.5034,3.4401,3.3623,3.4889,3.5053,3.428,3.476,3.4339,3.3338,0.0,3.2614,3.1306,3.1366,3.1427,3.1482,3.1102,3.1161,3.1511,3.1511,3.1511,3.1393,3.0777,3.033,3.0018,2.9743,2.9648,2.9662,2.9952,3.0249,3.0543,3.0837,3.0187,2.9503,3.0152,3.0056,2.969,2.969,2.969,2.9566,2.9097,2.938,2.9636,2.9383,2.8456,2.7887,2.8333,2.7727,2.6986,2.6378,2.6515,2.6348,2.5522,2.5105,2.4496,2.349,2.3227,2.2589,2.1301,2.13,2.0674,1.9032,1.848,1.7702,1.655,1.65,1.65,1.65,1.65,1.65,1.65,1.65,1.65,1.65,1.65,1.65,2.8757,2.9924,3.1092,3.1241,3.2557,3.3514,3.2437,0.0,0.0,0.0,0.0,0.0,0.0,0.0,0.0,0.0,0.0,0.0,0.0,0.0,0.0,0.0,0.0,0.0,0.0,0.0,0.0,0.0,0.0,0.0,0.0,0.0,0.0,0.0,3.5519,3.5429,3.528,3.528,3.5011,3.4503,3.5011,3.4891,3.4264,3.4264,3.3873,3.3245,3.2736,3.2108,3.1511,3.1511,3.1511,3.1511,3.1511,3.1511,3.1511,3.1511,3.1511,3.1511,3.1511,3.1062,3.0582,3.1092,3.0913,3.0612,3.1092,3.1391,3.1511,3.1511,3.1073,3.0718,3.1336,3.1043,3.0569,3.0569,3.0569,3.0389,2.9721,3.0117,3.0569,3.0569,2.9601,2.8936,2.9552,2.8598,2.7596,2.7004,2.6807,2.6554,2.5989,2.5741,2.5273,2.4231,2.434,2.3764,2.2003,2.2106,2.1192,1.8748,1.8461,1.7928,1.6931,1.6752,1.6689,1.6689,1.6689,1.6689,1.6689,1.6689,1.6689,1.6667,1.6565,1.6586,2.9202,2.9651,2.9864,3.0432,3.1152,0.0,3.3873,3.3335,0.0,0.0,0.0,0.0,0.0,0.0,0.0,0.0,0.0,0.0,0.0,0.0,0.0,0.0,0.0,0.0,0.0,0.0,0.0,0.0,0.0,0.0,0.0,0.0,0.0,0.0,0.0,3.519,3.4593,3.4563,3.4563,3.4503,3.4563,3.4234,3.3574,3.3574,3.3215,3.2557,3.2497,3.2108,3.1511,3.1511,3.1511,3.1511,3.1511,3.1511,3.1511,3.1511,3.1511,3.1511,3.1511,3.1062,3.0522,3.0552,3.0552,3.0522,3.0552,3.1002,3.1511,3.1511,3.1482,3.1453,3.1482,3.1482,3.1424,3.1424,3.1424,3.1424,3.1307,3.1365,3.1424,3.1424,3.0829,3.0352,3.0408,2.9873,2.922,2.8565,2.8419,2.8181,2.7522,2.6837,2.639,2.6279,2.5206,2.3974,2.2735,2.1604,2.0621,1.9812,1.9257,1.8662,1.8008,1.7517,1.7229,1.7229,1.7229,1.7229,1.7229,1.7229,1.7229,1.7229,1.6731,1.6774,2.7615,2.8663,2.9651,2.9864,3.0731,0.0,0.0,0.0,0.0,0.0,0.0,0.0,0.0,0.0,0.0,0.0,0.0,0.0,0.0,0.0,0.0,0.0,0.0,0.0,0.0,0.0,0.0,0.0,0.0,0.0,0.0,0.0,0.0,0.0,0.0,3.4773,3.4503,3.4114,3.3664,3.3275,3.3664,3.3514,3.2886,3.2886,3.2736,3.2497,3.2049,3.172,3.1511,3.1511,3.1241,3.0881,3.0881,3.1122,3.1511,3.1511,3.1511,3.1511,3.1511,3.1062,3.0582,3.0972,3.0823,3.0582,3.1002,3.1301,3.1511,3.1511,3.1511,3.1511,3.1511,3.1511,3.1511,3.1511,3.1511,3.1511,3.1511,3.1511,3.1511,3.1511,3.1301,3.1122,3.1122,3.0582,2.9953,2.9295,2.8876,2.8338,2.7675,2.7357,2.7023,2.6551,2.5289,2.4515,2.4495,2.2953,2.169,2.1067,1.9732,1.8684,1.8127,1.7894,1.7794,1.7794,1.7794,1.7794,1.7794,1.7794,1.7794,1.7773,1.7598,1.7619,2.6333,2.744,2.8723,0.0,0.0,0.0,0.0,0.0,0.0,0.0,0.0,0.0,0.0,0.0,0.0,0.0,0.0,0.0,0.0,0.0,0.0,0.0,0.0,0.0,0.0,0.0,0.0,0.0,0.0,0.0,0.0,0.0,0.0,0.0,0.0,0.0,3.3873,3.3395,3.2856,3.2168,3.2647,3.2647,3.2168,3.2168,3.2168,3.2138,3.169,3.1511,3.1511,3.1511,3.1092,3.0492,3.0283,3.0612,3.1182,3.1182,3.1331,3.1511,3.1511,3.1182,3.0883,3.1361,3.1182,3.0883,3.1361,3.1511,3.1511,3.1511,3.1511,3.1511,3.1511,3.1511,3.1511,3.1511,3.1511,3.1511,3.1511,3.1511,3.1511,3.1511,3.1511,3.1511,3.1511,3.0943,3.0313,2.9711,2.9026,2.8338,2.7675,2.7585,2.7348,2.6601,2.5504,2.4974,2.5269,2.3703,2.2408,2.1734,2.0298,1.9219,1.8626,1.8424,1.8347,1.8347,1.8347,1.8347,1.8347,1.8347,1.8347,1.8347,1.8171,1.819,2.5794,2.6093,2.6752,0.0,0.0,0.0,0.0,0.0,0.0,0.0,0.0,0.0,0.0,0.0,0.0,0.0,0.0,0.0,0.0,0.0,0.0,0.0,0.0,0.0,0.0,0.0,0.0,0.0,0.0,0.0,0.0,0.0,0.0,0.0,0.0,0.0,3.2497,3.2497,3.2138,3.1481,3.1481,3.1481,3.1511,3.1511,3.1511,3.1511,3.1511,3.1511,3.1481,3.1481,3.1092,3.0432,2.9831,2.9953,3.0492,3.0492,3.0913,3.1511,3.1481,3.1511,3.1511,3.1511,3.1511,3.1511,3.1511,3.1511,3.1511,3.1511,3.1511,3.1511,3.1511,3.1511,3.1511,3.1511,3.1511,3.1511,3.1511,3.1511,3.1511,3.1511,3.1511,3.1511,3.1481,3.0943,3.0313,2.9681,2.9026,2.8368,2.7675,2.7585,2.7345,2.6662,2.6004,2.5322,2.4664,2.343,2.2433,2.1724,2.1096,2.0408,1.9738,1.9173,1.8912,1.8912,1.8912,1.8912,1.8912,1.8912,1.8912,1.8893,1.8347,1.8386,2.5794,2.6093,0.0,0.0,0.0,0.0,0.0,0.0,0.0,0.0,0.0,0.0,0.0,0.0,0.0,0.0,0.0,0.0,0.0,0.0,0.0,0.0,0.0,0.0,0.0,0.0,0.0,0.0,0.0,0.0,0.0,0.0,0.0,0.0,0.0,0.0,3.2527,3.115,3.0582,3.0791,3.0372,3.0642,3.1511,3.1511,3.1511,3.1511,3.1511,3.1241,3.0731,2.9834,2.9864,3.0402,2.9325,2.9564,3.0462,3.0013,3.0582,3.1421,3.0943,3.1092,3.1511,3.1511,3.1511,3.1511,3.1511,3.1511,3.1511,3.1511,3.1511,3.1511,3.1511,3.1511,3.1511,3.1511,3.1511,3.1511,3.1511,3.1511,3.1511,3.1511,3.1511,3.1361,3.0881,3.1002,3.0673,2.9116,2.9116,2.8903,2.7735,2.7585,2.7345,2.6662,2.6004,2.5322,2.4664,2.3819,2.2862,2.1754,2.1515,2.0887,1.9738,1.9533,1.946,1.946,1.946,1.946,1.946,1.946,1.946,1.946,1.9314,1.9314,2.5255,2.6063,0.0,0.0,0.0,0.0,0.0,0.0,0.0,0.0,0.0,0.0,0.0,0.0,0.0,0.0,0.0,0.0,0.0,0.0,0.0,0.0,0.0,0.0,0.0,0.0,0.0,0.0,0.0,0.0,0.0,0.0,0.0,0.0,0.0,0.0,3.133,3.0191,2.9801,3.0133,2.9771,2.9983,3.0761,3.0761,3.0761,3.0761,3.0761,3.0522,3.0073,2.9026,2.9056,2.9654,2.8607,2.8816,2.9714,2.9325,2.9864,3.0702,3.0283,3.0582,3.1092,3.1092,3.1271,3.1511,3.1511,3.1511,3.1451,3.1182,3.1301,3.1451,3.1152,3.1301,3.1511,3.1511,3.1511,3.1511,3.1511,3.1511,3.1511,3.1511,3.1511,3.1301,3.0612,3.1062,3.0823,2.8906,2.8723,2.8513,2.7705,2.7375,2.6956,2.6273,2.5615,2.4933,2.4246,2.3849,2.3041,2.1784,2.1695,2.1096,1.9768,1.9708,1.9708,1.9708,1.9708,1.9708,1.9708,1.9708,1.9708,1.9708,1.9708,1.9708,2.4575,0.0,0.0,0.0,0.0,0.0,0.0,0.0,0.0,0.0,0.0,0.0,0.0,0.0,0.0,0.0,0.0,0.0,0.0,0.0,0.0,0.0,0.0,0.0,0.0,0.0,0.0,0.0,0.0,0.0,0.0,0.0,0.0,0.0,0.0,0.0,2.9621,2.9502,2.9442,0.0,2.9442,2.9442,2.9442,2.9562,2.9621,2.9621,2.9562,2.9562,2.9562,2.8816,2.8547,2.8517,2.7854,2.8034,2.8577,2.8517,2.8966,2.9592,2.9532,2.9894,3.0432,3.0492,3.0913,3.1421,3.1481,3.1511,3.1361,3.0733,3.1032,3.1361,3.0761,3.1032,3.1511,3.1511,3.1511,3.1511,3.1511,3.1511,3.1511,3.1511,3.1511,3.1271,3.0552,3.0972,3.0763,2.8876,2.8034,2.7585,2.7585,2.7076,2.6393,2.5674,2.5053,2.4395,2.367,2.355,2.2981,2.1784,2.1635,2.1036,1.9768,1.9708,1.9708,1.9708,1.9708,1.9708,1.9708,1.9708,1.9708,1.9708,1.9708,1.9708,2.5854,2.6482,0.0,0.0,0.0,0.0,0.0,0.0,0.0,0.0,0.0,0.0,0.0,0.0,0.0,0.0,0.0,0.0,0.0,0.0,0.0,0.0,0.0,0.0,0.0,0.0,0.0,0.0,0.0,0.0,0.0,0.0,0.0,0.0,0.0,2.9056,2.9592,2.8573,2.8304,0.0,2.8274,2.8034,2.8064,2.9112,2.9621,2.9592,2.9026,2.9116,2.9502,2.8304,2.8154,2.8517,2.7854,2.8034,2.8547,2.8034,2.8573,2.9532,2.8996,2.9235,2.9864,3.0342,3.0612,3.0821,3.1331,3.1511,3.1481,3.1331,3.1391,3.1481,3.1331,3.1391,3.1511,3.1511,3.1511,3.1511,3.1511,3.1511,3.1511,3.1511,3.1511,3.1122,2.9983,3.0313,3.0253,2.8816,2.8034,2.7585,2.7585,2.7465,2.6926,2.5734,2.5472,2.4896,2.3699,2.3182,2.2553,2.1754,2.1216,2.0557,1.9738,1.9708,1.9708,1.9708,1.9708,1.9708,1.9708,1.9708,1.9708,1.9708,1.9708,1.9708,2.5285,0.0,0.0,0.0,0.0,0.0,0.0,0.0,0.0,0.0,0.0,0.0,0.0,0.0,0.0,0.0,0.0,0.0,0.0,0.0,0.0,0.0,0.0,0.0,0.0,0.0,0.0,0.0,0.0,0.0,0.0,0.0,0.0,0.0,2.8637,2.8304,2.8633,2.7944,2.7794,2.8098,2.7764,2.7585,2.7615,2.8334,2.8633,2.8633,2.8274,2.8334,2.8603,2.7884,2.7824,2.8094,2.7735,2.7824,2.8094,2.7735,2.8034,2.8603,2.8218,2.8547,2.9235,2.9864,3.0253,3.0642,3.1301,3.1511,3.1421,3.1092,3.1241,3.1421,3.1092,3.1241,3.1511,3.1511,3.1511,3.1511,3.1511,3.1511,3.1511,3.1511,3.1511,3.1092,2.9804,2.9352,2.8996,2.8637,2.8034,2.7585,2.7585,2.7046,2.6363,2.5674,2.5046,2.4358,2.367,2.331,2.2733,2.1754,2.1365,2.0737,1.9738,1.9708,1.9708,1.9708,1.9708,1.9708,1.9708,1.9708,1.9708,1.9708,1.9708,1.9785,2.4066,0.0,0.0,0.0,0.0,0.0,0.0,0.0,0.0,0.0,0.0,0.0,0.0,0.0,0.0,0.0,0.0,0.0,0.0,0.0,0.0,0.0,0.0,0.0,0.0,0.0,0.0,0.0,0.0,0.0,0.0,0.0,2.9175,2.8607,2.7944,2.7585,2.7585,2.7585,2.7585,2.7585,2.7585,2.7525,2.7435,2.7555,2.7585,2.7585,2.7465,2.7495,2.7585,2.7465,2.7495,2.7585,2.7465,2.7495,2.7585,2.7465,2.7495,2.7585,2.7585,2.7974,2.8517,2.9232,2.9774,3.0313,3.1092,3.1331,3.1241,3.0821,3.1062,3.1361,3.0821,3.1062,3.1481,3.1361,3.1421,3.1511,3.1511,3.1511,3.1481,3.1361,3.1152,3.0644,2.9594,2.8423,2.7794,2.8338,2.7974,2.7585,2.7585,2.6512,2.5734,2.5615,2.4507,2.3729,2.361,2.349,2.2981,2.1934,2.1665,2.1036,1.9917,1.9768,1.9744,1.9785,1.9744,1.9708,1.9708,1.9708,1.9708,1.9708,1.9708,1.9874,0.0,0.0,0.0,0.0,0.0,0.0,0.0,0.0,0.0,0.0,0.0,0.0,0.0,0.0,0.0,0.0,0.0,0.0,0.0,0.0,0.0,0.0,0.0,0.0,0.0,0.0,0.0,0.0,0.0,0.0,0.0,2.9086,2.8697,2.8607,2.7944,2.7585,2.7585,2.7585,2.7585,2.7585,2.7585,2.7315,2.6776,2.7345,2.7585,2.7555,2.6986,2.7076,2.7555,2.6986,2.7076,2.7525,2.6956,2.7106,2.7525,2.6956,2.7106,2.7585,2.7585,2.7645,2.7854,2.8517,2.8786,2.9086,3.0283,3.0642,3.0761,3.1241,3.1421,3.1481,3.1391,3.1421,3.1361,3.0791,3.1062,3.1511,3.1511,3.1511,3.1331,3.0761,2.9744,2.8936,2.8757,2.8124,2.7615,2.7735,2.7645,2.7585,2.7585,2.6956,2.6243,2.5674,2.4903,2.4216,2.364,2.3122,2.2763,2.2583,2.1485,2.0748,2.0569,2.0019,1.9856,2.0227,1.9874,1.9708,1.9708,1.9708,1.9708,1.9708,1.9708,1.9744,2.4112,0.0,0.0,0.0,0.0,0.0,0.0,0.0,0.0,0.0,0.0,0.0,0.0,0.0,0.0,0.0,0.0,0.0,0.0,0.0,0.0,0.0,0.0,0.0,0.0,0.0,0.0,0.0,0.0,0.0,2.9086,2.8757,2.8427,2.8064,2.7764,2.7435,2.7046,2.7405,2.7585,2.7585,2.7585,2.7435,2.7165,2.7465,2.7585,2.7555,2.6896,2.6776,2.6986,2.6303,2.6213,2.6482,2.6596,2.6776,2.7046,2.7136,2.7345,2.7585,2.7585,2.7585,2.7705,2.8368,2.8607,2.8757,2.9714,2.9983,3.0133,3.0733,3.0943,3.1032,3.1391,3.1511,3.1331,3.0672,3.0731,3.0851,3.0522,3.1002,3.1301,3.0642,2.9475,2.8607,2.8607,2.8064,2.7585,2.7585,2.7585,2.7465,2.7106,2.6452,2.5794,2.5113,2.4425,2.404,2.4027,2.3794,2.3631,2.3546,2.2611,2.1895,2.1508,2.0545,2.0244,2.0698,2.0261,2.0019,2.0019,2.0019,1.9927,1.9708,1.9945,2.0176,0.0,0.0,0.0,0.0,0.0,0.0,0.0,0.0,0.0,0.0,0.0,0.0,0.0,0.0,0.0,0.0,0.0,0.0,0.0,0.0,0.0,0.0,0.0,0.0,0.0,0.0,0.0,0.0,0.0,0.0,2.8397,2.8338,2.8098,2.7615,2.7435,2.7106,2.6602,2.7106,2.7255,2.7106,2.7255,2.7255,2.7106,2.7106,2.7106,2.7076,2.6542,2.6422,2.6512,2.5704,2.5442,2.5621,2.5974,2.6303,2.6632,2.6986,2.7315,2.7585,2.7585,2.7585,2.7675,2.8158,2.8338,2.8457,2.9116,2.9352,2.9475,3.0103,3.0372,3.0612,3.1122,3.1361,3.1331,3.0672,3.0492,3.0428,3.0169,3.0451,3.07,3.0561,2.9471,2.8595,2.8595,2.8293,2.7942,2.7618,2.7686,2.7491,2.6663,2.6061,2.55,2.4859,2.4346,2.4101,2.4369,2.4532,2.4571,2.4452,2.3601,2.2896,2.2354,2.114,2.0698,2.1134,2.0797,2.0567,2.0499,2.0499,2.033,2.0032,2.0347,2.0682,0.0,0.0,0.0,0.0,0.0,0.0,0.0,0.0,0.0,0.0,0.0,0.0,0.0,0.0,0.0,0.0,0.0,0.0,0.0,0.0,0.0,0.0,0.0,0.0,0.0,0.0,0.0,0.0,0.0,0.0,2.7675,2.7645,2.7645,2.7585,2.6986,2.6632,2.6602,2.6632,2.6333,2.5704,2.6333,2.6303,2.5704,2.5704,2.5704,2.5704,2.5674,2.6004,2.6482,2.5173,2.5023,2.5555,2.4933,2.5495,2.6512,2.5944,2.6512,2.7585,2.7585,2.7585,2.7615,2.7645,2.7645,2.7794,2.8457,2.8637,2.8786,2.9472,3.0043,3.0522,3.0552,3.1002,3.1331,3.0672,3.0492,3.0687,3.1332,3.0042,2.9117,3.0361,2.9447,2.8501,2.8501,2.8935,2.8912,2.7705,2.792,2.78,2.6545,2.6251,2.5956,2.5431,2.5201,2.493,2.445,2.4871,2.515,2.5138,2.3871,2.3085,2.3071,2.171,2.115,2.1552,2.1536,2.1337,2.0959,2.0959,2.0943,2.0926,2.0943,2.0975,0.0,0.0,0.0,0.0,0.0,0.0,0.0,0.0,0.0,0.0,0.0,0.0,0.0,0.0,0.0,0.0,0.0,0.0,0.0,0.0,0.0,0.0,0.0,0.0,0.0,0.0,0.0,0.0,0.0,0.0,2.7645,2.7585,2.7585,2.7585,2.6956,2.6393,2.5974,2.5531,2.5412,2.5615,2.5854,2.5824,2.5615,2.5615,2.5615,2.5585,2.5143,2.5083,2.5255,2.4306,2.4118,2.4388,2.5016,2.5555,2.6033,2.6632,2.7195,2.7585,2.7585,2.7585,2.7585,2.7585,2.7585,2.7645,2.7884,2.7974,2.8094,2.8757,2.9116,2.9582,3.0884,3.1025,3.0693,3.002,3.0225,3.0613,3.0858,3.0683,3.0591,3.1082,3.0038,2.9065,2.9065,2.9248,2.9243,2.8785,2.8484,2.7987,2.7094,2.6502,2.5958,2.5353,2.5245,2.5259,2.5411,2.558,2.5819,2.6157,2.5245,2.4713,2.4713,2.2997,2.2304,2.275,2.1996,2.1521,2.1384,2.1384,2.1244,2.1007,2.126,2.1384,0.0,0.0,0.0,0.0,0.0,0.0,0.0,0.0,0.0,0.0,0.0,0.0,0.0,0.0,0.0,0.0,0.0,0.0,0.0,0.0,0.0,0.0,0.0,0.0,0.0,0.0,0.0,0.0,0.0,0.0,2.7615,2.7585,2.7375,2.6956,2.6273,2.5615,2.4956,2.4724,2.4814,2.5262,2.5262,2.5262,2.5262,2.5046,2.4926,2.4896,2.4455,2.4395,2.4575,2.4126,2.3939,2.4007,2.4903,2.5555,2.6004,2.6662,2.7225,2.7585,2.7585,2.7585,2.7585,2.7585,2.7585,2.7635,2.7835,2.791,2.8,2.843,2.8732,2.9199,3.0546,3.1021,3.1049,3.066,3.1079,3.15,3.1223,3.1186,3.1197,3.144,3.0526,2.9695,2.9695,2.987,2.987,2.9416,2.9123,2.8579,2.7721,2.7088,2.6607,2.625,2.6138,2.6241,2.6704,2.667,2.6751,2.7046,2.615,2.5592,2.5592,2.4108,2.3456,2.3748,2.2754,2.2204,2.2204,2.1971,2.1705,2.1447,2.172,2.1823,0.0,0.0,0.0,0.0,0.0,0.0,0.0,0.0,0.0,0.0,0.0,0.0,0.0,0.0,0.0,0.0,0.0,0.0,0.0,0.0,0.0,0.0,0.0,0.0,0.0,0.0,0.0,0.0,0.0,2.7615,2.7585,2.7585,2.6956,2.5644,2.4963,2.4276,2.361,2.4246,2.4575,2.4575,2.4575,2.4575,2.4545,2.3931,2.3601,2.361,2.3631,2.3969,2.4575,2.4575,2.4575,2.4575,2.4605,2.5412,2.6482,2.5884,2.6482,2.7585,2.7585,2.7585,2.7585,2.7585,2.7585,2.771,2.8319,2.8487,2.8511,2.8511,2.9007,2.9503,2.9558,3.0998,3.2517,3.2552,3.3047,3.3284,3.2595,3.1443,3.0729,3.132,3.0813,3.033,3.033,3.0784,3.0763,2.9536,2.9752,2.9633,2.8423,2.7992,2.7933,2.8205,2.7977,2.7915,2.8172,2.7943,2.779,2.7756,2.6404,2.5626,2.5626,2.4898,2.4541,2.4541,2.3797,2.341,2.341,2.2651,2.2313,2.2313,2.2313,2.2313,1.9533,0.0,0.0,0.0,0.0,0.0,0.0,0.0,0.0,0.0,0.0,0.0,0.0,0.0,0.0,0.0,0.0,0.0,0.0,0.0,0.0,0.0,0.0,0.0,0.0,0.0,0.0,0.0,2.8064,2.8124,2.7615,2.7136,2.6482,2.5644,2.4963,2.4276,2.361,2.3789,2.3879,2.3879,2.3879,2.3879,2.3879,2.4097,2.3985,2.3631,2.4027,2.4055,2.3879,2.3879,2.3879,2.3969,2.4933,2.5555,2.5974,2.6752,2.7285,2.7585,2.7585,2.7585,2.7585,2.7585,2.7585,2.771,2.8319,2.8487,2.8583,2.9019,2.9261,2.9662,3.0623,3.1648,3.2294,3.1831,3.2216,3.2373,3.1166,3.1402,3.1867,3.2013,3.1463,3.0938,3.0938,3.0653,3.0475,3.0642,2.9897,2.936,2.9566,2.9053,2.8685,2.8758,2.8734,2.8464,2.7949,2.7854,2.7587,2.7029,2.6623,2.6387,2.6387,2.5676,2.5304,2.5304,2.4052,2.341,2.341,2.2651,2.2313,2.2313,2.2313,2.2313,0.0,0.0,0.0,0.0,0.0,0.0,0.0,2.2143,0.0,0.0,0.0,0.0,0.0,0.0,0.0,0.0,0.0,0.0,0.0,0.0,0.0,0.0,0.0,0.0,0.0,0.0,0.0,0.0,2.8368,2.8308,2.7645,2.6692,2.6004,2.5615,2.4664,2.3999,2.361,2.361,2.361,2.361,2.361,2.3709,2.3943,2.4246,2.4225,2.3964,2.4266,2.4225,2.3973,2.4268,2.442,2.4507,2.5285,2.5944,2.6482,2.7016,2.7375,2.7585,2.7585,2.7585,2.7585,2.7585,2.776,2.8076,2.8701,2.9042,2.9316,2.9673,2.9783,3.0033,3.1122,3.189,3.234,3.225,3.2274,3.2119,3.1295,3.1496,3.1853,3.1853,3.1495,3.119,3.119,3.0852,3.0717,3.1123,3.0446,3.0074,3.0514,2.9905,2.9567,2.989,2.9653,2.9262,2.8804,2.8484,2.7977,2.7199,2.686,2.6691,2.6691,2.6285,2.6048,2.6048,2.4898,2.4019,2.341,2.2651,2.2313,2.2313,2.2313,2.2313,0.0,0.0,0.0,0.0,0.0,0.0,2.0718,2.0748,2.0976,0.0,0.0,0.0,0.0,0.0,0.0,0.0,0.0,0.0,0.0,0.0,0.0,0.0,0.0,0.0,0.0,0.0,3.0013,2.8607,2.8487,2.8218,2.7615,2.6333,2.5615,2.5615,2.4298,2.361,2.361,2.361,2.361,2.361,2.361,2.3879,2.441,2.4471,2.4491,2.4491,2.4552,2.4552,2.4522,2.5186,2.5549,2.5681,2.5854,2.6663,2.7629,2.7018,2.7144,2.7565,2.752,2.7435,2.7375,2.745,2.7814,2.8412,2.907,2.9708,3.0198,3.036,3.0393,3.0579,3.1295,3.1842,3.2361,3.3085,3.2713,3.2192,3.2192,3.1616,3.1089,3.119,3.119,3.119,3.119,3.1123,3.1089,3.1089,3.1089,3.1089,3.1089,3.0581,3.048,3.1123,3.0615,3.0209,3.0108,2.9397,2.8653,2.7858,2.7097,2.6691,2.6691,2.6691,2.6691,2.6691,2.5913,2.4797,2.341,2.2651,2.2313,2.2313,2.2313,2.2313,0.0,0.0,0.0,0.0,0.0,0.0,2.0808,2.1126,2.1545,0.0,0.0,0.0,0.0,0.0,0.0,0.0,0.0,0.0,0.0,0.0,0.0,0.0,0.0,0.0,0.0,0.0,3.0315,2.7974,2.7794,2.7735,2.7615,2.6333,2.5615,2.5615,2.4298,2.361,2.361,2.361,2.361,2.361,2.361,2.3879,2.441,2.4851,2.5047,2.5067,2.5486,2.543,2.5047,2.5194,2.5624,2.6271,2.7401,2.8025,2.8221,2.8163,2.7881,2.7465,2.6947,2.6422,2.6045,2.6482,2.671,2.7003,2.8024,2.8858,2.9654,3.0731,3.0998,3.1167,3.1928,3.1773,3.1616,3.2361,3.1955,3.1393,3.1393,3.0852,3.048,3.1089,3.119,3.119,3.119,3.0717,3.0311,3.0311,3.0311,3.0311,3.0311,3.0717,3.1021,3.119,3.1055,3.0751,3.0156,2.9397,2.8653,2.7858,2.7097,2.6691,2.6691,2.6691,2.6691,2.6691,2.5388,2.4271,2.341,2.2651,2.2313,2.2313,2.2313,2.2313,0.0,0.0,0.0,2.1276,0.0,0.0,0.0,2.0707,2.0797,0.0,0.0,0.0,0.0,0.0,0.0,0.0,0.0,0.0,0.0,0.0,0.0,0.0,0.0,0.0,0.0,0.0,2.9505,2.8214,2.7495,2.7106,2.7106,2.5824,2.5083,2.5083,2.4118,2.361,2.361,2.361,2.373,2.4006,2.4006,2.443,2.5221,2.5468,2.558,2.5598,2.5888,2.5852,2.5612,2.5989,2.6727,2.7674,2.7821,2.8265,2.884,2.824,2.7975,2.7758,2.6811,2.6275,2.6092,2.662,2.6838,2.6999,2.7858,2.882,2.978,3.047,3.092,3.1292,3.1684,3.1481,3.1292,3.1684,3.1461,3.119,3.119,3.0615,3.0209,3.0581,3.0345,3.0209,3.0581,3.004,2.9533,2.9533,2.9871,3.0108,3.0108,3.0751,3.119,3.119,3.119,3.0886,3.0176,2.9397,2.8653,2.7858,2.7097,2.6691,2.6691,2.6691,2.6691,2.6691,2.5609,2.4711,2.3966,2.3207,2.2651,2.2313,2.2313,2.2313,0.0,0.0,0.0,0.0,0.0,2.1107,0.0,0.0,0.0,2.0438,0.0,0.0,0.0,0.0,0.0,0.0,0.0,0.0,0.0,0.0,0.0,0.0,0.0,0.0,0.0,0.0,2.8068,2.8218,2.7081,2.6393,2.6393,2.5262,2.4605,2.4605,2.3969,2.361,2.361,2.361,2.3879,2.441,2.441,2.4969,2.5997,2.5997,2.6033,2.6122,2.6287,2.6254,2.6188,2.6917,2.7855,2.8716,2.8096,2.8628,2.9609,2.8446,2.8132,2.8126,2.6983,2.6389,2.6258,2.6786,2.7138,2.7522,2.8102,2.9125,3.0108,3.0108,3.0649,3.119,3.119,3.119,3.119,3.119,3.119,3.119,3.119,3.0615,3.0108,3.0108,2.9364,2.8991,2.977,2.9397,2.8942,2.8807,2.9397,2.9837,2.9683,3.0446,3.0987,3.0987,3.0987,3.0751,3.0156,2.9262,2.8484,2.7858,2.7097,2.6691,2.6691,2.6691,2.6691,2.6691,2.5981,2.5304,2.4711,2.3831,2.3004,2.2313,2.2313,2.2313,0.0,0.0,0.0,0.0,2.2921,0.0,0.0,0.0,2.0438,1.9899,0.0,0.0,0.0,0.0,0.0,0.0,0.0,0.0,0.0,0.0,0.0,0.0,0.0,0.0,0.0,0.0,0.0,2.6782,2.6123,2.5704,2.5704,2.4993,2.4605,2.4605,2.3969,2.361,2.361,2.361,2.3879,2.441,2.441,2.4969,2.5997,2.5997,2.621,2.6657,2.7315,2.7214,2.6691,2.7416,2.7805,2.806,2.9301,3.0272,3.0918,3.0231,2.9231,2.8115,2.743,2.6381,2.5406,2.5952,2.6854,2.7866,2.8664,2.9462,3.0108,3.0108,3.0649,3.119,3.119,3.119,3.119,3.119,3.119,3.119,3.119,3.0615,3.0108,3.0108,2.8939,2.8196,2.901,2.9077,2.8773,2.8027,2.8619,2.8856,2.8162,2.9311,3.0224,3.0224,3.0224,3.0209,3.0108,2.877,2.7891,2.7824,2.7097,2.6691,2.6691,2.6691,2.6691,2.6691,2.5981,2.5575,2.5473,2.4086,2.3004,2.2313,2.2313,2.2313,0.0,0.0,0.0,0.0,0.0,0.0,0.0,0.0,2.1306,0.0,0.0,0.0,0.0,0.0,0.0,0.0,0.0,0.0,0.0,0.0,0.0,0.0,0.0,0.0,0.0,0.0,0.0,0.0,0.0,2.4448,2.4448,2.3849,2.367,2.4007,2.3759,2.3752,2.4069,2.4038,2.4491,2.5335,2.5335,2.5691,2.6418,2.6418,2.6757,2.7317,2.7215,2.7232,2.7317,2.7199,2.7706,2.8552,2.9194,2.9634,2.9901,2.9762,2.9264,2.8524,2.7525,2.6775,2.6278,2.6056,2.6832,2.7858,2.8213,2.9161,3.0108,3.0108,3.0649,3.119,3.119,3.119,3.1089,3.0649,3.0548,3.0548,3.0548,2.9973,2.9465,2.9465,2.8568,2.7756,2.769,2.769,2.7537,2.7199,2.7807,2.818,2.7858,2.9142,3.0108,3.0108,3.048,3.0581,3.0142,2.9127,2.8315,2.7824,2.7097,2.6691,2.6691,2.6691,2.6691,2.6691,2.6387,2.6015,2.5592,2.5,2.4086,2.2936,2.2482,2.2313,2.4903,0.0,0.0,0.0,0.0,0.0,0.0,0.0,0.0,0.0,0.0,0.0,0.0,0.0,0.0,0.0,0.0,0.0,0.0,0.0,0.0,0.0,0.0,0.0,0.0,0.0,0.0,0.0,0.0,0.0,2.3281,2.3009,2.3007,2.3362,2.364,2.4027,2.4389,2.4552,2.5086,2.5997,2.5997,2.6228,2.6691,2.6691,2.6996,2.7486,2.7368,2.7503,2.779,2.7672,2.8044,2.8687,2.9145,2.9025,2.8752,2.9521,2.9585,2.9124,2.8,2.747,2.7238,2.6924,2.7541,2.8432,2.8432,2.9345,3.0378,3.0176,3.0649,3.119,3.119,3.119,3.1055,3.0548,3.0243,3.0108,3.0108,2.9499,2.8942,2.8687,2.8213,2.7553,2.6826,2.6691,2.6759,2.6962,2.73,2.7553,2.7756,2.877,2.9548,2.977,3.0074,3.0142,2.9837,2.8924,2.8112,2.7519,2.6996,2.6691,2.6691,2.6691,2.6691,2.6691,2.6488,2.615,2.5592,2.5406,2.4729,2.3695,2.2936,2.2482,0.0,0.0,0.0,2.4754,0.0,0.0,0.0,0.0,2.2493,0.0,0.0,0.0,0.0,0.0,0.0,0.0,0.0,0.0,0.0,0.0,0.0,0.0,0.0,0.0,0.0,0.0,0.0,0.0,0.0,0.0,2.2404,2.294,2.3111,2.2753,2.3794,2.4389,2.441,2.493,2.5449,2.5997,2.5997,2.6228,2.6691,2.6691,2.6691,2.6826,2.8299,2.8484,2.7925,2.9379,2.9142,2.7993,2.948,2.9142,2.8094,3.0326,3.0664,2.9973,2.9194,2.8432,2.7908,2.8635,2.9431,3.0021,3.0021,3.0548,3.1021,3.0311,3.0649,3.119,3.119,3.119,3.119,3.1157,3.0615,3.0108,3.0108,2.9499,2.8773,2.7993,2.7824,2.7553,2.6826,2.6691,2.6928,2.7655,2.7199,2.6996,2.7722,2.7858,2.8162,2.8942,2.8383,2.8196,2.8976,2.7656,2.6759,2.6725,2.6691,2.6691,2.6691,2.6691,2.6691,2.6691,2.6015,2.5642,2.5592,2.488,2.4508,2.444,2.3729,2.297,0.0,0.0,2.4874,2.4664,0.0,0.0,0.0,0.0,0.0,0.0,0.0,0.0,0.0,0.0,0.0,0.0,0.0,0.0,0.0,0.0,0.0,0.0,0.0,0.0,0.0,0.0,0.0,0.0,0.0,0.0,0.0,2.2307,2.2802,2.358,2.4004,2.4621,2.5449,2.5649,2.5979,2.647,2.647,2.6556,2.6691,2.6691,2.6962,2.7418,2.7469,2.7604,2.779,2.7841,2.7824,2.7891,2.8958,2.9364,2.9413,3.0209,3.0006,2.9348,2.9077,2.8484,2.7925,2.8739,2.9499,3.0108,3.0108,3.0615,3.1157,3.0886,3.1021,3.119,3.119,3.119,3.0954,2.9991,2.9533,2.9364,2.9364,2.9179,2.8908,2.8671,2.8586,2.8349,2.7553,2.7418,2.7519,2.7756,2.7587,2.7689,2.8484,2.8586,2.889,2.9634,2.9499,2.9413,2.9702,2.8315,2.7232,2.6725,2.6691,2.6691,2.6691,2.6691,2.6691,2.6691,2.5981,2.5845,2.6319,2.5575,2.5236,2.5236,2.4966,2.4611,2.4664,2.4605,0.0,2.4605,2.4276,0.0,2.4515,0.0,0.0,0.0,0.0,0.0,0.0,0.0,0.0,0.0,0.0,0.0,0.0,2.2296,0.0,0.0,0.0,0.0,0.0,0.0,0.0,0.0,0.0,0.0,0.0,0.0,2.2662,2.3706,2.414,2.4865,2.5979,2.6157,2.6418,2.6691,2.6691,2.6691,2.6691,2.6691,2.7097,2.779,2.7604,2.7774,2.8213,2.801,2.8044,2.8297,2.9093,2.9499,2.9736,3.0006,2.9634,2.9044,2.9314,2.889,2.8315,2.884,2.9499,3.0108,3.0108,3.0615,3.1157,3.0886,3.0987,3.1123,3.0886,3.0987,3.0954,3.0025,2.9382,2.901,2.901,2.857,2.8197,2.8197,2.84,2.8416,2.7891,2.8027,2.8315,2.8568,2.8398,2.8518,2.9296,2.9179,2.9281,3.004,2.9871,2.96,2.9311,2.8128,2.7199,2.6725,2.6691,2.6691,2.6691,2.6691,2.659,2.6319,2.5991,2.5915,2.612,2.6071,2.5953,2.5797,2.6227,2.6283]}]]